ECMWFNIL_925_thetae_000.txt.gz
Theta_e
291 291 290 290 290 289 289 289 288 288 288 287 287 287 286 286 285 285 285 285 284 283 282 281 281 281 281 281 281 282 282 282 282 282 282 283 283 283 283 282 282 282
291 291 290 290 289 289 289 288 288 288 287 287 286 286 286 286 285 285 285 284 283 282 281 281 280 280 281 281 281 281 281 282 282 282 282 282 282 282 282 282 282 282
291 290 290 290 289 289 288 288 288 288 287 287 286 286 286 285 285 285 284 283 283 282 281 281 280 280 280 280 281 281 281 281 281 281 282 282 282 282 282 282 282 282
290 290 290 289 289 288 288 288 287 287 287 286 286 285 285 285 285 285 284 283 282 281 281 280 280 280 280 280 280 280 280 280 280 281 281 281 281 281 281 281 281 281
290 289 289 289 288 288 288 287 287 286 286 286 286 285 285 285 285 285 284 283 282 281 280 280 280 280 280 279 279 279 279 280 280 280 280 281 281 281 281 281 281 281
289 289 289 288 288 287 287 287 287 286 286 286 285 285 285 285 285 285 284 282 281 281 280 280 280 279 279 279 279 279 279 279 279 279 280 280 280 280 280 280 280 280
289 288 288 288 287 287 287 286 286 286 286 285 285 285 285 285 285 284 282 281 281 280 280 280 279 279 279 279 279 279 278 278 279 279 279 279 279 279 279 279 279 279
288 288 287 287 286 286 286 286 285 285 285 285 284 285 285 285 284 283 281 281 280 280 279 279 279 279 278 278 278 278 278 278 278 278 277 277 277 277 277 277 277 277
287 287 286 286 286 285 285 285 285 285 284 284 284 284 284 284 283 282 281 280 280 279 279 279 278 278 278 278 277 277 277 277 277 277 276 276 275 275 275 275 275 275
287 286 286 285 285 285 284 284 284 284 284 284 284 284 283 283 281 281 280 280 279 279 278 278 278 278 278 277 277 276 276 276 276 275 275 274 274 274 274 273 273 273
286 285 285 285 284 284 284 284 284 284 284 284 284 283 282 281 280 280 279 279 279 278 278 278 277 277 277 276 276 276 275 275 274 274 273 273 273 273 272 272 272 272
285 285 285 284 284 284 283 283 283 283 283 283 283 282 282 281 280 279 279 278 278 278 277 277 277 276 276 276 275 275 274 273 273 273 272 272 272 271 271 271 271 271
285 285 284 284 283 283 283 283 283 283 283 283 282 282 281 280 279 279 278 278 277 277 277 276 276 275 275 275 274 273 273 272 272 272 271 271 271 271 271 271 271 271
285 284 284 283 283 283 282 282 282 283 283 282 281 281 280 279 279 278 277 277 277 276 276 275 275 275 275 274 273 273 272 272 271 271 271 271 271 271 271 271 271 271
284 284 283 283 282 282 282 282 282 282 282 281 280 280 279 278 278 277 277 276 276 276 275 274 274 275 274 273 273 272 272 271 271 271 271 271 271 271 272 272 272 272
284 283 283 282 282 282 281 281 281 281 280 280 279 278 278 277 277 276 276 276 276 275 274 274 274 275 274 273 273 272 272 271 271 272 271 272 272 272 272 272 272 272
283 283 282 282 281 281 280 280 280 280 279 279 278 277 277 277 276 276 276 276 275 274 274 274 274 274 274 273 273 274 273 273 272 272 272 272 273 273 273 273 273 273
283 282 281 281 280 280 279 279 279 279 278 277 277 276 276 276 276 276 276 275 275 273 273 274 274 274 273 273 274 274 274 274 273 273 273 273 273 273 273 273 273 273
282 281 281 280 279 279 278 278 278 277 277 276 276 276 276 276 275 275 275 274 273 273 273 274 274 273 273 273 274 274 274 274 274 274 274 274 274 273 273 273 273 273
281 280 279 278 278 277 277 277 276 276 275 275 275 275 275 275 275 274 274 273 272 272 273 274 274 273 273 273 273 274 274 274 274 274 274 274 273 273 273 273 273 273
280 279 278 277 276 276 276 275 275 274 274 274 275 275 275 274 274 274 274 273 272 272 273 273 273 272 272 272 273 274 274 274 275 274 273 273 273 273 273 273 273 273
279 278 276 276 275 275 275 274 274 274 274 274 274 274 274 274 274 274 274 273 272 272 272 273 273 272 271 272 273 273 274 274 274 273 273 273 273 273 273 273 273 274
278 277 275 275 275 275 274 274 274 274 274 274 274 273 273 273 273 273 273 273 272 271 272 272 272 271 271 271 272 273 274 274 273 273 273 273 273 273 273 274 274 274
277 277 276 275 275 275 274 274 273 273 274 274 274 273 273 273 273 273 272 272 271 271 271 271 271 271 270 271 272 273 274 274 273 273 273 273 274 274 274 274 274 275
277 276 276 275 274 274 274 274 273 273 273 273 273 273 273 273 272 272 271 271 270 270 270 269 270 270 270 271 272 273 273 274 273 273 274 274 274 274 274 275 275 275
276 276 276 275 274 274 274 274 274 273 272 272 272 272 272 272 272 272 271 270 270 269 269 269 269 270 270 271 272 273 273 274 273 274 274 274 274 275 275 275 274 274

ECMWFNIL_925_thetae_003.txt.gz
Theta_e
292 292 292 292 292 291 291 290 290 290 290 289 289 289 289 288 288 287 287 287 286 286 286 286 285 285 286 285 285 284 283 282 282 282 282 282 282 282 282 283 283 283
292 292 292 292 291 291 291 291 290 290 290 290 289 289 289 288 288 287 287 286 286 286 285 285 285 285 285 285 284 283 283 282 282 282 282 282 282 282 282 282 282 282
292 292 292 291 291 291 290 290 290 290 290 289 289 289 288 288 288 287 286 286 286 285 285 285 284 284 284 284 283 283 283 282 282 282 282 282 282 282 282 282 282 282
292 292 292 291 291 291 290 290 290 290 289 289 289 288 288 288 287 286 286 286 286 285 285 284 284 284 284 284 283 283 282 282 282 281 281 281 281 281 282 282 282 282
292 292 291 291 291 290 290 290 290 289 289 289 288 288 288 287 287 286 286 286 285 285 284 284 283 283 283 283 282 282 281 281 281 281 281 281 281 281 281 281 281 281
291 291 291 291 291 290 290 290 289 289 289 288 288 288 287 287 287 286 286 286 285 285 284 283 283 283 283 282 282 281 281 281 280 280 280 280 280 280 280 280 280 280
291 291 291 291 290 290 290 289 289 289 288 288 288 287 287 287 286 286 286 286 285 285 284 283 283 283 282 282 281 281 281 280 280 280 279 280 280 280 280 279 279 279
291 290 290 290 290 289 289 289 288 288 288 288 287 287 287 286 286 286 286 285 285 285 284 283 283 282 282 281 281 280 280 279 279 279 279 279 279 279 279 278 278 278
290 290 290 289 289 289 288 288 288 287 287 287 287 286 286 286 286 286 285 285 285 284 283 282 282 282 281 281 280 280 279 279 279 278 278 278 278 278 277 277 276 276
290 290 289 289 289 288 288 287 287 286 286 286 286 286 285 285 285 285 285 285 284 283 282 282 281 281 280 280 280 280 279 279 278 278 278 277 277 277 276 276 275 275
290 289 289 288 288 288 287 287 286 286 286 285 285 285 285 284 284 284 284 284 284 283 282 281 281 280 280 280 280 280 279 279 278 278 277 277 276 276 275 275 274 274
289 289 288 288 288 287 287 286 286 285 285 285 285 284 284 283 283 283 284 284 283 282 282 281 281 280 280 280 280 280 279 279 278 277 277 276 275 275 274 274 273 273
289 288 288 288 287 287 286 285 285 285 285 284 284 284 283 283 283 283 283 283 283 282 281 281 280 280 280 280 280 279 279 278 277 277 276 275 274 274 273 273 273 272
288 288 287 287 286 286 285 285 284 284 284 284 283 283 283 283 283 283 282 282 281 281 280 280 279 279 280 280 280 279 279 278 277 276 275 274 273 273 273 272 272 272
288 287 287 286 285 285 284 284 284 283 283 283 283 282 282 282 283 282 282 281 280 279 279 279 279 280 280 280 280 279 278 277 276 275 274 273 273 272 272 272 272 272
287 287 286 285 285 284 284 283 283 283 282 282 282 282 282 282 282 281 281 280 279 279 279 279 279 280 280 280 279 279 278 277 275 274 273 273 272 272 272 272 272 272
287 286 285 285 284 284 283 283 282 282 282 282 281 281 281 281 281 280 280 280 279 279 279 279 280 280 280 279 278 278 277 276 274 273 273 273 272 272 272 273 273 273
286 285 284 284 283 283 283 282 282 281 281 281 281 281 280 280 280 280 279 279 279 279 279 280 280 280 279 278 277 277 276 275 274 274 273 273 273 273 273 273 273 273
285 285 284 283 283 283 282 281 281 281 281 280 280 280 279 279 279 278 278 278 279 279 279 279 279 279 278 277 277 276 276 276 275 274 274 274 274 274 274 274 274 273
285 284 283 283 282 282 281 281 280 280 280 279 279 278 278 277 277 277 278 278 279 279 279 279 279 278 277 276 276 276 277 277 276 275 275 274 274 274 274 274 273 273
284 284 283 282 281 281 280 279 279 279 278 278 278 277 277 277 277 277 277 278 278 279 279 279 278 277 276 276 276 276 277 277 276 275 275 275 274 274 274 273 273 273
284 283 282 281 280 279 279 278 278 278 277 277 277 276 276 276 276 276 277 278 278 278 278 278 277 276 275 275 275 276 276 276 276 275 275 274 274 273 273 273 273 273
283 282 281 280 279 278 278 278 277 277 276 276 276 275 274 275 276 277 277 278 278 278 278 278 276 275 274 274 275 276 276 276 275 275 274 274 273 273 273 273 273 273
283 282 281 279 278 278 277 277 276 276 275 275 275 274 274 275 276 276 276 277 278 278 278 277 275 274 273 274 274 275 275 275 274 274 274 273 273 273 273 273 274 274
282 281 280 279 278 277 277 276 276 275 275 274 274 274 274 274 275 275 275 276 277 277 276 275 274 273 273 273 273 274 275 274 274 274 273 273 273 273 274 274 274 274
282 281 279 278 277 277 276 276 275 275 274 273 273 273 273 273 273 273 273 274 275 275 274 273 273 272 272 272 273 274 275 275 274 274 273 273 273 274 274 274 275 274

ECMWFNIL_925_thetae_006.txt.gz
Theta_e
294 294 294 293 293 293 292 292 291 291 291 290 290 290 290 289 289 288 288 287 287 287 287 287 287 287 286 286 286 285 285 285 285 285 285 285 284 284 284 283 283 283
294 294 294 293 293 292 292 292 292 291 291 291 290 290 290 289 289 288 288 287 287 287 287 287 287 286 286 286 286 285 285 284 284 284 285 285 284 284 284 283 283 283
294 294 293 293 293 292 292 292 291 291 291 291 290 290 289 289 289 288 288 287 287 287 286 286 286 286 286 286 286 285 285 284 284 284 284 284 284 284 284 283 283 283
294 294 294 293 293 292 292 291 291 291 291 290 290 290 289 289 288 288 288 287 287 286 286 286 286 286 286 286 285 285 284 284 284 284 284 284 284 284 283 283 283 282
294 294 293 293 292 292 292 291 291 291 290 290 290 289 289 289 288 288 287 287 286 286 286 286 286 286 286 285 285 284 284 283 283 284 284 284 284 284 283 283 282 282
294 293 293 293 292 292 291 291 291 290 290 290 289 289 289 288 288 288 287 287 286 286 285 285 285 285 285 285 284 284 283 283 283 284 284 284 283 283 283 282 282 282
293 293 293 292 292 291 291 291 291 290 290 290 289 289 289 288 288 288 287 287 286 285 285 285 285 285 284 284 283 283 283 283 283 283 283 283 283 283 282 282 281 281
293 293 292 292 291 291 291 291 290 290 290 289 289 289 288 288 288 288 287 287 286 285 285 285 285 284 284 283 283 283 283 282 283 283 283 283 283 282 282 281 281 280
292 292 292 291 291 291 291 290 290 290 289 289 289 288 288 288 288 288 287 286 286 285 285 284 284 283 283 283 283 283 283 283 282 283 283 283 283 282 282 281 281 280
292 292 291 291 291 291 290 290 290 290 289 289 288 288 288 287 287 287 286 286 286 285 285 284 283 283 282 282 282 282 283 283 282 282 282 283 283 282 282 281 281 280
292 291 291 291 291 290 290 290 289 289 289 289 288 287 287 287 286 286 286 285 285 285 284 284 283 282 282 282 282 282 282 282 282 282 282 283 283 282 282 281 280 280
291 291 291 291 290 290 290 289 289 289 288 288 287 287 286 286 286 285 285 285 285 285 284 284 283 282 282 282 282 281 282 282 282 282 282 282 282 282 281 281 280 279
291 291 291 290 290 290 289 289 288 288 288 287 287 286 286 286 285 285 285 285 285 284 284 283 283 282 281 282 282 281 281 281 281 282 282 282 282 281 280 279 279 278
291 291 291 290 290 289 289 288 288 287 287 287 286 286 286 285 285 285 285 284 284 284 284 283 282 281 281 281 281 281 281 281 281 282 281 281 281 280 279 278 277 276
291 290 290 289 289 288 288 288 287 287 286 286 286 285 285 285 285 285 284 284 283 283 283 282 281 281 282 281 281 281 281 281 281 281 281 281 280 279 278 277 276 275
291 290 289 289 288 288 288 287 286 286 286 285 285 285 284 284 284 284 284 283 283 282 281 281 281 281 281 281 281 281 281 281 281 281 280 280 279 278 276 276 275 275
290 290 289 288 288 288 287 286 286 285 285 285 284 284 284 283 283 283 283 283 282 281 281 281 281 281 281 280 280 281 281 281 281 280 279 279 278 277 276 275 274 274
290 289 288 288 287 287 286 286 285 285 284 284 283 283 283 282 282 282 282 281 281 281 281 281 281 281 280 280 280 280 281 281 281 280 279 278 277 276 275 275 274 274
289 289 288 287 287 286 285 285 284 284 284 283 283 282 282 282 281 281 281 280 280 280 280 280 281 280 279 279 280 280 280 280 280 279 278 277 276 276 275 274 274 274
289 288 287 286 286 285 285 284 284 283 283 282 282 282 281 281 281 280 280 280 280 280 279 279 280 279 279 280 280 279 279 279 278 278 277 276 276 275 275 274 274 274
288 287 286 286 285 285 284 283 283 283 282 282 281 281 281 281 280 280 280 279 279 279 279 279 279 279 279 280 280 279 278 277 277 277 276 276 275 275 274 274 274 274
287 287 286 285 285 284 283 283 282 282 282 281 281 280 280 280 279 279 279 278 278 278 278 278 278 279 279 280 281 280 279 277 277 276 276 275 275 275 274 274 274 274
287 286 285 285 284 283 283 282 282 281 281 280 280 279 279 279 278 278 278 278 277 277 277 277 278 279 280 280 280 281 280 278 277 277 276 275 275 275 275 274 274 274
287 286 285 284 283 283 282 282 281 281 280 280 280 279 278 278 278 277 277 277 277 277 277 277 278 279 280 280 280 280 280 278 277 277 276 275 275 275 274 274 273 273
286 286 285 284 283 282 282 281 281 280 279 279 279 278 278 277 277 276 276 276 276 276 276 276 277 278 280 280 280 280 279 278 277 276 276 275 275 274 274 273 273 273
286 285 284 284 283 282 281 281 280 279 279 278 278 278 277 276 276 276 275 275 275 275 275 275 277 278 279 279 279 280 279 277 276 276 275 275 274 274 273 273 273 274

ECMWFNIL_925_thetae_009.txt.gz
Theta_e
296 296 296 295 295 295 295 294 294 294 294 293 293 293 292 292 292 292 291 290 289 288 288 287 287 287 287 287 287 287 287 287 287 287 287 286 286 285 285 285 284 284
296 296 295 295 295 295 295 294 294 294 294 294 293 293 292 292 292 292 291 290 289 288 288 287 287 287 287 287 287 287 286 286 286 286 286 286 285 285 285 284 284 284
296 295 295 295 295 295 294 294 294 294 294 293 293 292 292 292 291 291 291 291 289 288 287 287 287 286 287 286 286 286 286 286 286 286 286 285 285 284 284 284 284 284
295 295 295 295 295 295 294 294 293 293 293 293 293 292 292 291 291 291 291 290 289 288 287 287 286 286 286 286 286 286 286 286 286 285 285 284 284 284 284 284 283 283
295 295 295 295 295 294 294 293 293 293 293 292 292 292 291 291 291 290 290 290 289 288 287 287 286 286 286 286 285 285 285 285 285 285 285 284 283 283 283 283 283 283
295 295 295 294 294 294 293 293 293 293 292 292 292 291 291 291 290 290 290 289 289 288 287 287 286 286 286 285 285 285 285 285 284 284 284 284 283 283 283 283 283 283
295 295 294 294 293 293 293 293 293 292 292 292 291 291 291 290 290 290 290 289 289 288 287 287 286 286 285 285 285 285 284 284 284 284 283 283 283 283 283 283 283 283
295 295 294 294 293 293 293 292 292 292 292 291 291 291 291 290 290 289 289 289 288 288 287 286 286 286 285 285 285 284 284 284 284 283 283 283 282 283 283 283 283 283
294 294 293 293 293 293 292 292 292 292 291 291 290 290 290 290 290 289 289 289 288 287 287 286 286 286 285 285 285 284 284 284 284 283 283 283 283 283 283 283 282 282
293 293 293 293 292 292 292 292 292 291 291 291 290 290 290 289 289 289 289 288 288 287 287 286 286 285 285 284 284 284 284 284 284 283 283 283 283 283 283 283 283 282
293 293 292 292 292 292 292 292 291 291 290 290 290 289 289 289 289 288 288 288 288 287 287 286 286 285 284 284 284 284 284 284 283 283 283 283 283 283 283 283 283 283
292 292 292 292 292 292 292 291 291 290 290 289 289 289 289 288 288 288 288 288 288 287 287 286 286 285 284 284 284 284 283 283 283 283 283 283 282 282 283 283 283 283
292 292 292 292 292 292 291 291 290 290 289 289 289 288 288 288 287 287 287 287 287 287 286 286 285 284 284 284 283 283 283 282 282 282 282 282 282 282 282 282 282 283
292 292 292 292 292 291 291 290 290 289 289 289 288 288 288 287 287 287 286 286 286 286 286 285 285 284 283 283 283 283 282 282 282 282 282 281 281 281 282 282 282 282
292 292 292 291 291 290 290 290 290 289 289 288 288 288 287 287 287 287 286 286 285 285 285 284 284 284 283 283 283 282 281 281 281 281 281 281 281 281 281 281 281 281
292 292 291 291 290 290 290 290 289 289 288 288 288 287 287 287 286 286 286 285 285 284 284 284 283 283 283 283 283 282 282 281 281 281 281 281 281 280 280 280 280 280
292 292 291 290 290 290 290 289 289 288 288 287 287 286 286 286 286 285 285 285 285 284 284 283 283 283 283 283 282 282 282 281 281 281 281 280 280 280 280 279 279 279
292 291 291 290 290 290 289 289 288 287 287 286 286 286 285 285 285 285 285 284 284 284 283 283 283 282 282 282 282 282 282 281 281 281 280 280 279 280 279 279 278 278
292 291 290 290 290 289 289 288 287 287 286 286 285 285 285 284 284 284 284 284 283 283 283 282 282 282 282 282 282 281 281 281 281 280 280 280 279 279 279 278 278 277
291 291 290 290 289 288 288 287 287 286 286 285 285 284 284 284 284 283 283 283 283 282 282 282 281 281 281 281 281 281 281 280 280 280 279 279 279 279 278 278 277 277
291 290 290 289 288 288 287 287 286 286 285 285 284 284 284 283 283 283 283 282 282 282 281 281 281 281 281 281 282 282 281 280 279 279 279 278 278 278 277 277 277 277
290 290 289 288 288 287 286 286 285 285 285 284 284 283 283 283 282 282 282 282 281 281 281 280 280 280 281 282 282 282 281 279 278 278 278 277 277 276 276 276 276 276
290 289 289 288 287 286 286 285 285 285 284 284 283 283 282 282 282 282 282 281 281 280 280 280 279 280 281 282 283 283 281 279 277 277 276 276 276 276 276 276 275 275
289 289 288 288 287 286 286 285 284 284 284 283 283 282 282 282 282 281 281 281 280 280 280 280 279 280 281 283 283 283 281 279 277 276 275 275 275 275 275 275 275 275
289 289 288 287 286 286 285 285 284 284 283 283 283 282 282 281 281 281 280 280 280 280 280 279 279 279 281 283 283 283 281 279 277 276 275 275 275 275 275 275 275 275
288 288 288 287 286 286 285 284 284 283 283 282 282 282 281 281 280 280 279 279 279 279 279 279 278 279 280 282 284 283 281 279 277 276 275 275 275 275 275 275 274 275

ECMWFNIL_925_thetae_012.txt.gz
Theta_e
297 297 297 296 296 296 296 296 296 295 295 295 295 295 295 295 294 294 293 293 292 291 291 290 289 289 289 289 288 288 288 288 288 288 288 288 288 288 288 287 287 287
297 296 296 296 296 295 295 295 296 295 295 295 296 295 295 294 293 293 293 292 292 291 290 290 289 289 289 288 288 288 288 287 287 288 287 287 287 287 287 287 286 286
296 296 296 296 296 295 295 295 295 295 295 296 295 295 294 294 293 293 292 292 291 291 290 289 289 289 289 288 288 288 287 287 287 287 287 287 287 286 286 286 286 285
296 296 296 296 296 295 295 294 294 295 295 294 294 294 294 294 293 292 292 292 291 291 290 289 289 289 288 288 288 287 287 287 287 287 287 286 286 286 285 285 285 285
296 296 296 296 296 295 295 294 294 294 294 294 294 294 294 293 293 292 292 291 291 290 290 289 289 288 288 288 287 287 287 286 286 286 286 286 286 285 285 285 285 284
295 295 295 295 295 295 295 294 294 294 293 293 294 294 293 293 293 292 292 292 291 291 290 289 288 288 288 288 287 287 287 286 286 286 286 286 285 285 284 284 284 284
295 295 295 295 294 294 294 294 294 294 293 293 293 293 293 293 292 292 292 292 291 291 290 289 289 288 287 287 287 286 286 286 286 286 286 285 285 284 284 284 284 284
294 294 294 294 294 294 294 294 294 294 293 293 293 292 292 292 292 292 292 291 291 291 290 289 289 288 288 287 286 286 286 286 286 286 285 285 284 284 284 284 283 283
293 294 294 294 294 294 294 294 294 293 293 293 292 292 292 292 292 292 291 291 291 290 290 289 289 288 287 287 286 286 286 285 285 285 285 285 284 284 284 284 283 283
293 293 293 293 293 293 294 294 294 293 293 292 292 292 291 291 291 291 291 290 290 290 289 289 289 288 287 286 286 286 286 285 285 285 285 285 285 284 284 284 283 283
293 293 293 293 293 293 294 294 293 293 292 292 291 291 291 291 291 290 290 290 290 289 289 289 288 288 287 286 286 286 285 285 285 285 285 285 285 285 284 284 284 283
293 293 293 293 293 293 294 293 292 292 292 291 291 291 290 290 290 290 290 289 290 289 289 289 288 287 287 286 286 285 285 285 285 285 285 284 284 284 284 284 284 284
292 292 293 293 293 293 293 292 292 292 291 291 291 290 290 290 289 289 289 289 289 289 289 288 288 287 286 286 286 285 284 284 284 284 284 284 284 284 284 284 283 283
293 293 293 293 293 292 292 292 292 292 291 291 290 290 290 290 289 289 289 288 288 288 288 288 287 287 286 286 285 285 284 284 284 284 283 283 283 283 283 283 283 283
293 293 293 293 293 292 292 291 291 291 291 290 290 290 289 289 289 289 288 288 288 287 287 287 287 287 286 286 285 284 284 283 283 283 283 282 282 282 282 282 282 283
292 292 292 292 292 292 291 291 291 291 290 290 290 289 289 288 288 288 287 287 287 287 286 286 286 286 286 286 286 285 284 283 282 282 282 282 282 281 281 281 281 282
292 292 292 292 292 291 291 291 290 290 290 290 289 288 288 288 287 287 287 287 287 286 286 286 286 286 286 285 285 285 284 283 282 282 282 281 281 281 280 280 281 281
291 290 291 291 291 291 291 290 290 290 289 289 288 288 287 287 287 287 286 286 286 286 286 285 285 285 285 285 285 285 284 284 283 282 281 281 281 280 280 280 280 280
290 290 289 290 290 290 290 290 289 289 289 288 288 288 287 287 286 286 286 286 285 285 285 285 285 285 284 284 284 284 284 283 282 282 281 281 280 280 280 280 280 280
289 289 289 289 289 290 289 289 289 289 288 288 288 287 286 286 286 285 285 285 285 285 285 285 284 284 284 284 284 284 284 283 282 281 281 280 280 280 280 280 280 280
288 289 288 288 289 289 289 288 288 288 288 287 287 286 286 286 285 285 285 285 285 285 284 284 284 284 284 284 284 284 284 283 282 281 280 280 279 279 280 280 280 280
287 287 288 288 288 288 288 288 288 288 287 287 286 286 286 285 285 285 285 284 284 284 284 284 284 283 283 283 284 284 284 283 281 280 279 279 278 278 278 279 279 279
286 287 287 288 288 287 287 288 287 287 287 286 286 285 285 285 285 284 284 284 284 284 284 283 283 283 283 283 284 284 284 283 281 279 279 278 278 277 277 277 277 278
287 286 287 287 287 287 287 287 287 287 286 286 285 285 285 284 284 284 284 284 284 283 283 283 283 282 282 283 284 285 285 283 280 279 278 277 277 276 276 276 276 277
287 286 286 286 286 287 287 286 286 286 286 286 285 285 284 284 284 283 283 283 283 283 283 283 282 282 282 284 285 285 285 283 280 278 277 276 276 275 275 275 276 276
286 286 285 285 286 286 286 286 286 286 285 285 285 284 284 283 283 283 283 282 282 282 282 282 282 281 282 284 285 286 285 282 280 278 277 276 275 275 275 275 275 275

ECMWFNIL_925_thetae_015.txt.gz
Theta_e
297 296 297 296 296 296 296 296 296 296 295 295 295 295 295 295 295 294 294 295 294 294 294 294 294 294 293 293 292 291 290 290 290 290 289 289 289 289 290 291 291 292
296 296 296 296 296 296 296 295 295 295 296 296 296 295 295 294 294 294 294 294 293 294 294 293 293 293 292 292 291 290 290 289 289 289 289 289 289 289 290 290 291 291
296 296 296 296 296 296 295 295 295 295 295 295 295 295 295 294 294 293 293 293 293 293 293 292 292 292 291 291 291 290 290 289 289 289 289 289 289 289 289 289 290 290
295 295 295 295 295 295 295 295 295 295 295 295 295 295 295 295 294 293 293 293 292 292 292 291 291 291 291 290 290 290 289 289 289 289 289 289 288 289 289 289 289 289
295 295 295 295 295 295 295 295 295 295 295 295 295 295 295 294 294 294 293 293 292 292 291 291 291 291 290 290 290 289 289 288 288 288 288 288 288 288 288 288 288 288
294 294 295 295 295 295 294 294 295 295 295 295 295 295 294 294 294 294 294 293 293 292 291 291 291 290 290 289 289 289 289 288 288 287 288 288 288 288 287 288 288 287
293 293 293 294 294 294 294 294 294 294 294 294 294 294 294 294 294 293 293 293 293 292 292 291 291 290 290 289 289 288 288 287 287 287 287 287 287 287 287 287 287 287
292 292 292 293 293 293 294 294 294 294 294 294 294 293 294 293 293 293 293 293 293 292 292 291 290 290 290 289 288 288 287 287 286 286 286 286 286 287 287 287 286 286
292 292 292 292 292 292 293 293 293 294 294 293 293 293 293 293 293 293 292 292 292 292 291 291 290 290 289 289 288 288 287 287 286 286 286 286 286 286 286 286 286 285
292 292 292 291 291 291 292 292 292 293 293 293 293 292 292 292 292 292 292 292 292 291 291 290 290 290 289 288 288 287 287 287 286 286 286 286 286 286 286 286 286 285
292 292 291 291 291 291 291 291 291 292 292 292 292 292 292 292 291 291 291 291 291 291 291 290 290 290 289 289 288 287 287 286 286 286 286 286 286 286 286 286 286 286
291 291 291 291 291 291 291 291 291 291 291 291 291 291 291 291 291 291 290 291 291 291 290 290 290 289 289 289 288 288 287 286 286 286 286 286 286 286 286 286 286 286
289 290 290 291 291 291 290 290 290 291 290 290 291 291 291 291 290 290 290 290 290 290 290 290 289 289 289 288 288 287 287 286 286 285 285 285 285 285 285 285 285 285
289 289 289 290 291 291 291 290 290 290 290 290 290 290 290 290 290 290 290 290 289 289 289 289 289 289 288 288 287 287 286 286 286 285 285 284 284 284 284 284 284 284
288 288 288 288 289 290 291 291 290 290 290 290 290 290 290 290 290 289 289 289 289 288 288 288 288 288 288 288 287 287 286 286 285 285 284 284 284 284 284 284 284 284
287 287 287 287 288 289 290 291 291 290 290 290 290 289 289 289 289 289 289 288 288 288 288 288 288 288 288 288 287 287 286 286 285 285 284 284 284 283 283 283 283 283
286 286 286 287 287 288 289 290 291 291 290 289 289 289 289 289 289 288 288 288 288 288 288 287 287 288 287 287 287 287 287 286 285 285 284 284 283 283 282 282 282 282
286 285 285 286 286 287 287 289 290 290 290 289 289 289 289 288 288 288 288 288 288 287 287 287 287 287 287 287 287 286 286 286 285 285 284 283 283 283 282 282 282 281
285 284 285 285 286 286 286 287 288 289 289 289 288 288 288 288 288 288 288 287 287 287 287 287 287 287 287 287 286 286 286 286 285 285 284 284 283 283 282 282 281 281
283 283 284 285 286 285 285 286 286 287 288 289 288 288 287 287 287 287 287 287 287 287 287 287 287 287 287 286 286 286 286 286 285 285 284 284 283 283 282 282 281 281
281 281 283 285 285 285 285 285 285 286 287 288 288 287 287 287 287 287 287 287 287 286 286 286 286 287 286 286 286 286 286 286 285 285 284 284 283 282 282 282 281 281
279 280 283 285 285 284 284 284 284 285 286 287 287 287 287 287 286 286 286 286 286 286 286 286 286 286 286 286 286 285 286 286 286 285 284 283 283 282 282 281 281 281
277 279 282 285 284 283 283 283 283 283 284 285 286 286 286 286 286 286 286 286 286 286 285 285 285 286 285 285 285 286 286 286 286 285 284 283 282 282 281 281 281 280
276 279 282 283 282 281 281 281 282 283 283 284 285 285 286 286 286 285 285 285 285 285 285 285 285 285 285 285 285 286 286 287 286 285 284 282 282 281 281 280 280 280
275 278 281 281 280 279 279 279 280 281 282 282 283 284 285 285 285 285 285 285 285 285 285 284 284 284 284 284 285 286 287 287 286 285 283 282 281 280 279 279 279 279
274 276 278 279 278 277 277 277 279 280 281 282 282 283 284 284 285 284 284 284 284 284 284 284 284 284 284 284 284 286 287 287 286 285 283 281 280 279 278 278 278 278

ECMWFNIL_925_thetae_018.txt.gz
Theta_e
296 297 297 297 298 298 298 298 298 298 298 298 297 297 297 296 296 295 294 294 294 294 294 294 294 294 294 294 293 293 292 291 291 291 290 290 290 291 291 292 292 293
295 295 296 296 297 297 297 297 297 297 297 297 297 297 296 296 296 296 295 294 294 293 293 293 293 294 293 293 293 293 292 291 291 291 290 290 290 290 290 291 291 292
294 294 294 295 295 296 296 296 296 296 296 296 296 296 296 296 296 295 295 294 294 293 293 293 293 293 293 293 293 292 292 291 291 291 290 290 290 290 290 290 291 291
293 293 293 293 294 294 295 295 295 295 295 295 295 295 295 295 295 295 295 294 294 293 293 293 293 293 293 293 293 292 292 292 292 292 290 290 289 289 290 290 290 290
292 292 292 292 292 293 293 294 294 294 294 294 294 295 294 295 295 294 294 294 294 293 293 293 293 293 292 292 292 292 292 291 291 291 290 289 289 289 289 289 289 289
291 291 292 292 292 292 292 292 293 293 293 293 293 294 294 294 294 294 294 294 293 293 293 293 292 292 292 292 292 291 291 291 291 291 290 289 289 289 289 289 289 289
291 291 291 291 292 291 291 291 292 292 292 292 293 293 293 293 293 293 293 293 293 293 293 293 292 292 292 291 291 291 291 291 291 290 290 289 289 289 288 288 288 288
290 290 290 290 291 291 291 291 291 291 291 292 292 292 292 292 292 293 293 293 293 293 293 292 292 292 292 291 291 291 290 290 290 290 290 289 289 288 288 288 288 288
288 289 289 289 289 290 291 291 291 291 291 291 291 291 291 292 292 292 292 292 292 292 292 292 292 292 291 291 291 291 290 290 290 290 290 289 289 288 288 288 287 287
287 287 288 288 288 289 289 290 290 291 291 290 290 291 291 291 291 292 292 291 292 292 292 292 292 291 291 291 291 291 290 290 290 290 289 289 289 288 288 288 287 287
286 286 286 287 287 288 288 288 289 289 290 290 290 290 290 290 290 291 291 291 291 291 291 291 291 291 291 291 291 291 290 290 290 289 289 289 289 288 288 288 288 288
286 285 285 285 286 286 287 288 288 288 289 289 290 290 290 289 290 290 290 290 291 291 291 291 291 291 291 291 291 291 290 290 289 289 289 289 288 288 288 288 288 288
287 286 285 284 285 285 286 287 287 287 287 288 289 289 290 289 289 289 290 290 290 290 290 290 290 290 291 291 290 290 289 289 289 288 288 288 288 288 287 288 288 288
287 286 285 284 284 284 285 285 285 286 286 286 287 288 289 289 289 289 289 289 289 290 290 290 290 290 290 290 290 289 289 288 288 288 288 288 287 287 287 287 287 287
286 286 285 284 283 283 284 284 284 285 285 285 285 286 288 288 289 289 289 289 289 289 289 289 289 289 289 289 289 289 289 288 288 288 288 287 287 287 286 287 286 286
286 285 284 283 283 283 284 284 284 284 284 284 284 285 286 287 288 289 289 289 289 289 288 288 289 289 289 289 289 289 288 288 288 288 287 287 287 286 286 286 286 286
285 284 283 282 281 282 283 284 284 284 283 284 284 284 284 285 286 288 288 288 288 288 288 288 288 288 288 288 289 289 288 288 288 287 287 287 286 286 286 286 286 285
283 282 281 281 280 281 282 283 284 283 283 283 283 283 284 284 285 286 287 288 288 288 288 288 288 288 288 288 288 288 288 288 288 287 287 287 287 286 286 286 285 285
282 281 280 280 279 279 282 284 284 283 282 282 282 282 283 284 284 283 285 286 287 288 288 288 288 288 288 288 288 288 288 288 288 288 287 287 287 286 286 286 285 285
281 280 280 279 278 278 281 284 284 283 282 282 282 282 282 283 283 283 283 285 286 287 287 287 287 287 287 287 287 287 287 288 288 288 287 287 287 287 286 286 285 285
280 279 279 279 278 277 280 283 283 282 282 281 282 282 283 283 283 283 283 284 284 286 287 287 287 288 287 287 287 287 287 287 288 288 287 287 287 287 286 286 285 285
279 279 278 278 277 277 278 281 281 281 280 280 280 281 283 283 283 282 283 283 283 284 285 286 287 287 287 286 286 287 287 287 288 288 287 287 287 287 286 286 285 285
278 278 277 276 276 275 276 278 280 279 279 278 279 280 281 282 282 281 281 282 283 283 284 285 286 287 287 286 286 286 287 288 288 288 288 287 287 287 286 286 285 285
277 277 276 275 275 274 275 277 278 278 277 277 277 278 279 281 281 281 281 282 283 283 284 284 285 286 286 286 286 286 287 287 288 288 288 288 287 287 286 286 285 285
276 276 275 274 273 273 274 276 276 276 275 275 275 276 277 278 280 281 282 282 282 283 283 283 284 284 285 286 285 285 286 287 287 288 288 288 288 287 286 286 285 284
275 274 274 273 273 273 274 275 275 274 273 273 274 274 275 276 278 280 281 281 281 282 282 283 283 283 284 285 285 285 285 286 287 287 288 288 288 287 286 285 284 284

ECMWFNIL_925_thetae_021.txt.gz
Theta_e
296 296 297 297 297 298 298 298 299 299 299 299 299 299 300 300 299 299 298 298 297 297 297 297 297 297 297 297 296 296 296 296 295 295 295 294 294 294 295 295 296 297
295 295 295 296 296 296 297 297 297 297 298 298 298 298 298 299 299 299 298 297 297 297 297 297 297 297 297 296 296 296 296 295 295 295 295 294 294 294 294 294 295 296
293 294 294 295 295 295 295 296 296 296 297 297 297 297 297 298 298 298 298 297 297 296 296 296 296 296 296 296 296 296 296 295 295 295 295 294 294 294 294 294 294 294
293 293 293 293 294 294 294 294 295 295 295 296 296 296 296 296 297 297 297 296 296 296 296 296 296 296 296 296 296 295 295 295 295 294 294 294 294 294 293 293 293 293
292 292 292 292 292 293 293 293 293 294 294 294 294 295 295 295 295 295 295 295 295 295 295 295 295 295 295 295 295 295 295 295 294 294 294 294 294 293 293 293 293 293
289 289 290 290 291 291 291 292 292 292 292 293 293 293 294 294 294 294 294 295 295 295 294 294 295 295 295 295 295 294 294 294 294 294 294 294 293 293 293 293 293 292
286 287 287 288 288 289 289 289 290 290 291 291 292 292 292 293 293 293 294 294 294 294 294 294 294 294 294 294 294 294 294 294 294 293 293 293 293 293 293 293 293 292
286 286 285 286 286 287 287 288 288 289 289 290 290 291 292 292 292 292 292 293 293 293 294 293 293 293 294 294 293 293 293 293 293 293 293 293 293 293 293 292 292 292
288 287 286 285 285 285 286 286 287 287 288 288 288 289 290 290 291 291 291 292 292 292 293 293 293 293 293 293 293 293 293 293 293 293 293 292 292 292 292 292 292 292
288 287 287 286 286 285 285 285 285 286 286 286 287 287 287 288 289 290 291 291 291 291 291 292 292 292 293 292 292 292 292 292 292 292 292 292 292 292 292 292 292 292
288 287 287 287 286 286 286 285 285 285 285 285 285 286 286 287 288 288 290 290 290 291 291 291 291 292 292 292 292 292 292 292 292 292 292 292 292 292 292 292 292 291
287 287 287 286 286 285 285 285 285 285 284 284 284 284 285 286 287 287 288 289 289 290 290 290 290 291 291 291 291 291 291 291 291 291 291 291 291 291 291 291 291 291
287 287 287 286 285 285 284 284 285 284 284 284 284 284 284 285 285 286 286 287 288 288 289 290 290 290 290 290 290 290 290 290 290 290 290 290 290 290 290 290 290 291
286 286 286 285 284 284 284 283 283 283 283 284 284 284 284 283 284 284 285 285 286 287 288 289 289 289 290 290 290 290 290 290 290 290 290 289 290 290 290 290 290 290
285 286 286 285 284 283 283 283 282 282 283 284 283 283 283 283 283 284 284 284 285 285 286 287 288 289 289 289 289 289 289 289 289 289 289 289 289 289 289 289 289 289
285 285 285 284 283 283 282 282 282 282 283 284 284 284 283 283 283 284 284 284 284 284 285 285 286 287 288 288 289 289 289 289 289 289 289 289 289 289 289 289 289 289
284 284 284 283 283 282 282 282 281 282 283 284 284 284 284 283 283 283 283 284 284 284 284 285 285 286 286 287 288 288 289 289 289 289 289 288 289 288 288 288 288 288
283 283 283 283 283 282 282 281 281 281 282 283 284 284 283 283 283 283 283 283 284 284 284 285 285 285 285 285 286 287 288 288 288 288 288 288 288 288 288 288 288 288
282 283 283 282 282 282 282 281 281 281 281 282 282 282 282 282 283 283 283 283 284 284 284 284 284 284 284 284 285 285 287 288 288 288 288 288 288 288 288 288 288 288
282 282 282 282 282 281 281 280 280 280 280 280 281 281 281 281 282 282 282 283 284 284 284 284 284 284 284 284 284 284 285 287 288 288 288 288 288 288 288 288 288 288
282 282 282 282 281 280 280 279 279 279 279 279 279 280 280 280 280 280 281 282 282 282 282 283 283 283 283 283 283 283 284 286 287 288 288 288 288 288 288 288 288 288
281 281 281 281 281 280 279 279 278 278 277 277 278 279 280 279 279 279 279 280 280 281 281 282 282 283 283 283 283 283 284 285 286 287 288 288 288 288 288 288 288 288
281 280 280 280 280 279 278 278 277 276 276 276 276 278 278 278 278 278 278 278 279 279 280 281 281 282 283 284 283 283 283 285 285 286 287 287 288 288 288 288 288 288
280 279 279 279 279 278 277 276 276 275 275 275 275 276 277 277 276 276 276 276 277 277 278 279 280 281 282 283 283 283 283 284 285 286 286 287 287 288 288 288 288 288
278 278 278 278 277 277 276 275 275 274 274 274 274 275 276 275 275 275 275 275 275 276 276 277 278 280 281 282 283 283 283 284 285 285 286 286 287 287 288 288 288 288
276 276 275 276 276 275 274 274 274 273 273 273 274 274 274 274 273 273 273 273 274 274 274 275 276 277 278 280 282 282 283 283 284 285 286 286 286 287 287 288 288 288

ECMWFNIL_925_thetae_024.txt.gz
Theta_e
292 293 293 294 294 294 294 295 295 295 296 296 297 297 297 297 297 298 298 299 299 298 298 297 297 297 297 298 298 298 298 298 298 297 297 297 297 296 296 295 296 296
291 291 292 292 292 293 293 293 293 294 294 294 295 295 296 296 296 296 297 298 298 298 297 297 297 297 297 297 297 297 297 297 297 297 297 296 296 296 296 295 295 296
289 290 290 290 290 291 291 291 292 292 292 292 293 293 294 294 294 295 295 296 296 296 296 296 296 296 296 296 296 297 297 297 297 297 296 296 296 296 296 295 295 295
287 287 288 288 288 288 289 289 289 290 290 291 291 291 292 292 293 293 294 294 295 295 295 295 295 295 295 295 296 296 296 296 296 296 296 296 296 295 295 295 295 295
286 286 286 286 286 286 286 287 287 287 288 288 289 289 290 291 291 292 292 292 293 293 294 294 294 294 294 294 295 295 295 295 296 296 296 295 295 295 295 295 295 295
286 286 285 285 285 285 285 285 285 285 285 286 286 287 287 288 289 290 291 291 292 292 292 293 293 294 294 294 294 294 295 295 295 295 295 295 295 295 295 295 294 294
287 286 286 286 286 285 285 285 285 285 285 285 285 285 285 286 286 287 288 289 290 291 291 291 292 292 293 293 294 294 294 294 294 294 294 294 294 294 294 294 294 294
287 287 286 286 286 286 285 285 285 285 285 285 285 285 285 285 285 285 285 286 287 288 289 290 291 291 291 292 293 293 293 293 293 294 294 294 294 294 294 294 293 293
287 287 287 286 286 285 285 285 285 285 285 285 284 285 285 285 285 285 284 285 285 285 286 287 289 290 290 291 291 292 292 293 293 293 293 293 293 293 293 293 293 293
286 286 286 286 286 285 285 284 284 285 285 285 284 285 284 284 285 285 285 285 284 285 285 285 286 287 289 290 290 291 291 292 292 292 292 292 292 292 292 292 292 292
286 285 285 285 285 285 285 284 284 284 284 284 284 285 285 284 284 284 284 284 284 285 285 284 284 285 286 287 288 289 290 290 291 291 291 291 291 291 292 292 292 292
285 285 285 285 285 285 285 284 284 284 283 283 283 284 284 284 284 284 284 284 284 284 284 284 284 284 284 285 286 287 288 289 290 290 290 290 290 290 291 291 291 291
285 285 284 284 284 285 284 284 284 284 283 283 283 283 283 284 284 284 284 284 284 284 284 284 284 284 284 284 285 285 286 287 288 289 289 290 290 290 290 290 290 290
285 285 285 285 284 284 284 284 284 283 283 283 283 283 283 283 283 284 284 284 284 284 284 284 284 284 284 284 284 284 285 285 286 288 288 289 289 289 289 289 289 289
285 285 285 285 285 284 284 284 283 283 283 282 282 282 282 282 282 283 283 283 283 283 283 284 284 284 284 284 284 284 285 285 285 286 287 288 288 289 289 289 289 289
284 284 284 284 284 283 283 283 283 283 282 282 282 282 281 281 281 282 282 282 282 282 283 283 283 283 284 284 284 284 284 284 285 285 286 286 287 288 288 289 289 289
284 283 283 283 283 282 282 282 282 282 282 282 282 281 281 281 281 281 281 281 282 282 282 282 283 283 283 284 284 284 284 284 284 285 285 286 287 287 288 288 288 289
283 283 283 282 282 282 282 282 281 282 281 281 281 281 281 280 280 280 280 280 281 281 281 282 282 282 282 283 284 284 284 285 285 285 285 285 286 287 287 287 288 288
283 283 282 282 282 281 281 281 281 281 281 281 281 280 280 279 279 279 279 279 280 280 280 281 281 281 282 283 284 284 284 285 285 285 285 285 285 286 286 287 287 287
282 282 282 281 281 281 281 281 281 280 280 280 280 280 279 278 278 278 278 278 278 279 279 280 280 280 281 282 283 283 284 284 285 285 285 285 285 285 286 286 287 287
281 281 281 280 280 280 280 280 280 280 280 280 279 279 278 278 277 277 277 277 277 277 278 278 279 280 280 280 282 283 283 284 284 284 285 285 285 285 286 286 286 286
280 279 279 279 279 279 279 279 278 278 278 278 278 277 277 277 276 276 276 276 276 276 277 277 278 278 279 279 280 281 283 283 283 284 284 285 285 285 285 285 285 286
278 277 277 277 277 277 277 276 276 276 276 276 276 276 276 275 275 275 275 275 275 275 276 276 276 277 277 278 278 279 281 281 282 283 284 284 284 284 284 284 285 285
275 275 275 275 275 275 274 274 274 274 274 274 274 274 274 274 274 274 274 274 274 274 275 275 276 276 276 277 277 278 279 279 280 281 282 283 284 283 283 284 284 284
273 272 272 272 272 272 272 271 271 271 271 271 272 272 272 272 272 273 273 273 273 273 274 274 274 275 275 275 276 276 277 278 278 279 280 281 282 283 283 283 284 284
270 270 269 269 269 269 268 268 268 268 269 269 269 269 270 270 270 271 271 271 272 272 272 272 273 273 273 273 274 275 275 276 276 277 278 279 281 282 282 283 283 284

ECMWFNIL_925_thetae_027.txt.gz
Theta_e
288 288 288 288 289 289 289 289 289 290 290 290 291 291 292 293 293 294 294 295 295 296 296 296 296 296 296 296 296 296 297 297 297 297 298 298 298 297 297 297 297 296
286 286 286 286 286 286 286 286 286 286 287 287 287 288 289 289 290 292 293 293 294 294 294 294 294 294 295 295 295 295 295 296 296 296 297 297 297 297 297 297 297 296
285 285 285 285 285 285 285 285 285 285 285 285 285 285 286 286 287 287 289 290 291 292 293 293 293 293 294 294 294 294 294 295 295 295 296 296 296 296 297 296 296 296
286 285 285 285 285 285 285 285 285 285 285 285 285 285 285 285 285 285 285 286 287 288 289 290 291 292 293 293 293 293 293 294 294 294 294 295 295 295 296 296 296 295
286 286 286 285 285 285 285 285 285 285 285 285 285 285 285 285 285 285 285 285 285 285 286 286 287 289 291 292 292 292 292 293 293 293 293 294 294 294 295 295 295 295
287 286 286 286 285 285 285 285 285 285 285 285 285 285 286 285 285 285 285 285 285 285 285 285 285 285 287 289 290 291 292 292 292 292 293 293 293 293 294 294 294 294
286 286 286 286 285 285 285 285 285 285 285 285 285 285 285 285 285 285 285 285 285 285 285 285 285 285 285 285 286 288 289 291 291 291 291 292 292 292 293 293 293 293
286 286 285 285 285 285 285 285 285 284 284 284 284 284 284 284 284 285 285 285 285 285 285 285 285 285 285 285 285 285 286 287 289 290 291 291 291 291 292 292 292 292
285 285 285 285 285 285 285 285 285 284 284 284 284 284 284 284 284 284 284 284 284 285 285 285 285 285 285 285 285 285 284 285 286 287 289 290 290 291 291 291 291 291
285 285 285 285 285 285 285 284 284 284 284 284 284 284 283 284 283 283 283 284 284 284 284 284 284 285 285 285 285 285 285 284 285 285 286 287 288 289 290 290 290 290
285 285 285 285 284 284 284 284 284 283 283 283 283 283 283 283 283 283 283 283 283 283 283 284 284 284 284 284 285 285 285 285 285 285 285 285 285 286 288 288 289 290
286 285 285 285 284 284 284 283 283 283 283 283 282 282 282 282 283 282 282 282 282 282 282 283 283 283 283 283 284 284 284 285 285 285 285 284 284 285 285 286 288 289
286 285 285 285 284 284 284 283 283 283 282 282 282 282 282 282 282 282 282 282 281 282 282 282 282 282 282 283 283 283 284 284 284 284 284 284 285 285 284 285 285 286
285 285 284 284 284 284 283 283 283 282 282 282 282 281 281 281 281 281 281 281 281 281 281 281 281 281 281 282 282 283 283 283 283 283 284 284 284 284 284 284 284 285
285 284 284 284 284 283 283 283 282 282 282 281 281 281 281 281 281 280 280 280 280 280 280 280 280 280 280 280 281 282 282 283 283 283 283 284 284 284 284 284 284 284
284 284 284 283 283 283 282 282 282 281 281 281 280 280 280 280 280 280 280 279 279 279 279 279 279 279 279 279 280 281 282 282 283 283 284 284 284 284 284 284 284 284
284 283 283 282 282 282 282 282 281 281 281 280 280 280 280 280 280 279 279 279 279 278 278 278 278 278 278 279 280 281 282 282 283 283 283 284 284 284 284 284 284 284
283 282 282 281 281 281 281 281 280 280 280 279 279 279 279 279 279 279 278 278 278 278 278 277 277 277 277 278 279 280 281 282 282 283 283 283 284 284 284 284 284 284
281 281 280 280 280 280 280 279 279 278 278 278 278 278 278 278 278 278 277 277 277 277 277 277 277 276 277 278 278 279 280 281 281 281 282 283 283 283 283 283 283 283
279 279 279 279 278 278 277 277 276 276 276 276 276 276 276 276 276 276 276 276 276 276 276 276 275 276 276 277 278 278 279 280 280 280 281 281 282 282 282 283 283 283
278 277 277 276 276 275 275 274 274 274 274 274 274 274 274 274 274 274 274 274 274 274 274 274 274 274 275 276 276 277 278 278 278 279 279 280 280 281 281 282 282 283
276 275 274 274 273 273 272 272 272 272 272 272 272 271 271 271 271 272 272 272 272 272 272 272 272 273 274 274 275 275 276 277 277 277 278 278 278 279 279 280 280 281
273 272 271 271 271 270 270 270 270 269 269 269 269 269 269 269 269 269 269 270 270 270 270 270 270 271 272 272 273 274 275 275 276 276 276 277 277 277 277 278 278 279
270 270 269 269 268 268 268 267 267 267 267 267 266 267 267 267 267 267 267 267 267 267 268 268 268 269 269 270 271 271 272 273 273 274 274 275 275 275 275 275 276 276
268 268 267 267 266 266 266 266 265 265 265 265 265 265 265 265 265 265 265 265 265 266 266 266 266 266 266 267 268 269 270 271 272 272 273 273 274 274 274 274 274 275
266 266 266 265 265 265 264 264 264 264 264 264 264 264 264 264 264 264 264 264 264 264 264 264 265 265 265 266 267 268 269 270 270 271 272 272 273 273 273 273 274 274

ECMWFNIL_925_thetae_030.txt.gz
Theta_e
285 285 285 285 285 285 285 285 285 285 285 285 285 285 285 285 285 285 285 285 286 286 286 287 288 289 290 291 293 293 294 294 294 294 294 294 295 295 295 295 295 295
285 285 285 285 285 285 285 285 285 285 285 285 285 285 285 285 285 285 285 285 285 285 285 285 285 286 286 287 288 289 291 292 293 293 293 294 294 294 294 294 294 295
286 286 286 286 286 286 286 286 286 285 285 285 285 286 285 285 286 286 285 285 285 285 285 285 285 285 285 285 286 286 287 288 289 291 292 293 293 293 293 293 293 294
286 286 286 286 286 286 286 286 286 286 286 286 286 286 286 285 285 285 285 285 285 285 285 285 285 285 285 285 285 285 285 285 286 287 289 290 291 292 292 293 292 293
286 286 286 286 286 286 286 286 286 286 286 286 286 286 286 286 286 285 285 285 285 285 285 285 285 285 285 285 285 285 285 285 285 285 286 286 287 289 290 291 292 292
286 286 286 286 286 286 285 285 285 285 285 285 285 285 285 285 285 285 285 285 285 285 285 285 285 285 285 285 285 285 285 285 285 285 285 285 285 286 286 288 289 290
285 285 285 285 285 285 285 285 285 284 284 284 284 284 284 284 284 284 284 284 284 284 285 285 285 285 284 284 284 284 284 285 285 285 285 285 285 285 285 285 286 287
285 285 285 285 285 285 285 285 284 284 284 283 283 283 283 283 283 283 283 283 283 283 283 284 284 284 284 284 284 284 284 284 284 284 284 285 285 285 285 285 285 285
285 285 285 285 285 284 284 284 284 283 283 283 283 282 282 282 282 282 281 281 281 282 282 282 282 283 283 283 283 283 284 284 284 283 283 284 284 284 284 285 285 285
286 285 285 285 284 284 284 284 283 283 282 282 282 282 282 281 281 281 281 281 281 281 281 281 281 281 281 282 282 282 282 282 283 283 283 283 283 283 284 284 284 284
286 285 285 284 284 284 283 283 283 282 282 282 281 281 281 281 280 280 280 280 280 280 280 280 280 280 280 280 280 280 280 281 281 281 281 282 282 282 283 283 283 284
286 285 285 285 284 284 283 283 282 282 282 281 281 281 281 280 280 280 280 279 279 279 279 279 279 279 279 279 279 279 279 279 280 280 280 280 281 281 281 282 282 283
286 286 285 285 284 284 283 282 282 281 281 280 280 280 280 280 279 279 279 279 278 279 279 279 279 279 279 279 279 279 279 279 279 279 279 280 280 281 281 281 281 282
286 285 285 285 284 284 283 282 281 281 280 280 280 279 279 279 278 278 278 278 278 278 278 278 278 278 278 278 278 278 278 278 279 279 279 280 280 281 281 281 282 282
286 285 285 284 284 283 282 281 280 280 280 279 279 278 278 278 277 277 277 277 277 277 277 277 277 277 277 277 278 278 278 279 279 279 280 280 280 281 281 281 281 282
285 285 284 284 283 282 281 280 280 279 279 278 278 278 277 277 277 276 276 276 276 277 276 276 277 276 276 277 278 278 279 279 279 279 279 279 280 280 280 280 281 281
284 284 283 282 281 280 280 279 279 278 277 277 277 277 277 277 276 276 276 275 275 275 275 275 275 275 276 277 277 278 278 278 278 278 278 279 279 279 279 280 280 280
283 283 281 280 279 279 278 278 277 277 276 276 275 275 275 275 275 274 274 274 274 274 274 274 274 274 275 275 276 276 277 277 277 277 278 278 278 278 278 279 279 279
281 280 279 278 278 277 277 276 275 275 275 274 274 273 273 273 273 273 272 272 272 272 272 272 272 272 273 273 274 275 275 276 276 276 276 276 276 276 277 277 277 278
278 278 277 276 276 275 275 275 274 274 273 272 272 272 272 271 271 270 270 270 269 269 269 269 269 270 271 271 272 272 273 274 274 274 274 275 275 275 275 276 276 276
276 276 275 275 274 274 273 273 272 272 271 271 271 271 270 269 269 268 268 268 267 267 267 267 267 268 269 269 270 271 271 272 272 272 272 272 273 273 274 274 274 275
274 274 273 273 273 272 272 271 270 270 270 270 269 269 268 267 267 267 266 266 266 266 266 265 265 266 267 268 269 269 270 270 270 270 270 270 270 271 271 272 273 273
272 272 272 272 271 270 270 269 268 268 268 268 267 267 266 266 265 265 265 265 265 265 264 264 264 265 266 267 268 268 269 269 269 269 269 269 269 270 270 270 271 272
271 271 271 270 269 268 268 268 267 267 267 266 265 265 265 264 264 264 264 264 264 264 264 264 264 264 265 266 266 267 268 268 268 269 269 269 269 269 270 270 270 271
271 270 270 269 268 267 267 267 267 267 266 265 264 264 264 263 263 263 263 263 263 263 263 263 263 263 264 265 266 267 268 268 268 269 269 269 269 269 269 269 269 270
270 269 268 267 266 266 266 266 266 266 265 264 263 263 263 263 263 263 263 263 263 263 263 263 263 263 263 264 265 267 268 268 269 269 269 269 269 269 269 269 269 270

ECMWFNIL_925_thetae_033.txt.gz
Theta_e
286 286 286 286 286 286 286 286 286 286 286 286 286 285 285 285 285 286 286 285 286 285 285 285 285 285 285 285 285 285 285 285 285 285 285 286 287 287 289 290 291 292
286 286 286 286 286 286 286 286 286 286 285 285 285 285 285 285 285 285 285 285 285 285 285 285 285 285 285 285 285 285 285 285 285 285 285 285 285 285 285 286 287 288
286 286 286 286 286 286 286 286 286 285 285 285 285 285 284 284 284 284 285 285 285 285 285 285 285 285 285 285 285 285 285 285 285 285 285 285 285 285 285 285 285 285
286 286 286 286 286 286 286 286 286 285 285 285 284 284 284 284 284 284 284 284 284 284 284 284 284 284 284 284 284 284 284 284 284 284 284 284 284 284 284 284 285 285
286 287 286 286 286 286 286 286 285 285 285 285 284 284 284 284 284 284 284 284 284 284 284 283 283 283 283 283 283 283 283 284 284 283 283 284 284 284 283 283 284 284
287 287 287 287 287 286 286 286 285 285 285 284 284 284 284 284 284 284 283 283 284 283 283 284 283 283 283 282 282 282 282 282 282 282 282 282 283 283 283 282 282 283
287 287 287 287 286 286 286 286 285 285 284 284 283 283 283 283 283 283 282 283 283 283 283 283 283 283 282 282 282 282 281 281 281 280 281 281 281 282 282 282 281 281
286 286 286 286 286 286 285 285 285 284 283 283 283 282 282 282 282 282 281 281 281 282 282 282 282 282 281 281 281 281 281 281 280 280 280 280 280 280 281 281 281 281
286 285 285 285 285 285 285 285 284 283 283 282 282 282 281 281 281 280 280 280 280 280 280 280 280 280 280 280 279 279 279 280 280 279 279 280 280 280 280 280 280 280
285 285 285 285 285 285 285 284 284 283 282 282 281 281 281 280 280 279 279 279 278 278 278 278 278 278 278 278 278 278 278 278 278 279 278 278 279 279 279 279 279 279
286 285 285 285 285 285 284 284 283 282 281 281 280 280 280 279 279 278 278 278 277 277 277 277 277 277 277 277 277 277 277 277 277 278 278 278 278 278 279 279 279 279
286 285 285 285 285 284 284 284 283 282 281 280 280 279 279 279 278 278 277 277 277 277 277 277 277 277 277 277 277 277 277 277 277 277 277 278 278 278 278 279 279 279
285 285 285 284 284 284 284 283 282 281 280 280 279 279 278 278 278 277 277 277 277 277 276 276 276 276 276 276 276 276 276 276 277 277 278 278 278 278 278 278 279 279
285 285 285 284 284 284 284 283 282 280 280 279 279 278 278 278 277 277 277 277 276 276 276 275 275 275 275 275 275 275 276 277 277 277 277 277 278 278 278 278 278 278
285 285 285 285 285 284 284 283 281 280 280 279 279 278 278 278 277 277 277 277 277 276 275 275 274 274 273 274 275 275 276 276 276 276 276 276 276 277 277 277 277 277
285 285 285 284 284 284 283 282 281 280 280 280 279 279 278 278 278 277 276 276 276 276 275 274 273 273 272 273 274 275 275 275 275 275 275 275 275 275 276 276 276 276
284 284 284 284 284 283 282 281 280 280 280 279 279 279 279 278 278 277 276 275 275 274 274 273 272 271 271 271 272 273 273 274 274 273 274 274 274 274 274 274 275 275
284 284 284 283 283 282 280 280 279 279 279 279 278 278 278 277 277 276 275 275 274 273 272 271 270 270 269 270 271 272 272 273 273 272 272 272 272 273 273 273 273 274
284 283 282 282 281 280 279 279 278 278 278 277 277 276 276 276 275 274 274 273 272 272 271 270 269 269 269 269 270 271 271 272 272 272 272 272 272 272 271 272 272 272
282 281 280 280 279 278 278 278 277 277 276 276 276 275 275 274 274 273 272 271 270 269 269 269 269 269 268 268 269 270 270 271 271 271 271 271 270 270 270 270 270 270
281 280 279 279 278 277 277 277 276 276 275 275 274 274 273 273 272 271 270 269 268 268 268 268 268 268 268 267 268 269 270 270 270 270 269 269 269 269 269 269 269 269
280 279 278 278 277 276 276 275 275 274 274 274 273 273 272 271 271 270 269 268 268 267 266 267 268 267 266 266 267 268 269 269 269 269 268 268 268 268 268 268 269 269
278 277 277 276 276 275 275 274 274 273 273 272 271 271 270 270 269 268 267 267 267 266 266 266 266 265 265 266 267 268 268 268 268 268 268 268 268 268 268 268 269 269
276 276 275 275 274 274 273 273 272 272 271 270 269 269 269 268 267 267 266 266 266 266 265 264 264 264 264 265 266 267 268 268 268 268 268 268 268 268 268 268 268 269
274 274 274 273 273 273 272 272 271 270 270 268 267 267 267 266 266 265 265 265 265 265 264 263 264 264 264 264 265 266 268 268 268 268 268 268 268 268 268 268 268 268
273 273 273 272 272 272 271 270 270 269 268 267 266 266 265 265 264 264 264 264 265 264 264 263 263 263 264 264 265 267 268 268 268 268 268 268 268 269 269 269 269 269

ECMWFNIL_925_thetae_036.txt.gz
Theta_e
286 286 286 286 286 286 285 285 285 285 285 284 284 284 284 284 284 284 284 284 284 284 284 284 284 284 284 284 284 284 284 284 284 284 284 284 284 284 284 284 284 284
286 286 286 286 286 286 285 285 285 285 284 284 284 284 284 284 284 284 284 284 284 284 284 284 284 284 284 284 284 284 284 284 284 284 284 283 283 283 283 283 283 283
286 286 286 286 286 286 285 285 285 285 284 284 284 284 284 284 284 284 284 284 284 283 283 283 283 283 283 284 284 283 284 284 283 283 283 283 283 283 283 283 283 283
287 287 287 286 286 286 286 286 286 285 285 285 285 284 284 284 284 284 284 284 284 283 283 283 283 283 283 283 283 283 283 283 283 283 283 283 283 283 283 283 283 283
287 287 287 287 287 287 287 287 286 286 286 285 285 285 284 284 284 284 284 284 283 283 283 283 283 282 282 282 282 282 282 282 282 283 283 283 283 283 283 282 283 283
287 287 287 287 287 287 287 287 287 287 286 286 285 285 284 284 284 284 283 283 283 283 283 283 283 283 282 282 282 282 282 282 282 282 282 282 282 282 282 281 281 281
287 287 287 287 287 287 287 287 287 287 286 286 285 285 284 284 283 283 283 282 282 282 282 282 282 282 282 282 282 282 282 282 282 282 282 282 282 281 281 280 280 280
287 287 287 287 287 287 287 286 286 286 285 284 284 283 283 282 282 281 281 281 281 281 281 281 280 280 280 280 280 280 280 280 280 280 280 280 280 280 280 279 279 279
287 287 287 286 286 286 286 285 285 284 284 283 282 282 281 281 280 280 280 280 280 280 280 280 279 279 279 279 279 278 278 278 278 278 278 278 278 278 278 278 278 279
286 286 286 285 285 285 285 285 284 284 283 283 282 282 281 281 280 280 279 279 279 279 279 279 279 278 278 278 278 277 277 277 277 277 277 277 277 277 277 277 278 278
286 285 285 285 285 285 285 285 284 284 284 283 283 282 282 281 281 280 280 279 279 279 279 278 278 278 277 277 277 276 276 276 276 276 276 276 276 277 277 277 277 277
285 285 285 285 285 284 285 285 285 284 284 284 283 283 282 281 280 280 280 279 279 279 278 278 277 277 276 276 276 276 276 275 275 275 275 276 276 276 276 276 276 276
285 285 285 284 284 284 284 285 285 284 284 283 282 282 281 280 280 279 279 279 279 278 278 277 277 276 276 276 275 275 275 275 275 275 275 275 275 275 275 275 275 275
284 284 284 284 284 284 284 285 284 284 283 282 281 280 280 279 279 279 279 278 278 278 277 277 276 276 275 275 275 275 274 274 274 274 274 274 274 274 273 274 274 274
284 284 284 284 284 284 284 284 284 283 282 281 280 280 279 279 278 278 278 278 278 277 277 276 276 275 275 274 274 274 273 273 273 273 273 273 273 273 273 273 273 273
284 284 284 284 284 284 284 283 282 282 281 280 279 279 278 278 278 278 278 277 277 277 276 276 275 274 274 273 273 272 273 272 272 272 272 272 272 272 272 272 272 272
284 284 284 284 284 283 283 282 282 281 280 279 279 278 278 278 278 278 277 277 277 276 276 275 275 274 274 273 272 272 272 272 272 272 272 272 272 272 271 272 272 271
284 284 283 283 283 283 283 282 281 280 279 279 279 278 278 278 277 277 277 276 276 276 275 274 274 274 273 273 272 271 272 273 272 272 271 271 271 271 271 271 271 270
284 284 283 283 283 282 281 281 280 279 279 278 278 278 278 277 277 277 276 276 275 275 274 274 273 273 273 272 271 270 271 272 272 271 271 271 271 271 270 270 269 269
283 283 283 282 282 281 280 279 279 278 278 278 277 277 277 277 276 276 275 275 274 274 273 273 273 273 272 272 271 270 270 271 271 271 270 270 269 269 269 269 268 268
283 282 282 281 281 280 279 279 278 278 277 277 277 276 276 276 275 275 274 274 273 273 273 273 272 272 272 271 270 269 270 270 270 269 269 269 268 268 268 268 268 268
282 282 281 280 280 279 279 278 277 277 276 276 276 275 275 275 274 274 273 273 272 272 272 272 272 272 272 271 270 269 269 269 268 268 268 268 268 268 268 268 268 268
281 281 280 280 279 278 278 277 277 276 276 275 275 275 275 274 274 273 272 272 272 271 271 272 272 272 271 270 269 268 268 268 268 268 268 268 268 268 268 268 268 268
281 280 280 279 278 277 277 276 275 275 275 274 274 274 274 273 273 272 272 271 271 271 271 271 272 272 270 270 269 268 268 268 268 268 268 268 268 268 268 268 268 268
280 279 279 278 277 276 275 275 275 274 274 273 273 273 273 272 272 271 271 271 271 271 270 271 272 272 270 269 268 268 268 268 268 268 269 269 269 269 269 269 269 269
279 278 277 276 276 275 274 274 274 273 273 273 273 272 272 272 271 270 270 270 270 270 270 270 271 271 270 269 268 267 268 269 269 269 269 269 269 269 269 269 270 270

ECMWFNIL_925_thetae_039.txt.gz
Theta_e
287 286 286 286 286 286 285 285 285 285 285 284 284 284 284 284 284 284 284 284 284 284 284 284 284 284 284 284 284 284 284 284 284 284 284 284 284 284 283 283 283 283
286 286 286 286 286 285 285 285 285 285 285 285 284 284 284 284 284 284 284 284 284 284 284 284 284 284 284 284 283 284 284 283 283 283 283 283 283 283 283 283 283 283
286 286 286 286 286 286 286 286 286 286 286 285 285 285 285 285 285 285 284 284 284 284 284 284 283 283 283 283 283 283 283 283 283 283 283 283 283 283 283 283 283 283
287 287 287 287 287 287 287 287 287 286 286 286 286 286 286 286 286 286 285 285 285 284 284 283 283 283 283 283 283 283 283 283 283 283 283 283 283 283 283 282 282 282
287 287 287 287 287 287 287 287 287 287 287 287 287 287 287 287 287 287 286 286 285 284 284 283 283 283 283 283 283 283 283 283 283 283 283 283 283 282 282 282 281 281
287 287 287 287 287 287 288 288 287 288 288 287 287 287 287 287 286 286 286 286 285 284 283 283 283 282 282 282 282 282 282 282 282 282 282 282 282 282 282 281 281 281
287 287 288 288 288 288 288 288 288 288 287 287 286 286 286 286 285 285 284 284 283 283 282 282 282 282 282 282 281 281 281 281 281 282 281 281 281 281 281 281 280 280
287 288 288 288 288 288 288 288 287 287 286 286 285 285 285 284 284 283 283 282 282 281 281 281 281 281 281 281 281 281 281 281 280 280 280 280 280 280 280 279 279 279
288 288 288 288 288 288 287 287 286 286 285 285 284 284 284 283 283 282 282 281 281 280 280 280 280 280 280 280 280 279 279 279 279 279 279 279 278 278 278 277 277 277
288 288 288 288 287 287 286 286 285 285 285 284 284 284 283 283 282 282 281 281 280 280 280 280 279 279 279 279 279 278 278 278 278 278 278 277 277 277 276 276 276 276
288 287 287 287 286 286 285 285 285 284 284 284 284 283 283 283 282 281 281 280 280 280 279 279 279 279 279 279 278 278 278 277 277 277 277 276 276 276 275 275 275 274
287 287 286 286 286 285 285 284 284 284 284 284 283 283 283 282 281 281 280 280 279 279 279 279 279 278 278 278 278 277 277 277 277 276 276 276 275 275 275 274 274 274
286 286 286 286 285 285 285 284 284 284 283 283 282 282 282 281 281 280 280 279 279 279 279 278 278 278 278 278 277 277 277 276 276 276 275 275 275 274 274 274 273 273
286 286 285 285 285 285 284 284 283 283 283 282 282 281 281 281 280 280 279 279 279 279 278 278 278 278 277 277 277 276 276 275 275 275 275 274 274 274 273 273 273 273
285 285 285 285 285 284 284 283 283 282 282 281 281 281 281 280 280 279 279 279 278 278 278 278 278 277 277 276 276 275 275 274 274 274 274 273 273 273 272 272 272 272
285 285 285 285 284 284 283 283 282 281 281 281 281 280 280 280 279 279 279 278 278 278 278 277 277 277 276 275 275 274 274 273 273 273 273 273 272 272 272 272 272 272
285 284 284 284 284 284 283 282 281 281 280 280 280 280 280 279 279 278 278 278 278 277 277 277 276 276 275 275 274 274 273 272 273 273 272 272 272 271 271 271 271 271
284 284 284 284 284 283 282 281 280 280 280 280 280 280 279 279 278 278 278 277 277 277 276 276 276 275 274 274 274 273 271 271 273 273 272 272 271 271 271 271 270 270
284 284 284 284 283 282 281 280 280 279 280 280 280 279 278 278 278 277 277 277 276 276 276 275 275 275 274 273 273 272 271 271 272 272 272 271 271 270 270 270 269 269
284 283 283 283 283 282 280 280 279 279 280 280 279 278 278 278 277 277 277 276 276 275 275 275 274 274 273 273 273 272 272 272 272 271 270 269 269 269 269 269 269 269
284 283 283 283 282 281 280 279 279 279 279 279 278 278 278 277 277 277 276 276 276 275 275 274 274 274 273 273 273 272 271 271 271 270 269 268 268 268 268 268 269 269
283 283 282 282 281 280 279 279 279 279 279 279 278 278 277 277 276 276 276 276 275 275 274 274 274 273 273 273 272 271 270 270 269 269 268 268 268 268 268 268 269 269
283 282 282 281 280 280 279 279 279 279 279 278 278 277 277 276 276 276 275 275 275 274 274 274 273 273 273 272 272 271 270 269 269 269 268 268 268 268 269 269 269 269
282 282 281 281 280 280 279 279 279 279 278 277 277 277 276 276 276 275 275 275 274 274 273 273 273 273 273 272 272 271 270 269 269 269 269 269 269 269 269 269 270 270
282 281 281 281 280 279 279 278 278 278 277 277 276 276 276 275 275 275 275 274 274 273 273 273 273 273 272 272 272 270 269 269 270 269 269 269 269 269 270 270 271 271
281 281 281 280 279 279 278 278 278 277 277 276 276 275 275 275 275 274 274 274 273 273 273 272 272 272 272 272 271 269 268 269 270 270 270 270 270 270 271 271 272 272

ECMWFNIL_925_thetae_042.txt.gz
Theta_e
287 287 286 286 286 286 286 286 286 285 285 285 285 285 285 285 285 285 285 284 284 284 284 284 284 284 284 284 284 284 283 283 283 283 283 283 283 283 283 283 283 283
287 287 286 286 286 286 286 286 286 286 286 286 286 286 286 286 286 286 285 285 285 284 284 284 284 283 283 283 283 283 283 283 283 283 283 283 283 283 283 283 283 283
287 287 287 286 286 286 287 287 287 287 287 287 287 287 287 287 286 286 286 286 285 285 285 284 284 283 283 283 283 283 282 282 282 282 282 282 282 282 282 282 282 282
287 287 287 287 287 287 287 287 287 287 287 287 287 287 287 287 287 287 287 286 286 286 285 284 284 283 283 283 283 282 282 282 282 282 282 282 282 282 282 282 282 281
287 287 287 287 287 287 288 288 288 288 288 288 287 287 287 287 287 287 286 286 286 285 285 284 283 283 283 283 282 282 282 282 282 282 282 282 282 282 282 282 281 281
287 287 287 287 288 288 288 288 288 288 288 288 288 287 287 287 286 286 286 285 285 284 283 283 283 282 282 282 282 282 282 282 282 282 282 281 281 281 281 281 281 280
287 287 287 288 288 288 288 288 288 288 288 288 287 287 287 286 286 285 285 284 283 283 282 282 281 281 281 281 281 281 281 281 281 281 281 281 281 281 280 280 280 279
287 287 287 288 288 288 288 288 288 288 288 287 287 286 286 285 285 285 284 283 283 282 281 281 281 280 280 280 280 280 280 280 280 280 280 280 280 279 279 279 278 278
287 287 287 287 287 288 288 288 288 287 287 287 286 286 285 285 284 284 283 283 282 281 281 280 280 280 280 280 280 280 279 279 279 279 279 278 278 278 278 277 277 277
287 287 287 287 287 288 288 287 287 287 286 286 285 285 284 284 284 283 283 282 282 281 280 280 280 280 279 279 279 279 279 279 278 278 278 278 277 277 277 277 277 277
286 287 287 287 288 288 287 287 287 286 286 285 284 284 284 284 283 283 282 282 281 280 280 280 279 279 279 279 279 278 278 278 278 278 277 277 276 276 276 276 276 276
286 287 287 287 288 288 287 286 286 285 285 284 284 284 283 283 283 282 282 281 280 280 279 279 279 278 278 278 278 278 278 278 278 277 277 276 276 276 275 275 275 275
287 287 287 287 288 287 286 286 285 285 285 284 284 283 283 282 282 282 281 280 280 279 279 278 278 278 278 278 278 278 278 277 276 276 276 275 275 275 275 275 275 275
287 287 287 287 287 286 286 285 285 285 284 284 283 283 282 282 282 281 281 280 279 279 278 278 278 278 278 277 277 277 277 276 276 275 275 275 275 275 275 275 274 274
287 287 287 287 286 286 285 285 285 284 284 283 283 282 282 282 281 281 280 279 279 278 278 278 278 277 277 277 277 277 276 276 275 274 274 274 275 275 274 274 274 274
286 287 287 286 285 285 285 285 285 284 284 283 282 282 281 281 281 280 279 279 278 278 277 277 277 277 277 277 276 276 276 275 274 273 274 274 274 274 274 274 274 274
286 286 286 285 285 285 285 285 284 284 284 283 282 282 281 281 280 280 279 278 278 277 277 277 277 277 277 276 276 276 275 274 273 273 274 274 274 274 274 273 273 273
286 285 285 285 285 284 284 284 284 284 284 283 282 281 281 280 280 279 278 278 277 277 277 277 276 276 276 276 276 275 275 274 273 273 274 274 274 274 273 273 272 272
285 285 284 285 284 284 284 284 284 284 284 283 282 281 280 279 279 278 278 277 277 277 276 276 276 276 276 276 275 275 274 273 272 273 274 273 273 272 272 272 271 271
285 284 284 284 284 284 283 284 284 284 284 283 282 280 279 279 278 278 277 277 277 276 276 276 276 276 275 275 275 274 273 272 271 272 273 272 271 271 271 271 271 271
284 284 284 284 283 283 283 283 284 284 283 282 281 279 279 278 278 277 277 277 276 276 276 276 275 275 275 275 275 274 273 271 271 271 271 271 270 270 270 270 270 270
284 284 284 283 283 283 283 283 284 283 283 281 280 279 278 278 278 277 277 276 276 276 275 275 275 275 274 274 274 273 273 272 271 271 270 270 270 270 270 270 270 270
285 284 284 283 283 283 283 283 283 283 282 280 279 278 278 278 277 277 277 276 276 275 275 275 275 274 274 274 274 273 272 271 270 270 271 271 270 270 270 270 270 270
286 285 284 283 283 283 283 283 283 282 281 280 279 278 278 278 277 277 277 276 276 275 275 275 275 274 274 274 274 273 272 270 270 270 271 271 271 271 271 271 271 271
286 285 284 284 283 283 283 283 282 281 280 279 279 278 277 277 277 276 276 276 275 275 274 274 274 274 274 274 274 273 272 270 270 271 271 271 271 271 271 271 272 272
285 285 284 284 283 283 283 282 281 280 280 279 278 277 277 277 277 276 276 275 275 275 274 274 274 274 274 274 274 273 272 270 270 271 271 271 271 271 272 272 272 273

ECMWFNIL_925_thetae_045.txt.gz
Theta_e
289 288 288 288 288 287 287 287 287 286 286 286 286 287 287 287 287 287 287 286 286 286 285 285 284 284 284 283 284 283 283 283 283 283 283 283 283 283 283 283 283 283
288 288 287 287 287 287 286 286 287 287 287 287 287 287 287 287 287 287 287 287 286 286 286 285 285 284 283 283 283 283 282 283 282 282 283 283 282 282 282 282 282 282
288 287 287 287 287 286 287 287 287 287 288 288 287 287 287 287 287 287 287 287 286 286 286 285 285 284 283 283 283 282 282 282 282 282 282 282 282 282 282 282 282 282
287 287 287 287 287 287 287 288 288 288 288 288 288 287 287 287 287 287 286 286 286 286 286 285 284 284 283 283 282 282 282 282 282 282 282 282 282 282 282 282 281 281
287 287 287 287 287 287 288 288 288 288 288 288 287 287 287 287 286 286 286 286 286 285 285 284 283 283 282 282 282 282 282 281 281 282 282 282 282 281 281 281 281 281
287 287 287 287 288 288 288 288 288 288 288 288 287 287 287 286 286 286 286 286 285 285 284 283 282 282 282 282 282 281 281 281 281 281 282 281 281 281 281 281 280 280
287 287 287 288 288 288 288 288 288 287 287 287 287 287 287 287 286 286 286 286 285 284 284 283 282 282 281 281 281 281 281 281 281 281 281 281 281 280 280 280 279 279
287 287 288 288 288 288 288 288 287 287 287 287 287 287 287 286 286 286 286 285 285 284 283 282 281 281 281 281 281 281 281 281 281 281 281 280 280 279 279 279 279 279
287 288 288 288 288 288 287 287 287 287 287 287 287 287 287 286 286 286 285 285 284 283 282 281 281 281 281 280 280 280 280 280 280 280 280 279 279 278 278 278 278 278
287 288 288 288 287 287 287 287 287 287 287 287 287 287 286 286 286 285 285 284 283 282 282 281 281 280 280 280 280 280 280 280 280 280 279 278 278 278 278 278 278 278
287 288 288 287 286 286 287 287 287 287 287 287 287 286 286 286 285 285 284 283 283 282 281 281 280 280 280 280 280 280 279 279 279 279 278 278 277 278 277 277 277 277
287 287 287 286 286 287 287 287 287 287 287 287 286 286 285 285 284 284 283 283 282 282 281 281 280 280 280 280 279 279 279 279 279 278 278 277 277 277 277 277 277 277
287 287 286 286 286 287 287 287 287 287 287 287 286 285 284 284 284 284 283 283 282 282 281 281 280 280 280 279 279 279 279 278 278 277 277 277 277 277 277 277 276 276
287 286 286 286 287 287 287 287 287 287 287 286 285 285 284 284 283 283 283 282 282 282 281 281 280 280 279 279 279 279 278 278 277 277 277 276 276 276 276 276 276 276
286 286 286 286 287 287 287 287 287 287 286 286 285 284 284 284 283 282 282 282 282 282 281 281 280 280 279 279 279 278 278 277 277 276 276 276 276 276 276 276 276 276
286 286 286 287 287 287 287 287 287 287 286 286 285 284 284 283 283 282 281 282 282 282 281 281 280 279 279 279 278 278 277 277 277 276 275 275 275 275 276 276 276 275
286 286 287 287 287 286 287 287 287 286 286 285 285 284 284 283 282 282 281 282 282 282 281 280 279 279 279 278 278 278 277 276 276 275 274 274 275 275 275 275 275 275
286 287 287 287 286 286 286 287 287 286 285 285 285 284 283 283 282 281 282 282 282 281 280 280 279 278 278 278 278 277 276 276 275 274 274 274 274 275 275 275 275 274
286 287 286 286 286 286 286 286 286 286 285 285 285 284 283 282 282 282 282 282 282 281 280 279 278 278 278 277 277 277 276 275 275 274 274 274 274 274 274 274 274 273
286 286 286 286 286 286 286 286 286 285 285 284 284 283 283 282 282 282 282 282 281 280 279 278 278 277 277 277 277 276 276 275 274 274 273 273 274 274 274 273 273 273
286 286 286 286 286 285 285 285 285 284 284 284 284 283 282 282 282 283 282 282 280 279 278 278 277 277 277 276 276 276 275 275 274 274 273 272 272 273 272 272 272 272
286 286 286 285 285 285 285 285 284 284 284 284 283 282 281 281 282 283 282 281 280 278 278 277 277 276 276 276 276 275 275 274 274 273 272 271 271 272 272 272 272 272
286 285 285 285 285 285 285 284 284 284 283 283 283 282 281 281 282 282 282 280 279 278 277 277 276 276 276 275 275 275 274 274 274 273 272 271 271 272 272 272 272 272
285 285 285 285 285 285 285 284 284 283 283 283 283 282 281 281 282 282 281 279 278 277 276 276 276 276 275 275 275 274 274 273 272 271 271 271 271 272 272 272 272 272
285 285 285 285 285 285 285 284 283 283 283 282 282 281 280 281 282 281 280 279 278 277 276 276 275 275 275 275 275 274 273 272 271 271 271 271 272 272 272 272 272 272
285 285 285 284 285 285 284 284 283 282 282 282 281 280 280 280 281 280 279 278 277 276 276 275 275 275 275 275 274 274 273 272 271 271 271 271 272 272 272 272 273 273

ECMWFNIL_925_thetae_048.txt.gz
Theta_e
290 290 289 289 289 288 288 287 287 287 287 287 287 288 288 288 287 287 287 287 287 287 287 286 286 286 285 285 285 284 284 284 283 283 283 283 283 282 282 282 282 282
290 290 289 289 289 288 288 287 287 287 287 288 288 288 288 288 287 287 287 287 287 287 287 286 286 286 285 285 285 284 284 283 283 283 283 283 282 282 282 282 282 282
290 289 289 289 288 288 287 287 287 288 288 288 288 288 288 287 287 287 287 287 287 287 287 286 286 286 285 285 284 284 284 283 283 282 282 282 282 282 282 282 282 282
289 289 288 288 288 287 287 287 288 288 288 288 288 287 287 287 287 287 287 287 287 287 286 286 286 286 285 284 284 283 283 283 282 282 282 282 282 282 282 282 282 282
288 288 288 288 287 287 288 288 288 288 288 288 287 287 287 287 287 287 286 286 286 286 286 286 286 285 285 284 283 283 282 282 282 282 282 282 282 282 282 282 282 281
288 288 288 287 287 288 288 288 288 288 288 288 288 287 287 287 287 286 286 286 286 286 286 285 285 285 284 284 283 283 282 282 282 282 282 282 282 281 281 281 281 281
288 287 287 287 288 288 288 288 288 288 288 288 288 287 287 286 286 286 286 286 286 286 285 285 285 284 284 283 283 282 282 281 281 281 281 281 281 281 281 281 280 280
287 287 287 288 288 288 288 288 288 288 288 288 287 287 286 286 286 286 286 286 286 286 285 285 285 284 284 283 282 282 281 281 281 281 281 281 281 281 281 280 280 280
287 287 287 288 288 288 288 288 288 288 288 288 287 287 286 286 286 286 286 286 286 286 285 285 284 284 283 283 282 282 281 281 281 281 281 281 281 280 280 279 279 279
287 287 288 288 288 288 288 288 288 288 288 287 287 287 287 287 286 286 286 286 286 285 285 284 284 283 283 282 282 282 281 281 281 280 280 280 280 280 279 279 279 278
287 287 288 288 288 288 288 288 288 288 287 287 287 287 287 287 287 286 286 286 286 285 285 284 284 283 283 282 282 281 281 281 280 280 280 280 280 279 279 278 278 278
287 288 288 288 288 288 288 288 288 288 287 287 287 287 287 287 286 286 286 286 286 285 284 284 284 283 283 283 282 281 280 280 280 280 280 280 279 279 279 278 278 278
287 288 288 288 288 288 288 288 288 288 287 287 287 287 287 287 286 286 286 286 285 285 284 284 284 284 283 283 282 281 280 280 280 279 279 279 279 279 279 278 278 278
287 288 288 287 288 288 288 288 288 287 287 287 287 287 287 286 286 286 286 286 285 285 284 284 284 284 283 282 281 280 280 279 279 279 279 279 279 279 279 279 278 278
287 287 287 287 287 288 288 288 287 287 287 287 287 287 287 286 286 286 286 285 285 284 284 284 284 284 283 281 280 280 279 279 279 279 279 279 279 279 279 278 278 277
287 287 286 286 287 287 287 287 287 287 287 287 287 287 287 286 286 286 285 285 285 284 284 284 284 283 282 281 280 280 279 279 279 279 279 278 278 278 278 278 277 277
286 286 286 286 287 287 287 287 287 287 287 287 287 287 287 286 286 285 285 285 284 284 284 284 283 282 281 280 280 279 279 279 278 278 278 278 278 278 278 277 277 276
286 286 286 286 286 286 287 287 287 287 287 287 287 287 287 286 286 285 285 285 284 284 284 283 282 281 280 280 279 279 278 278 278 278 278 278 278 277 277 276 276 275
286 286 286 286 286 286 287 287 287 287 287 287 287 287 286 286 286 285 285 284 284 284 284 283 282 281 280 279 279 279 278 278 277 277 277 277 277 276 276 276 275 275
286 286 286 286 286 286 286 287 287 287 287 287 286 286 286 286 286 285 285 284 284 284 283 282 281 280 279 279 279 278 278 277 277 277 277 277 276 276 276 275 275 274
286 286 286 286 285 286 286 286 287 287 287 286 286 286 286 286 285 285 285 284 284 283 283 282 281 279 279 279 279 278 277 277 276 276 276 276 276 275 275 275 274 274
286 286 286 286 285 285 286 286 286 286 286 286 285 285 285 285 284 284 284 284 284 283 283 282 280 279 279 279 278 277 277 276 276 276 276 276 275 275 275 275 274 274
286 286 286 286 285 285 286 286 286 286 286 285 285 285 285 284 284 284 284 284 284 283 282 281 280 279 279 279 278 277 276 276 276 275 275 275 275 274 274 273 273 273
286 286 286 286 285 285 286 286 286 286 286 285 285 285 285 284 284 283 283 284 284 283 281 280 279 279 278 278 278 277 276 275 275 275 275 275 274 273 273 272 272 272
286 286 286 286 285 285 286 286 286 286 285 285 285 284 284 284 283 282 283 283 283 283 281 280 279 279 278 278 278 276 276 275 275 274 274 274 274 273 272 272 272 272
286 286 286 286 286 285 285 285 285 285 285 284 284 283 283 282 282 282 282 282 283 282 281 280 279 279 278 278 277 276 275 275 274 274 274 274 273 272 272 271 271 272

ECMWFNIL_925_thetae_051.txt.gz
Theta_e
288 288 289 288 288 288 288 288 288 288 288 288 288 288 288 288 288 288 289 289 289 289 288 288 287 287 287 286 286 286 285 285 285 284 284 284 284 283 283 283 283 283
289 289 288 288 287 287 288 288 288 288 288 288 288 288 288 288 288 288 289 288 288 288 287 287 287 286 286 286 286 285 285 285 284 284 284 284 283 283 283 283 283 283
289 288 288 288 287 287 287 287 288 288 288 288 288 288 288 288 288 288 288 288 288 287 287 287 286 286 286 286 286 285 285 285 284 283 283 283 283 283 282 282 282 282
289 288 288 287 287 287 287 287 287 288 288 288 288 288 288 288 288 288 287 287 287 287 287 286 286 286 286 286 286 285 285 284 283 283 283 283 282 282 282 282 282 282
289 288 288 287 288 288 287 287 288 288 288 288 288 288 288 288 288 287 287 287 287 287 287 286 286 286 286 286 285 285 284 283 283 282 282 282 282 282 282 282 282 282
289 289 288 288 288 288 287 288 288 288 288 288 288 288 288 288 287 287 287 287 287 287 286 286 286 286 286 285 285 284 283 283 282 282 282 282 282 282 282 282 282 282
289 289 289 288 288 287 287 288 288 288 288 288 288 288 288 287 287 287 287 287 287 286 286 286 286 286 285 285 284 284 283 282 282 282 282 282 282 281 282 282 282 282
289 289 288 288 287 287 288 288 288 288 288 288 288 288 287 287 287 287 287 287 287 286 286 286 286 285 285 284 284 284 283 283 282 282 282 281 281 281 281 281 281 281
289 288 288 287 287 288 288 288 288 288 288 288 288 287 287 287 287 287 287 287 287 286 286 286 285 285 285 284 284 284 283 283 282 282 281 281 281 281 281 281 281 281
288 288 287 287 287 288 288 288 288 288 288 288 288 287 287 287 287 287 287 287 287 286 286 285 285 285 284 284 284 283 283 282 282 281 281 281 281 281 281 281 281 281
288 287 287 287 288 288 288 288 288 288 288 288 288 287 287 287 287 287 287 287 287 286 286 285 285 285 285 284 284 283 283 282 281 281 281 281 281 281 280 280 280 280
287 287 287 288 288 288 288 288 288 288 288 287 287 287 287 287 287 287 287 287 287 286 286 285 285 285 285 284 284 283 282 282 281 281 281 280 280 280 280 280 280 279
287 287 287 288 288 288 288 288 288 288 288 287 287 287 287 287 287 287 287 287 287 286 286 285 285 285 285 284 284 283 282 282 281 281 281 280 280 280 280 280 279 279
287 287 288 288 288 288 288 288 288 288 288 287 287 287 287 287 287 287 287 287 286 286 286 285 285 285 285 284 284 283 282 282 282 281 280 280 280 280 279 279 279 279
287 287 287 288 288 288 288 288 288 288 287 287 287 287 287 287 287 287 287 287 286 286 286 285 285 285 285 284 284 283 283 282 281 281 280 280 280 279 279 279 279 278
287 287 287 288 288 288 288 288 288 288 287 287 287 287 287 287 287 286 286 286 286 286 286 286 285 285 284 284 283 283 282 282 281 281 280 280 280 279 279 279 278 278
287 287 287 287 288 288 288 288 288 287 287 287 287 287 286 286 286 286 286 286 286 286 286 286 285 285 284 284 283 283 282 282 281 281 280 280 279 279 279 278 278 278
286 287 287 287 287 288 288 287 287 287 287 287 287 287 286 286 286 286 286 286 286 286 286 285 285 284 284 283 283 282 282 282 281 281 281 280 280 279 278 278 278 278
286 286 286 287 287 287 287 287 287 287 287 287 287 287 286 286 286 286 286 286 286 286 286 285 285 284 284 283 283 282 281 281 281 281 281 280 280 279 278 278 278 278
286 286 286 286 286 286 286 286 287 287 287 287 287 287 287 286 286 286 286 286 286 286 286 285 285 284 284 283 282 281 280 280 280 281 280 280 280 279 278 278 278 278
286 286 286 286 285 285 285 286 286 286 286 287 287 287 287 287 286 286 286 286 286 286 285 285 285 285 284 283 282 281 279 279 280 280 280 280 279 279 278 278 277 277
286 286 285 285 285 285 285 285 285 286 286 287 287 286 286 286 286 286 286 286 286 286 285 285 285 284 284 283 282 280 279 279 280 280 279 279 279 278 278 277 277 277
286 286 285 285 285 285 285 285 285 285 286 286 286 286 286 286 286 286 286 286 286 285 285 285 285 284 283 282 281 280 280 280 280 279 279 279 279 278 277 277 277 277
286 286 285 285 285 285 285 285 285 285 286 286 286 286 286 286 286 286 286 285 285 285 285 285 285 284 283 282 281 281 280 280 280 279 278 278 278 278 277 277 277 276
286 286 285 285 285 285 285 285 285 285 285 285 286 286 286 286 286 285 285 285 285 285 285 284 284 284 282 281 281 281 280 280 279 278 278 279 279 278 277 277 276 276
286 286 286 285 285 285 285 285 285 285 285 285 285 285 285 285 285 285 285 285 285 284 284 284 284 284 282 281 281 281 280 280 279 278 278 279 279 278 277 277 276 276

ECMWFNIL_925_thetae_054.txt.gz
Theta_e
292 291 290 290 290 290 290 290 290 290 290 289 289 289 289 289 289 289 290 290 290 290 289 289 289 289 289 288 288 288 287 287 286 286 285 285 285 284 284 284 284 283
290 290 289 289 289 290 290 290 290 290 289 289 289 289 289 289 289 289 290 289 289 289 289 289 289 289 289 288 288 287 287 287 286 285 285 285 284 284 284 283 283 283
289 289 289 289 290 290 290 290 290 289 289 288 288 289 289 289 289 289 289 289 289 289 288 289 289 288 288 288 287 287 287 286 286 285 284 284 284 284 283 283 283 283
289 289 289 290 290 290 289 289 289 288 288 288 288 289 289 289 289 289 289 289 289 289 289 288 288 288 288 287 287 287 286 286 285 285 284 284 283 283 283 283 283 282
288 289 289 289 289 289 289 289 288 288 288 288 288 289 289 289 289 289 288 288 289 289 288 288 288 287 287 287 286 286 286 285 285 284 284 283 283 283 283 282 282 282
288 288 289 289 289 289 289 288 288 288 288 288 289 289 289 289 289 288 288 288 289 289 288 287 287 287 287 286 286 286 285 285 284 284 283 283 283 282 282 282 282 282
288 288 288 288 288 288 288 288 288 288 288 289 289 289 289 289 288 288 288 289 288 288 288 287 287 287 286 286 286 286 285 285 284 283 283 282 282 282 282 282 282 281
288 288 288 288 288 287 287 287 288 288 288 289 289 289 288 288 288 288 288 288 288 288 287 287 287 286 286 286 286 285 285 284 284 283 282 282 282 282 282 281 281 281
289 288 288 287 287 287 287 287 287 288 288 289 289 288 288 288 288 288 288 288 287 287 287 286 286 286 286 286 285 285 284 284 283 283 282 282 281 281 281 281 281 281
289 288 288 287 287 287 287 287 288 288 288 289 288 288 288 288 288 288 288 287 287 287 286 286 286 286 286 285 285 285 284 284 283 283 282 281 281 281 281 281 281 280
289 288 288 287 287 287 287 287 288 288 288 288 288 288 288 288 288 288 287 287 287 287 286 286 286 286 286 285 285 284 284 284 283 282 282 281 281 281 281 280 280 280
289 288 288 287 287 287 286 287 288 288 288 288 288 288 288 288 287 287 287 287 287 286 286 286 286 286 286 285 284 284 284 283 283 282 282 281 281 280 280 280 280 280
289 288 288 288 287 287 287 287 288 288 288 288 288 288 288 287 287 287 287 287 286 286 286 286 286 286 286 285 284 284 284 283 283 282 282 281 281 280 280 280 280 280
289 288 288 288 287 287 286 287 288 288 288 288 288 288 288 288 287 287 287 286 286 286 286 286 286 286 286 285 284 284 284 283 283 283 282 281 281 280 280 280 280 280
289 288 288 288 287 286 287 287 288 288 288 288 288 287 287 288 287 287 287 286 286 286 286 286 286 286 286 285 285 284 284 284 283 283 282 282 281 281 280 280 280 280
288 288 287 287 287 286 287 287 287 288 288 287 287 287 287 287 287 287 286 286 286 286 286 286 286 286 286 285 285 285 284 284 283 283 283 282 282 281 281 281 280 280
287 287 287 287 286 286 286 287 287 287 287 287 287 287 287 287 287 286 286 286 286 286 286 286 286 286 286 285 285 285 284 284 284 283 283 283 282 282 282 281 280 280
287 287 286 286 286 286 286 287 287 287 287 287 287 287 287 287 286 286 286 286 286 286 286 286 286 286 286 285 285 285 285 284 284 283 283 283 283 282 282 281 280 280
286 286 286 286 286 286 286 286 286 286 287 287 287 287 287 287 286 286 286 286 286 286 286 286 286 286 285 285 285 285 285 284 284 284 284 284 283 283 282 281 281 280
286 286 286 286 286 286 286 285 286 286 286 287 287 287 286 286 286 286 286 286 286 286 286 286 286 285 285 285 285 285 285 285 284 284 283 284 284 283 282 282 282 281
285 285 285 285 285 285 285 285 285 285 286 286 286 286 286 286 286 286 286 286 286 286 286 286 286 285 285 285 285 285 284 284 284 284 283 284 284 283 283 282 282 281
285 285 285 285 285 285 284 284 285 285 286 286 286 286 286 286 286 286 286 286 286 286 286 286 286 285 285 285 285 284 283 283 283 283 283 284 284 284 283 282 282 281
285 285 285 285 285 284 284 284 285 285 285 285 285 285 285 286 286 287 286 286 286 286 286 286 286 285 285 285 285 284 283 282 283 283 283 284 284 284 283 282 282 281
285 285 285 285 285 285 285 285 285 285 284 284 285 285 286 287 287 286 286 286 286 286 286 286 286 286 285 285 284 284 283 282 283 282 282 283 284 283 282 282 282 282
285 285 285 285 285 285 285 285 284 284 284 284 285 285 286 287 286 286 286 286 286 286 286 286 286 286 285 285 285 284 283 282 282 281 281 283 283 283 282 282 282 281
285 285 285 285 285 285 285 285 284 284 284 284 284 284 285 285 285 285 285 286 286 285 286 286 286 286 286 285 284 283 283 282 282 281 281 283 283 282 282 282 282 282

ECMWFNIL_925_thetae_057.txt.gz
Theta_e
305 307 306 303 298 294 291 290 290 290 291 291 291 291 291 291 291 291 291 291 291 291 291 291 291 291 290 290 290 289 289 289 288 288 287 286 286 286 285 285 285 285
302 304 303 299 294 291 290 290 290 290 291 291 291 291 291 291 291 291 291 291 291 291 290 290 290 290 290 290 290 290 289 289 288 287 286 286 286 285 285 285 285 284
300 300 298 295 292 290 290 290 290 290 291 291 291 291 291 290 290 290 290 291 290 290 290 290 290 290 290 290 289 289 289 288 287 287 286 285 285 285 285 284 284 284
298 297 296 293 291 290 290 290 290 290 290 290 290 290 290 290 290 290 290 290 290 290 290 290 289 289 289 289 289 289 288 287 287 286 286 285 285 285 284 284 284 283
297 296 293 291 290 290 290 290 290 290 290 290 290 290 290 290 290 290 289 289 290 290 289 289 289 289 289 289 289 288 287 287 286 286 285 285 285 284 284 284 283 283
296 294 291 289 289 289 289 289 290 290 290 290 290 290 290 290 289 289 289 289 289 289 289 288 288 288 289 289 288 288 287 287 286 285 285 284 284 284 284 283 283 283
294 292 290 289 288 289 289 289 289 290 290 290 289 289 289 289 289 289 289 289 289 289 289 288 288 288 288 288 288 287 287 286 286 285 285 284 284 284 283 283 283 282
293 290 289 288 288 288 289 289 289 290 289 289 289 289 289 289 289 289 289 289 289 289 289 288 288 289 288 288 287 287 286 286 285 285 285 284 283 283 283 283 282 282
291 289 288 288 288 288 288 288 289 289 289 289 289 289 289 289 289 289 289 289 288 288 288 288 288 288 288 288 287 287 286 286 285 285 284 284 284 283 283 282 282 282
290 289 288 288 288 288 288 288 289 289 288 288 288 288 288 288 288 288 288 288 288 288 288 288 288 288 287 287 287 286 286 286 285 285 284 284 283 283 283 282 282 282
289 289 288 288 288 288 288 288 288 288 288 288 288 288 288 288 288 288 288 288 288 288 288 288 288 287 287 287 286 286 286 285 285 285 284 283 283 283 283 282 282 282
289 288 288 288 287 287 288 288 288 288 287 287 287 288 288 288 288 288 288 288 288 288 287 288 288 287 287 287 286 286 285 285 285 284 284 283 283 283 282 282 282 281
289 288 288 287 287 287 287 287 288 287 287 287 287 288 288 288 288 287 287 288 287 287 287 287 287 287 287 286 286 286 285 285 285 284 284 283 283 282 282 282 282 281
289 288 288 287 287 287 287 287 287 287 287 287 287 288 288 288 288 287 287 287 287 287 287 287 287 287 286 286 286 285 285 285 285 284 284 283 282 282 282 282 281 281
289 288 287 287 287 287 287 287 287 287 286 287 287 288 288 287 287 287 287 287 287 286 287 287 287 286 286 286 286 285 285 285 285 285 284 283 283 282 282 282 282 281
289 288 287 287 286 286 286 286 286 286 286 287 287 287 287 287 287 287 287 286 286 286 286 286 286 286 286 286 286 286 286 285 285 285 284 283 283 282 282 282 282 282
288 287 286 286 286 286 286 286 286 286 286 286 287 287 286 286 286 286 286 286 286 286 286 286 286 286 286 286 286 286 286 285 285 285 284 283 283 283 283 283 283 282
288 287 286 286 286 285 285 285 285 285 286 286 286 286 286 286 286 286 286 286 286 286 286 286 286 286 286 286 286 286 285 285 285 285 284 284 283 283 283 283 283 283
288 287 286 286 286 285 285 285 285 285 285 286 285 285 285 285 285 286 286 286 286 286 286 286 287 286 286 286 286 286 286 285 285 285 284 284 283 283 283 283 283 283
287 287 287 286 286 285 285 285 285 285 285 285 285 285 285 285 285 285 286 286 286 286 286 286 287 287 286 286 286 286 286 286 286 285 284 284 284 284 284 284 284 284
287 287 286 286 286 286 285 285 285 285 284 284 284 284 285 285 285 286 286 286 286 286 286 287 287 287 286 286 286 286 286 285 285 285 284 284 284 284 284 284 284 284
287 287 286 286 286 286 285 285 285 284 284 284 284 284 284 285 285 286 286 286 286 286 286 287 287 287 286 286 286 286 285 285 285 285 284 284 284 284 284 284 284 284
287 287 286 286 286 285 285 285 284 284 284 284 284 284 284 285 285 286 286 286 286 286 287 287 287 287 287 286 286 285 284 284 284 284 284 284 284 284 284 284 284 284
287 286 286 286 286 286 286 285 284 284 283 283 284 284 284 285 285 285 285 286 286 287 287 287 287 287 286 286 285 285 284 284 284 284 283 283 284 284 284 284 284 284
287 287 286 286 286 286 286 285 284 284 283 283 283 284 284 284 284 284 285 285 286 287 287 286 286 286 286 285 285 284 283 283 283 282 282 283 283 283 284 284 284 284
287 287 287 286 286 286 285 285 284 284 284 283 283 284 284 284 284 284 285 285 286 285 285 285 285 286 285 285 285 284 283 282 282 282 282 282 282 283 283 284 284 284

ECMWFNIL_925_thetae_060.txt.gz
Theta_e
308 309 309 309 309 310 310 309 307 304 302 302 302 300 295 291 291 292 292 292 293 293 293 292 292 292 291 291 291 290 290 290 289 289 289 289 289 288 288 287 287 287
306 306 306 306 305 305 306 306 306 303 301 301 300 296 292 291 292 291 292 292 292 292 292 292 292 291 291 291 290 290 290 289 289 289 288 288 288 288 287 287 287 286
304 304 304 304 304 304 304 303 301 300 299 298 295 292 291 291 291 291 292 292 292 292 292 291 291 291 290 290 290 290 289 289 289 288 288 288 287 287 287 286 286 286
302 303 303 305 306 307 307 303 298 295 294 293 292 291 291 291 291 291 291 292 292 291 291 291 291 290 290 290 289 289 289 288 288 288 288 287 287 286 286 286 285 285
302 303 304 305 305 304 304 302 297 293 291 291 291 291 291 291 291 291 291 291 291 291 291 291 290 290 289 289 289 288 288 288 287 288 288 287 286 286 285 285 285 285
302 303 305 306 304 301 302 301 296 292 291 291 291 291 291 291 291 291 291 291 291 291 291 290 290 289 289 288 288 288 288 287 287 287 287 287 286 286 285 284 284 284
302 303 304 304 302 300 301 299 294 291 290 290 291 291 290 290 291 291 291 291 291 290 290 290 289 289 288 287 287 287 287 287 287 287 287 287 286 286 285 284 284 284
301 303 303 302 300 298 298 296 292 290 290 290 290 290 290 290 290 291 291 291 290 290 290 289 289 288 288 287 287 287 287 287 287 287 287 286 286 285 285 284 283 283
298 299 299 299 298 297 296 294 291 289 289 290 290 290 290 290 290 291 290 290 290 289 289 289 288 288 287 287 287 287 287 287 287 287 287 286 286 285 285 284 283 283
297 296 296 295 295 295 295 293 290 288 289 289 289 289 289 289 290 290 290 290 289 289 289 288 288 287 287 287 286 286 287 287 287 287 286 286 286 285 285 284 284 283
294 294 293 292 292 293 293 291 289 288 288 288 289 289 289 289 289 289 289 289 289 289 288 288 288 287 287 286 286 286 286 287 287 287 286 286 285 285 284 284 284 283
292 292 292 291 290 290 290 289 288 287 288 288 288 288 288 288 289 289 289 289 289 288 288 288 287 287 286 286 286 286 286 286 286 286 286 285 285 285 284 284 283 283
291 291 291 290 290 289 288 288 287 287 287 287 287 288 288 288 288 289 289 288 288 288 288 287 287 287 286 286 286 286 286 286 286 286 286 285 285 285 284 284 283 283
291 290 290 290 289 288 287 287 287 287 287 287 287 287 288 288 288 288 288 288 287 287 287 287 287 286 286 286 286 286 286 286 286 286 286 285 285 285 284 284 284 283
291 290 290 289 288 287 286 286 286 286 286 286 286 287 287 287 288 288 287 287 287 287 287 286 286 286 286 286 286 286 286 286 286 286 286 285 285 285 284 284 284 284
290 289 288 287 287 286 286 285 285 285 285 285 286 286 287 287 287 287 286 287 287 287 287 286 286 286 286 286 286 286 286 286 286 286 286 285 285 285 284 284 284 284
290 289 288 287 286 286 286 285 285 285 285 285 285 286 286 286 286 286 286 287 287 287 287 286 286 286 286 286 286 286 286 286 286 286 286 286 285 285 285 285 285 284
289 289 288 287 286 286 286 286 286 285 285 285 285 285 285 285 285 286 286 286 286 286 286 286 287 287 286 286 286 286 286 286 286 286 286 286 286 285 285 285 285 284
289 289 288 288 287 287 286 286 286 285 285 285 285 285 285 285 285 285 286 286 286 286 286 286 287 287 286 286 286 286 286 285 286 286 287 287 286 286 286 286 285 285
289 289 289 288 288 287 286 286 285 285 285 285 285 284 284 284 284 285 285 285 286 286 286 286 287 287 286 286 286 286 286 286 286 287 288 288 287 287 287 286 285 285
289 289 289 289 288 287 286 285 285 285 284 284 284 284 284 284 284 284 285 285 286 286 286 286 286 286 286 286 286 286 286 286 286 287 288 288 288 287 287 286 285 284
289 289 288 288 287 286 285 285 284 284 284 284 284 284 284 284 284 284 285 285 286 286 286 286 286 286 286 286 286 286 285 286 287 287 288 288 288 287 287 286 285 284
289 288 288 287 286 286 285 285 284 284 284 284 284 284 284 284 284 284 284 285 285 286 286 286 286 286 286 286 286 286 285 286 287 287 287 288 288 287 286 285 285 284
288 288 287 287 286 286 286 285 285 284 284 284 284 284 284 284 283 283 284 284 285 286 286 286 286 286 286 286 286 286 286 286 287 286 286 287 287 287 286 285 284 284
288 288 288 287 287 286 286 285 285 285 285 285 284 284 284 284 284 284 284 285 285 285 285 285 286 286 286 286 286 285 286 286 286 285 285 285 285 285 285 285 284 284
288 288 287 287 287 286 286 286 286 286 286 285 285 285 285 285 285 285 285 285 285 285 285 285 285 285 285 285 285 285 285 285 284 283 283 283 284 284 284 284 284 284

ECMWFNIL_925_thetae_063.txt.gz
Theta_e
310 311 312 312 313 313 313 313 313 313 314 315 316 315 314 311 305 299 295 294 293 293 293 294 295 295 295 295 295 295 293 293 293 292 292 292 292 291 291 290 289 289
308 309 310 310 310 310 311 312 314 314 314 316 316 315 314 310 305 300 295 293 292 293 292 293 293 293 293 293 293 292 292 292 292 292 291 291 290 290 289 288 288 287
307 308 308 308 309 310 310 312 313 313 313 314 315 316 313 309 305 300 295 292 292 292 292 292 293 293 293 292 292 292 292 292 291 290 290 289 289 288 288 287 287 287
306 306 307 307 308 310 311 311 311 310 310 311 313 315 311 308 305 299 293 291 292 292 292 292 292 292 292 292 292 291 291 290 290 289 289 288 288 287 287 287 286 286
305 306 305 306 307 308 309 308 308 309 309 309 310 311 309 307 304 296 291 291 292 292 292 292 292 292 292 291 291 290 290 289 289 288 288 287 287 287 287 286 286 286
306 305 305 306 307 307 307 306 306 306 307 308 307 307 306 305 301 293 291 291 291 292 292 291 292 291 291 291 290 289 289 289 288 288 287 287 287 287 286 286 286 286
305 305 305 305 305 305 304 303 303 304 306 306 305 304 303 302 297 291 290 291 291 291 291 291 291 291 290 290 289 289 288 288 288 287 287 287 287 286 286 285 285 285
304 305 305 304 303 302 301 300 300 302 304 304 303 303 302 299 294 290 290 291 291 291 291 291 291 290 290 289 289 289 288 288 287 287 287 287 286 286 286 285 285 285
302 302 302 301 300 299 298 298 300 302 302 301 302 302 300 295 291 290 290 290 291 291 291 291 290 290 290 289 289 288 288 287 287 287 287 287 286 286 286 285 285 285
300 299 299 298 298 297 297 298 299 300 300 298 298 300 298 293 290 289 290 290 290 291 290 290 290 290 289 289 288 288 288 287 287 287 287 287 286 286 286 286 285 285
297 297 296 297 297 296 296 299 300 300 298 295 295 296 294 291 289 289 289 290 290 290 290 290 289 289 289 289 288 288 287 287 287 287 287 286 286 286 286 285 285 285
295 295 296 296 296 296 296 297 299 299 297 293 293 293 291 289 289 288 289 289 290 290 290 289 289 289 289 288 288 287 287 286 286 286 286 286 286 285 285 285 285 285
295 295 296 296 297 297 296 295 295 295 295 293 291 290 289 288 288 288 288 288 289 289 289 289 289 289 288 288 288 287 287 286 286 286 286 286 285 285 285 285 285 285
294 295 296 296 296 296 296 295 293 292 291 290 289 288 288 287 287 287 288 288 288 289 289 289 289 288 288 288 287 287 286 286 286 286 286 285 285 285 285 285 285 285
294 294 294 294 294 294 294 293 292 291 289 288 287 287 287 287 287 287 287 287 288 288 288 288 288 288 288 288 287 287 286 286 286 286 286 286 286 285 285 285 285 286
293 293 293 293 293 293 292 291 291 290 289 288 287 287 286 286 286 286 287 287 287 287 287 287 287 288 288 288 287 287 287 287 286 286 286 286 286 285 285 285 286 287
293 293 292 292 292 292 291 290 290 289 288 288 287 286 286 286 286 286 286 287 287 287 287 287 287 288 288 287 287 287 287 286 286 287 288 287 285 285 285 286 288 289
293 293 292 292 292 291 290 290 290 288 288 287 287 286 286 285 286 286 286 286 287 287 287 287 288 288 288 288 287 287 287 286 287 288 288 286 285 285 285 287 289 290
292 292 292 292 292 291 291 290 288 287 286 286 286 285 285 285 285 285 286 286 286 286 286 287 287 288 288 288 287 287 287 287 288 289 287 285 285 285 286 288 290 290
291 291 291 291 291 290 289 288 287 286 286 285 285 284 284 284 284 284 284 285 285 285 286 286 287 287 287 287 287 287 286 287 288 288 286 285 285 285 286 288 289 290
291 290 290 290 289 288 287 286 286 285 285 284 284 284 284 283 283 283 284 284 284 284 285 285 286 286 286 287 287 286 286 287 288 287 286 285 286 285 286 287 289 289
290 290 289 289 288 286 286 285 285 285 284 284 284 284 284 283 283 283 283 283 283 283 283 284 285 285 285 286 286 286 286 288 288 287 286 286 286 286 286 287 288 289
290 290 289 288 288 287 286 286 285 285 284 284 284 284 284 283 283 283 283 283 283 283 283 283 283 284 285 286 286 286 288 289 288 287 286 285 286 286 286 287 287 288
290 290 290 289 288 288 287 286 285 285 285 284 284 284 284 284 284 283 283 283 283 282 283 283 283 284 284 285 286 287 289 288 287 285 285 285 286 287 286 286 287 288
290 290 289 289 288 287 286 286 286 285 285 284 284 284 284 284 284 283 283 283 283 283 283 283 284 285 285 285 286 288 288 287 285 284 284 285 286 287 287 286 286 287
290 289 289 289 288 287 287 287 287 286 285 285 285 285 284 284 284 283 283 283 283 284 284 285 285 285 286 286 287 288 288 287 285 284 284 285 285 285 285 285 285 285

ECMWFNIL_925_thetae_066.txt.gz
Theta_e
310 310 310 312 313 314 316 318 318 318 318 317 317 317 317 317 317 317 317 317 316 315 313 311 310 308 307 308 309 310 310 309 308 307 305 303 302 302 301 300 298 296
308 309 310 311 312 313 313 314 315 316 317 317 317 316 316 316 316 316 317 316 314 313 312 309 306 304 303 305 307 308 308 307 306 305 303 302 301 300 299 298 296 294
307 308 309 310 311 311 312 312 313 315 315 315 315 315 315 315 315 315 316 314 313 313 310 305 301 301 301 303 305 306 306 305 304 303 302 301 300 298 297 296 293 291
306 307 308 310 311 311 312 312 312 313 312 312 313 314 313 313 313 312 312 312 312 310 306 300 298 300 301 303 304 304 304 303 302 301 300 298 296 295 293 292 290 289
305 305 306 308 310 311 310 310 311 311 311 311 312 312 313 313 311 309 308 310 309 305 299 297 297 299 301 302 303 303 302 300 299 297 295 293 292 291 290 289 289 288
304 305 305 307 309 309 309 309 310 310 310 310 311 311 312 312 310 307 305 308 307 299 295 294 295 298 300 301 301 299 298 296 294 292 291 290 290 289 289 289 288 287
304 305 306 308 308 307 307 308 308 307 308 309 309 310 311 310 309 305 303 305 305 298 293 293 293 294 296 296 295 294 292 292 291 290 290 290 289 289 288 288 287 287
303 304 306 307 306 305 306 306 306 306 307 307 307 308 309 307 307 304 300 300 302 297 292 292 291 291 292 291 291 290 290 290 290 290 290 289 289 288 288 287 286 286
301 303 305 305 304 305 304 304 305 305 305 305 305 306 305 304 304 302 298 298 299 295 291 291 291 290 290 290 290 290 290 290 290 290 289 289 288 288 287 286 286 285
301 303 304 304 304 304 303 303 303 303 304 304 304 303 302 302 301 299 297 296 295 292 290 290 290 290 290 290 290 290 290 290 290 289 289 288 288 287 287 286 286 285
301 302 303 303 303 303 302 302 301 301 302 302 301 301 300 300 299 297 296 295 293 290 290 290 290 290 290 290 290 290 290 290 289 288 288 288 287 287 286 286 286 285
300 300 301 302 302 302 301 301 301 300 301 300 299 299 299 299 299 297 295 294 293 290 289 290 290 290 290 290 290 289 289 289 288 288 288 287 287 286 286 286 285 285
300 300 300 300 301 301 301 300 300 299 299 298 298 298 298 297 297 296 293 292 292 290 289 289 290 290 290 290 290 289 289 288 288 288 287 287 286 286 285 285 285 285
300 300 300 299 300 301 300 298 297 297 296 295 295 295 296 296 295 294 292 290 290 290 289 289 290 290 290 289 289 289 289 288 288 287 287 286 286 286 285 285 285 285
299 300 299 299 298 298 297 296 295 295 295 294 293 293 293 293 293 293 290 288 288 288 288 289 289 289 290 289 289 289 289 288 288 287 287 286 286 286 285 285 285 286
299 299 298 297 296 296 295 295 294 294 294 293 293 293 291 290 289 289 289 287 287 287 287 288 288 289 290 290 290 289 289 288 288 287 287 286 286 286 285 286 286 287
298 298 297 296 295 294 294 294 294 294 293 292 291 290 289 288 287 286 286 287 287 287 287 288 288 289 289 289 289 289 289 289 288 287 287 287 286 286 287 288 288 288
297 297 296 295 294 293 293 292 292 292 291 290 289 289 288 287 286 286 286 286 286 286 286 287 287 288 289 289 288 288 289 289 288 288 287 286 286 288 290 290 289 288
295 295 295 294 293 292 291 291 290 290 290 289 289 288 287 286 285 285 285 285 285 284 284 285 285 286 287 287 288 288 288 288 288 287 287 287 287 290 292 291 289 288
294 294 293 293 292 291 290 290 289 289 289 289 288 287 286 285 285 285 284 284 284 284 284 284 284 285 286 286 287 287 286 287 287 288 288 287 288 290 291 291 290 287
293 292 292 291 291 290 289 289 289 288 288 287 287 287 286 285 285 284 284 284 284 283 284 284 285 286 285 285 286 286 286 286 287 288 287 286 288 290 291 291 290 287
292 292 291 290 290 289 289 288 288 287 287 286 286 286 286 285 284 284 284 283 283 283 283 283 284 285 284 284 285 285 285 285 285 286 285 286 289 291 291 291 290 288
292 292 291 290 290 289 288 288 287 287 286 286 285 285 284 283 283 283 283 283 282 282 282 283 283 283 283 283 283 283 283 283 284 284 285 287 289 290 291 291 290 289
292 292 291 290 289 289 288 287 287 286 285 285 285 284 284 283 283 283 283 282 282 282 282 282 282 282 282 282 282 282 283 283 284 285 286 288 289 290 290 290 290 289
292 291 291 290 289 288 288 287 286 286 286 285 284 284 284 283 283 283 283 283 282 282 282 282 282 282 282 283 283 283 283 284 285 286 287 288 289 290 290 290 289 288
291 291 290 290 289 288 288 287 286 286 285 284 284 285 284 284 283 283 283 283 283 283 282 282 283 283 283 283 284 284 285 286 286 287 288 288 289 289 289 289 289 288

ECMWFNIL_925_thetae_069.txt.gz
Theta_e
312 313 314 314 315 315 314 315 316 315 316 317 317 318 319 320 320 320 319 319 318 318 318 317 316 317 317 315 312 308 306 306 306 306 306 305 305 305 305 303 301 299
310 312 312 312 313 313 313 314 315 314 315 316 317 318 319 319 319 319 319 319 318 318 317 317 316 315 315 314 311 307 305 305 305 305 304 304 304 305 304 303 301 299
309 310 310 311 312 312 312 313 314 314 314 314 315 316 317 318 319 319 318 318 318 317 316 316 315 313 312 312 310 307 305 304 304 304 304 303 303 303 302 301 300 298
309 309 309 310 311 311 311 312 313 313 313 313 313 314 315 317 317 317 317 318 317 316 315 313 312 311 309 308 307 306 304 303 303 303 303 302 302 302 301 300 299 297
308 309 308 308 310 310 310 310 311 312 312 313 313 313 313 314 315 316 317 316 316 314 313 311 309 308 306 305 305 304 302 301 302 302 301 301 300 300 300 299 298 296
307 307 306 306 308 309 309 309 310 311 312 312 312 311 312 312 313 314 315 315 314 313 311 308 306 304 303 303 303 301 299 300 300 300 300 300 299 299 298 298 296 293
307 306 305 305 307 308 308 309 310 311 311 312 311 310 311 311 311 312 312 312 312 312 310 306 303 302 301 300 299 298 297 298 299 298 298 298 298 297 296 294 292 290
306 305 304 304 306 306 307 308 308 308 309 310 310 310 310 310 310 310 309 309 309 308 307 303 300 299 297 297 297 296 296 297 297 297 296 296 297 295 292 290 289 288
305 304 304 304 305 305 305 306 306 306 307 310 310 310 310 309 308 308 306 305 305 303 301 299 297 296 294 294 295 295 296 297 296 295 296 296 295 292 289 288 287 287
304 304 303 304 304 305 305 304 304 305 307 308 308 308 307 307 307 305 303 302 302 299 296 295 294 294 293 292 293 295 297 297 296 294 295 294 292 290 288 288 287 287
304 303 303 304 304 304 303 303 303 305 306 306 306 305 306 306 305 303 301 301 300 298 295 293 292 292 291 291 292 294 296 297 295 293 292 291 290 289 288 287 287 287
303 303 303 303 303 303 303 302 302 303 304 304 305 305 305 304 302 301 300 301 299 298 296 293 291 291 291 290 291 292 293 294 292 291 289 289 288 288 288 287 287 287
303 302 302 302 302 303 303 302 301 302 303 304 305 304 302 301 300 300 300 299 298 296 295 293 291 291 291 290 290 290 290 290 290 289 288 288 288 287 287 287 287 286
303 302 301 301 301 302 302 301 301 303 303 302 301 300 299 299 299 299 298 297 296 294 293 292 291 291 291 290 289 289 289 289 289 288 288 288 288 287 287 286 286 285
302 301 301 301 300 300 300 300 300 301 302 300 299 298 298 297 296 297 296 295 293 292 291 290 290 290 290 290 289 289 288 289 289 289 288 288 287 287 286 285 285 285
301 301 300 300 300 299 300 299 299 299 299 298 297 296 296 295 294 294 294 293 291 290 289 289 289 289 289 289 289 289 289 289 289 288 288 288 287 286 285 285 285 285
300 300 299 299 299 299 299 298 298 297 296 295 295 294 293 293 292 292 292 292 290 288 288 288 288 288 288 288 288 289 289 289 288 288 288 287 287 286 286 285 284 285
300 299 298 298 298 298 298 297 297 296 295 293 293 292 292 291 291 291 291 290 289 288 287 287 287 287 287 287 287 287 288 288 288 288 287 287 287 287 286 285 285 286
299 298 298 297 297 297 297 296 296 295 294 293 292 292 291 290 290 289 289 289 288 288 287 287 286 286 286 286 286 286 287 287 288 288 288 287 287 286 286 286 286 288
298 298 297 296 296 296 296 295 294 294 293 292 292 291 290 290 289 288 288 287 287 287 286 286 285 285 286 286 286 286 286 286 287 288 288 287 287 286 286 288 289 290
297 297 296 295 295 295 294 294 293 293 292 291 291 291 290 290 289 288 287 286 286 286 285 285 285 285 285 286 286 285 285 285 285 286 286 286 286 285 287 290 291 291
297 296 295 294 294 293 293 292 292 292 291 290 290 289 289 288 288 287 286 285 285 285 285 285 285 285 285 285 284 284 284 284 284 285 285 285 285 285 288 291 292 292
296 296 294 293 293 292 292 291 290 290 289 289 289 288 287 287 286 286 285 285 285 284 284 284 284 284 283 283 284 283 283 283 284 284 284 284 284 285 289 291 291 291
295 295 294 293 292 291 291 290 289 289 288 288 288 288 286 286 286 285 285 285 284 284 284 284 283 283 283 283 283 283 283 283 283 283 283 283 284 286 289 290 290 290
295 294 294 293 291 291 290 290 289 288 288 287 287 287 286 285 285 285 284 284 284 284 283 283 283 283 283 283 283 283 283 283 283 283 283 283 284 287 289 289 289 290
294 293 293 292 291 290 289 289 288 288 287 286 286 286 286 285 285 284 284 283 283 283 283 283 282 282 283 283 283 283 283 283 283 283 283 284 285 287 288 288 289 289

ECMWFNIL_925_thetae_075.txt.gz
Theta_e
317 317 316 315 315 314 314 313 313 314 315 315 315 314 314 313 314 316 318 319 319 320 320 321 321 322 322 321 320 319 318 317 317 316 313 311 309 308 308 307 306 305
316 316 315 315 314 314 313 313 313 314 315 315 315 314 314 313 313 314 316 317 317 318 318 319 320 320 319 318 317 317 317 316 316 316 313 312 311 309 308 308 306 305
315 315 314 314 313 313 312 312 313 315 315 315 315 314 314 314 313 313 314 316 316 316 317 317 317 317 316 315 315 315 316 316 316 316 314 312 311 310 309 308 306 305
314 314 313 313 313 312 312 312 313 315 315 315 315 314 314 313 313 313 314 315 315 316 316 315 314 314 314 315 314 315 315 316 317 316 313 312 311 310 309 307 305 305
313 313 312 312 312 311 311 311 312 314 314 314 314 314 314 313 313 314 314 314 315 315 315 314 314 313 313 314 313 314 314 315 315 314 313 311 311 310 308 307 305 305
313 312 312 311 311 311 311 310 311 313 313 313 313 313 313 313 313 314 314 314 315 315 315 314 314 313 312 312 312 312 313 313 313 313 312 311 310 308 307 306 306 305
312 312 311 311 311 310 310 310 311 312 312 312 312 312 312 313 313 313 313 314 314 314 314 313 313 312 311 311 310 310 310 311 311 310 309 309 308 306 305 305 305 304
312 312 311 311 310 310 310 310 310 310 311 311 311 310 311 311 312 312 312 313 313 314 314 312 311 311 310 309 309 309 308 308 308 308 307 307 306 305 304 303 302 301
312 312 311 310 310 309 309 309 309 309 309 309 309 309 310 310 310 311 311 311 311 312 312 311 310 309 309 309 308 308 307 306 306 306 306 306 305 304 304 302 300 299
312 311 311 310 310 309 309 309 308 309 309 308 308 308 309 309 309 310 310 310 310 310 310 310 309 308 308 308 308 307 306 305 305 305 305 305 305 304 303 302 300 298
312 311 310 310 309 309 309 308 308 308 308 307 307 307 308 308 309 309 309 309 309 310 310 310 309 308 308 307 307 306 304 304 303 303 303 303 303 302 302 301 300 298
311 311 310 310 309 309 308 308 308 308 307 307 306 306 306 307 307 308 308 308 309 309 310 309 309 308 308 307 306 304 302 301 301 302 302 301 301 301 301 300 299 298
311 311 310 310 309 309 308 308 307 307 306 305 305 305 305 306 306 306 307 307 307 308 308 308 307 307 307 305 304 303 301 300 299 299 300 299 299 299 299 298 298 297
311 311 310 310 309 308 308 307 307 306 306 304 304 304 304 304 305 305 306 305 306 306 307 306 305 305 305 303 302 301 299 298 297 298 298 297 297 297 297 296 296 295
311 310 310 309 309 308 307 307 306 306 305 304 303 303 303 303 304 304 304 304 304 304 304 303 303 303 303 302 301 299 297 296 296 296 296 296 295 295 294 294 293 293
310 310 310 309 308 307 307 306 306 305 305 303 303 303 302 302 302 302 302 302 302 302 302 301 301 302 302 302 300 298 296 295 295 295 295 295 294 293 291 291 291 291
310 309 309 308 307 307 306 305 305 304 304 303 302 302 302 301 301 300 300 301 301 301 301 301 300 301 301 299 297 296 295 294 294 293 293 293 292 291 289 288 288 288
309 308 307 307 306 306 305 304 304 303 303 302 301 301 300 300 299 299 299 299 299 299 299 299 299 300 299 297 295 294 293 293 292 292 292 291 291 290 289 288 286 285
307 307 306 306 306 305 304 304 303 303 302 301 300 300 299 298 298 298 298 298 298 298 298 297 298 298 296 294 293 292 291 291 291 291 291 290 289 289 288 287 285 284
306 306 306 306 305 305 304 303 302 302 301 300 299 298 297 297 296 296 296 297 297 296 296 296 296 295 294 292 291 290 289 289 290 291 290 290 289 288 287 286 285 284
305 305 305 304 304 303 303 302 301 301 300 299 298 297 297 296 295 295 296 295 295 295 294 294 294 293 292 291 290 289 288 289 289 290 289 289 288 287 286 286 284 284
305 304 304 303 302 301 301 300 299 299 298 298 297 296 295 295 294 295 295 294 294 293 292 292 291 290 289 289 289 288 288 289 289 288 288 287 287 285 285 284 284 286
304 303 303 302 301 300 299 298 298 297 297 297 295 294 294 293 293 294 294 293 293 291 290 290 288 287 287 287 287 288 288 288 287 287 286 285 285 284 283 284 285 288
303 303 302 301 300 299 299 298 297 296 296 295 294 294 293 293 293 292 292 291 291 289 289 288 287 286 286 286 286 287 287 286 286 285 284 284 283 283 283 284 286 290
302 302 301 300 299 299 298 297 297 296 295 294 293 293 293 292 291 291 290 289 289 289 288 288 288 287 287 286 286 286 286 285 285 284 283 282 282 282 282 284 288 291
301 301 300 300 299 298 297 297 296 295 293 292 292 291 291 290 289 289 289 288 287 287 287 287 287 286 285 285 286 285 285 285 284 283 283 282 281 281 282 284 288 291

ECMWFNIL_925_thetae_078.txt.gz
Theta_e
319 320 320 320 320 319 319 319 318 318 317 317 317 317 316 316 316 315 315 315 313 313 318 321 321 321 322 324 323 320 317 315 315 317 320 318 315 313 310 308 306 306
319 319 319 318 319 318 318 318 317 317 317 317 316 316 316 315 315 314 314 314 313 312 314 318 319 319 320 322 322 320 318 316 315 317 319 318 317 313 311 309 307 306
318 318 318 318 318 318 318 317 317 317 316 316 315 315 315 314 314 314 314 314 314 312 312 314 316 318 318 319 320 321 321 318 317 318 318 318 317 314 311 309 308 307
317 318 317 317 317 317 317 316 316 316 315 314 314 314 313 313 313 314 314 314 314 313 312 312 313 316 317 318 319 320 320 318 318 318 316 316 316 313 311 309 308 307
316 317 316 316 317 316 316 316 315 315 314 314 313 313 313 313 314 314 314 314 313 313 312 312 312 314 315 317 317 318 317 317 317 317 314 314 313 311 310 309 308 307
315 316 316 316 315 315 315 314 314 314 313 313 312 312 313 313 314 314 314 313 313 313 312 312 313 313 315 316 316 315 315 315 315 314 312 311 311 310 309 309 308 308
314 315 315 315 314 314 314 313 313 313 312 312 312 311 312 312 313 313 313 313 313 312 312 312 312 313 314 314 314 313 313 313 313 312 311 310 310 309 308 308 308 307
313 314 314 314 314 313 313 313 313 312 311 311 311 311 311 312 312 312 312 313 312 312 311 311 312 312 313 313 312 312 311 311 311 311 310 310 309 309 308 307 307 306
312 313 313 313 313 313 313 312 312 311 311 311 310 311 311 311 312 311 311 311 312 312 311 311 312 311 312 312 311 311 310 310 310 310 310 310 309 309 308 307 306 305
312 312 313 313 312 312 312 312 312 311 311 310 310 310 310 311 311 310 310 310 310 311 311 311 311 311 311 311 310 310 309 309 310 309 310 309 309 309 308 307 306 305
312 312 312 312 312 312 312 311 311 311 310 310 310 310 310 310 310 310 309 308 309 309 310 309 310 310 310 310 310 309 308 308 309 309 309 309 309 308 307 307 306 305
311 311 312 312 312 311 312 311 311 311 310 310 309 309 309 309 309 309 307 307 307 308 308 309 309 309 309 309 309 308 307 307 306 306 307 307 307 306 306 306 305 304
311 311 311 312 312 312 311 311 311 310 310 309 309 308 308 308 308 308 307 306 306 307 308 308 308 308 308 308 308 307 306 305 304 304 304 304 304 304 304 304 303 303
311 311 311 311 311 311 311 311 311 310 309 309 308 308 308 308 308 307 306 305 305 306 307 307 307 307 307 307 306 305 305 304 303 303 302 302 302 302 302 302 302 301
311 311 311 311 311 310 311 311 310 309 309 308 308 308 307 307 307 306 305 305 305 305 306 306 306 306 306 306 305 305 304 303 302 302 301 301 300 300 300 300 300 300
311 310 310 309 309 309 309 309 308 308 308 307 307 307 307 306 305 305 305 304 304 304 305 305 305 305 305 305 305 304 304 303 301 300 300 299 299 298 298 298 298 298
310 309 309 309 308 308 308 308 308 307 307 307 307 306 306 305 304 304 304 303 303 303 303 304 304 304 304 304 303 303 302 301 300 300 298 298 297 297 297 297 296 296
309 308 308 308 308 308 308 308 307 307 306 306 306 306 305 304 304 303 303 302 302 302 302 303 303 303 303 303 302 301 300 300 299 298 297 296 296 296 296 296 295 294
307 307 307 308 308 307 307 306 306 306 306 306 305 305 304 303 303 302 302 301 301 301 301 302 302 302 302 302 301 300 298 297 296 296 295 295 295 295 294 294 293 291
307 306 306 306 306 306 305 305 305 305 305 304 304 303 303 302 302 301 301 301 300 300 300 300 300 301 301 300 300 298 296 295 294 294 293 293 294 293 293 292 291 290
306 305 305 305 305 304 304 304 304 303 303 303 302 302 302 302 301 301 300 300 300 299 299 299 300 300 300 299 298 296 294 292 292 292 292 292 292 292 292 291 290 289
304 304 304 304 304 303 303 303 303 303 302 302 301 301 301 300 300 299 299 299 298 298 297 297 298 298 298 297 296 294 292 291 290 291 291 291 290 290 290 290 289 288
304 303 303 303 303 302 302 302 302 302 302 301 300 300 299 299 298 298 298 297 297 296 296 296 297 297 297 295 294 293 291 290 289 289 289 289 289 288 288 287 287 287
303 303 302 302 302 302 302 302 302 301 301 300 300 299 299 298 298 297 296 296 295 295 295 295 296 296 295 293 292 291 289 289 288 288 288 287 287 286 285 286 285 285
303 302 302 301 301 301 301 301 301 300 300 299 298 298 298 297 296 295 294 294 294 294 294 294 294 294 292 292 291 290 289 288 287 287 286 286 285 284 284 284 284 284
302 302 301 301 301 301 300 300 300 299 298 297 297 296 295 295 294 293 293 293 292 292 292 292 292 292 291 290 289 288 288 288 287 286 286 284 284 283 283 283 284 284

ECMWFNIL_925_thetae_081.txt.gz
Theta_e
319 320 321 321 322 322 322 322 321 321 321 321 321 320 320 320 320 320 320 320 321 321 322 322 322 322 322 321 320 320 320 320 319 318 317 316 313 311 310 310 309 308
317 318 319 319 320 320 320 320 320 320 320 320 320 319 319 319 318 318 318 318 318 318 319 319 319 319 318 318 317 317 318 319 319 318 317 315 314 313 312 311 310 309
316 316 317 318 318 319 319 319 319 319 319 319 318 318 318 317 317 317 316 316 316 316 316 316 315 315 315 314 313 314 316 318 318 318 316 315 315 315 314 312 310 309
314 316 316 317 317 317 318 318 318 318 318 317 317 317 317 317 316 316 315 315 315 315 314 314 313 313 313 313 312 312 313 315 317 317 315 315 315 316 315 313 310 309
313 315 315 316 317 317 317 317 317 317 317 317 317 316 316 316 315 315 315 314 314 314 313 313 313 313 313 313 312 311 311 312 314 315 315 314 314 314 314 313 311 309
312 313 314 315 316 316 316 316 316 316 316 316 316 316 315 315 315 314 314 314 313 313 312 313 313 312 313 313 312 311 310 311 312 313 314 314 314 313 312 312 311 309
311 312 312 313 314 315 315 315 315 315 315 315 315 315 314 314 314 313 313 313 312 312 312 313 313 312 312 313 312 312 311 311 311 312 312 312 312 312 312 312 311 309
311 311 311 312 313 313 313 314 314 314 314 314 314 314 314 313 313 312 312 312 311 312 312 313 313 312 312 312 311 311 311 311 311 311 311 311 311 311 311 311 310 309
311 311 311 311 311 312 312 312 313 313 313 313 313 313 313 312 312 312 311 311 311 311 311 312 313 312 312 312 311 311 310 310 310 310 310 311 311 311 311 310 310 309
311 311 311 311 311 311 311 311 311 312 312 313 313 313 313 312 312 311 310 310 310 311 311 311 312 311 311 311 311 310 310 310 310 309 309 309 309 310 310 309 309 308
311 311 311 311 311 311 311 311 311 311 311 312 312 312 312 312 311 310 310 310 310 310 311 310 310 310 310 309 310 310 309 309 309 309 309 308 308 308 308 308 308 308
311 311 311 311 311 311 311 311 311 311 311 311 311 312 312 312 311 310 310 310 310 310 310 310 310 309 308 308 309 309 308 308 308 308 308 308 307 307 306 306 307 307
310 310 310 310 310 310 311 310 311 310 310 310 310 310 311 311 311 310 310 309 309 309 309 309 309 308 307 307 307 308 307 307 308 308 308 307 306 306 305 305 305 306
310 310 310 310 310 310 310 310 310 310 310 309 309 309 309 310 310 310 309 309 308 308 308 308 308 307 306 306 306 307 307 307 307 307 306 306 306 305 304 304 304 304
309 309 308 308 309 309 309 309 309 309 309 308 308 309 309 309 310 310 309 308 308 308 307 307 307 307 306 305 305 306 306 306 306 306 305 305 305 304 303 302 302 302
308 308 308 308 308 308 308 308 308 308 308 307 307 307 308 308 309 309 308 308 308 307 307 307 307 306 305 304 304 305 306 305 305 305 304 304 303 302 302 301 301 301
307 308 307 307 307 307 307 307 307 307 306 306 306 306 307 307 307 307 307 307 307 307 306 306 306 306 305 303 303 304 304 304 304 303 303 303 302 301 300 300 300 299
307 307 307 307 307 306 306 306 306 306 306 305 306 306 306 306 306 306 306 306 306 306 305 305 305 305 304 303 302 303 303 303 303 302 301 301 300 300 299 299 299 298
306 306 305 306 306 306 306 305 304 305 305 305 305 305 305 305 305 305 305 305 305 305 305 305 304 304 304 303 302 302 302 302 301 300 300 299 299 299 298 298 297 297
304 304 304 304 305 305 305 304 304 304 304 304 304 304 304 304 304 304 304 305 304 304 304 304 303 303 303 302 302 301 302 301 300 299 298 297 297 297 297 296 296 296
301 302 302 303 303 303 303 303 304 304 303 303 303 303 303 303 303 303 303 303 303 303 303 302 302 302 302 302 302 301 301 300 299 297 296 295 295 295 295 295 295 294
299 299 300 301 301 301 302 302 302 303 303 303 303 302 302 302 302 302 302 302 302 302 301 301 301 301 301 301 302 301 300 298 296 295 294 294 294 294 294 293 293 293
299 299 299 299 300 300 300 301 301 301 302 302 302 301 301 301 301 302 302 301 301 301 300 300 300 300 300 301 301 300 298 296 294 293 293 292 292 292 292 292 291 291
299 298 298 298 298 299 299 299 300 300 300 300 300 300 300 301 301 300 300 300 300 299 299 299 299 299 299 299 299 298 296 294 293 292 291 291 290 290 290 290 290 290
299 298 298 298 298 298 299 299 299 299 299 299 299 299 299 299 299 299 298 298 298 298 297 297 297 297 298 297 297 296 294 293 292 291 290 289 289 288 288 288 288 288
298 298 298 298 298 298 298 298 298 298 298 298 298 298 298 297 297 297 297 297 297 296 296 295 295 296 296 296 295 295 294 292 291 290 289 288 288 287 286 286 286 286

ECMWFNIL_925_thetae_084.txt.gz
Theta_e
317 319 320 321 321 322 323 323 323 323 322 322 322 322 322 322 321 321 321 321 320 320 320 321 322 322 323 324 324 323 323 322 322 321 320 319 318 317 315 313 311 310
314 314 315 316 317 318 319 320 320 320 321 321 321 321 321 320 320 320 319 319 319 319 319 319 319 319 320 320 321 321 321 320 320 320 319 319 318 317 316 315 314 313
312 313 313 314 314 315 316 316 317 318 318 319 319 319 319 319 319 318 318 318 318 318 317 317 317 317 317 317 317 317 318 318 319 318 318 316 316 315 315 314 314 314
312 312 312 313 314 314 315 315 316 316 317 317 317 318 318 318 317 317 317 317 316 316 316 316 316 315 315 315 315 315 315 315 315 315 314 313 312 313 313 314 314 314
311 311 311 312 313 313 314 314 315 315 316 316 316 316 316 316 316 316 316 316 316 315 315 315 315 314 314 314 314 314 313 313 313 312 312 312 311 311 312 313 313 313
311 311 311 311 311 312 313 313 313 314 314 314 315 316 316 315 316 315 315 315 315 315 314 314 314 314 313 313 313 313 312 312 312 311 312 312 311 310 310 311 312 312
310 310 311 311 311 311 311 311 312 312 313 313 314 314 314 314 315 314 314 314 314 314 313 313 313 313 312 312 312 312 312 312 312 311 311 311 311 310 309 310 311 311
310 310 310 310 310 310 311 311 311 311 312 312 313 313 313 313 313 313 313 313 313 313 313 312 312 312 312 312 311 312 312 312 312 311 311 311 310 310 309 309 310 310
310 310 309 310 310 310 310 310 310 311 311 311 311 312 312 312 312 312 312 312 312 312 312 312 312 311 311 311 311 311 312 312 312 311 311 311 310 309 309 308 309 309
309 309 309 309 309 309 310 310 310 310 310 310 310 311 311 311 311 311 311 311 311 312 312 311 311 311 310 310 310 311 311 311 312 311 310 310 310 309 308 308 307 307
309 309 308 308 308 308 309 309 309 309 309 310 310 310 310 310 310 310 310 311 311 311 311 311 311 310 310 310 310 310 311 311 311 310 309 309 309 309 308 307 306 306
309 308 308 308 308 308 308 308 308 308 308 309 309 309 309 309 310 310 310 310 310 311 311 311 311 310 310 310 310 310 310 310 310 309 308 308 308 308 308 306 306 306
308 308 308 308 308 308 307 307 307 307 307 308 308 308 308 309 309 309 309 309 309 310 310 310 310 310 309 309 309 309 309 309 309 308 307 306 306 307 307 306 306 305
307 307 307 307 307 307 307 307 307 307 307 307 307 307 307 308 307 307 308 308 308 308 309 309 309 309 309 309 309 309 308 308 308 307 306 305 305 305 306 306 305 305
305 306 306 306 307 306 306 307 306 306 306 306 306 306 306 306 306 306 306 306 307 307 308 308 308 308 308 308 308 308 307 307 307 306 305 304 304 304 304 305 304 304
305 305 306 306 306 306 305 306 305 306 306 305 305 305 305 305 305 305 305 305 306 306 307 307 307 308 308 308 308 307 307 306 306 305 304 303 303 303 303 304 304 303
304 304 304 305 305 305 305 304 304 304 304 304 305 304 305 305 304 304 305 305 305 305 305 306 306 307 307 307 307 306 306 305 305 304 304 303 303 303 302 302 303 303
301 302 302 303 303 304 304 304 304 304 303 303 303 303 303 303 303 304 304 304 304 304 304 305 305 306 306 306 306 305 305 305 304 304 303 302 302 302 301 301 301 302
300 300 300 301 302 302 303 303 304 304 303 302 302 302 302 302 302 302 302 302 303 303 303 304 304 305 305 305 305 304 304 304 303 303 302 302 301 301 300 300 300 300
300 300 300 301 301 301 301 302 302 303 303 302 302 301 301 301 301 301 301 301 301 302 302 302 303 303 303 303 304 303 303 303 302 302 302 301 301 300 299 299 299 298
300 300 301 301 301 301 300 300 301 301 301 301 301 301 301 301 301 301 301 301 301 301 301 301 302 302 302 302 302 302 302 302 301 301 301 300 300 299 299 298 298 297
299 299 299 300 300 299 299 299 298 299 299 299 300 300 300 300 300 300 300 300 301 300 300 300 301 301 301 301 301 301 300 300 300 300 299 299 299 298 298 297 297 296
298 298 298 299 298 298 298 297 297 297 297 298 298 298 299 299 299 299 299 299 299 299 299 300 300 300 300 300 300 300 299 299 299 298 297 297 297 297 297 296 295 295
298 298 298 298 298 298 297 297 297 297 296 296 297 297 298 298 298 298 298 298 298 299 298 298 299 299 299 299 299 298 298 298 297 296 296 295 295 295 295 294 294 293
298 298 298 297 297 297 297 296 296 296 296 296 296 296 296 297 297 297 297 298 298 298 298 297 298 298 298 298 298 297 297 296 296 295 294 294 294 294 294 293 293 292
298 298 298 297 297 296 297 296 296 296 296 295 295 295 295 295 295 295 296 296 296 297 297 296 296 297 297 297 297 296 296 295 294 293 293 293 293 293 292 292 291 290

ECMWFNIL_925_thetae_090.txt.gz
Theta_e
314 315 315 316 317 317 318 318 318 319 318 318 318 318 318 319 319 319 320 320 321 321 321 322 322 322 323 323 323 322 323 323 323 323 322 320 319 318 318 318 318 317
311 311 311 312 312 313 313 314 314 315 315 316 316 316 316 316 317 317 318 318 318 319 319 319 319 320 320 320 319 319 320 320 320 320 321 321 321 320 319 319 319 317
310 310 310 310 310 310 310 311 312 312 313 313 313 314 314 314 314 314 315 316 316 317 317 317 318 318 318 318 318 318 318 318 317 317 318 319 320 320 320 320 319 318
309 309 309 309 309 309 310 310 310 311 311 311 311 312 312 312 312 312 313 314 314 315 315 316 316 316 316 316 316 316 316 316 316 316 316 317 317 318 318 318 318 317
309 309 309 309 309 309 309 309 309 309 309 310 310 310 310 310 311 311 311 312 312 313 314 314 314 315 315 315 315 315 315 315 315 315 314 314 314 315 315 315 315 315
309 309 309 309 309 309 309 309 309 309 309 309 309 309 309 309 310 310 310 310 311 311 312 312 313 313 314 314 314 314 314 314 314 313 313 313 313 312 312 312 313 313
309 308 309 309 309 309 309 308 308 308 308 308 308 308 308 309 309 309 309 309 309 310 310 310 311 311 312 312 312 313 313 313 313 313 312 312 311 311 310 310 310 311
308 308 308 308 308 308 308 308 308 308 308 308 308 308 308 308 308 308 308 308 309 309 309 309 309 309 310 310 311 311 311 311 312 311 311 310 309 309 308 308 309 309
307 307 307 307 306 306 306 306 306 306 307 307 307 307 307 307 307 307 307 307 308 308 308 308 308 308 308 309 309 309 309 310 310 309 309 308 308 307 307 307 307 307
307 307 306 306 306 306 306 306 306 306 306 306 306 306 306 306 306 306 306 306 307 307 307 307 307 307 307 307 307 307 307 308 307 307 306 306 306 306 306 306 306 306
306 306 306 306 306 306 306 306 306 306 306 306 306 306 305 305 305 305 305 305 305 305 306 306 306 306 306 306 306 306 306 306 305 304 304 304 304 304 304 304 305 305
305 305 305 305 305 306 306 306 306 306 306 305 305 305 305 305 305 304 304 304 304 304 304 304 305 305 305 305 305 305 304 303 302 301 301 301 302 302 302 303 303 304
302 303 303 303 303 303 304 304 304 305 305 305 305 305 305 305 304 304 304 303 303 303 303 303 303 303 304 304 304 303 303 302 301 300 299 299 300 300 301 301 302 303
300 300 300 300 300 300 301 301 301 302 303 303 303 304 304 305 304 304 304 303 303 303 302 302 302 303 302 302 302 302 302 301 300 299 298 298 299 299 299 300 301 301
298 298 298 298 299 298 299 299 299 300 300 300 301 301 302 303 303 304 304 304 304 303 303 303 302 302 302 301 301 301 301 301 299 298 298 297 297 298 298 299 299 300
298 298 297 298 298 298 298 298 298 299 299 299 299 300 300 301 301 302 302 303 303 303 303 303 303 303 302 301 301 300 300 300 300 299 298 297 297 297 297 298 298 299
297 297 297 297 298 297 298 298 298 298 298 298 298 299 299 299 299 300 300 301 301 301 302 302 303 303 302 301 301 300 300 300 299 299 298 297 296 296 297 297 298 298
297 297 297 297 297 297 297 298 298 298 298 298 298 298 298 298 299 299 299 300 300 300 300 300 301 301 301 301 301 300 300 299 299 298 298 297 296 296 297 297 297 297
297 297 297 297 297 297 297 297 297 297 297 297 297 298 298 298 298 298 298 298 298 298 298 299 299 300 300 300 300 300 299 298 298 298 297 297 297 296 296 296 297 297
296 296 296 296 296 296 296 296 296 296 296 296 296 296 296 297 297 296 297 297 297 297 297 297 298 298 299 298 298 298 298 297 297 296 296 296 296 296 296 296 296 296
295 295 295 295 295 295 295 295 295 295 295 295 295 295 295 296 296 296 296 296 296 296 296 296 297 297 298 298 297 297 296 296 295 294 295 295 295 295 295 295 295 296
293 294 294 294 294 294 294 294 294 294 294 294 294 295 295 295 295 296 296 296 296 295 295 296 296 296 297 297 296 296 295 294 294 293 293 294 294 295 295 295 295 295
292 292 293 293 293 293 293 294 294 294 294 294 294 294 295 295 295 295 295 296 296 296 295 296 296 296 296 296 296 295 294 294 293 293 293 293 293 294 294 294 294 294
291 291 292 292 292 292 292 292 293 293 293 293 293 293 294 294 294 294 294 294 295 295 295 295 296 296 296 296 296 295 294 294 293 292 292 292 292 293 293 293 293 293
291 291 291 291 291 291 291 291 292 292 292 292 292 292 293 293 293 293 293 293 293 294 294 294 295 296 296 296 295 295 293 293 292 291 291 292 292 292 292 292 292 293
291 291 290 290 290 290 290 291 291 291 291 291 291 292 292 292 292 292 292 292 292 292 293 293 293 294 294 295 295 294 293 292 291 291 290 291 292 292 291 292 292 292

ECMWFNIL_925_thetae_093.txt.gz
Theta_e
316 316 317 317 317 317 317 317 318 318 319 319 319 319 319 318 318 319 319 319 319 319 319 319 319 320 320 321 321 322 322 323 323 323 323 323 322 322 321 321 320 319
311 312 312 312 313 313 313 312 313 313 315 316 317 317 317 317 317 317 317 317 317 317 317 317 318 318 318 319 319 319 319 320 320 320 321 321 321 321 321 321 320 319
311 310 310 310 311 311 310 311 311 311 313 314 314 314 314 314 314 314 314 314 314 315 315 316 316 316 316 317 317 317 318 318 318 318 318 319 319 319 319 319 319 319
310 310 310 310 310 310 310 310 310 311 312 312 312 312 311 311 311 311 311 311 311 312 312 313 314 314 315 315 315 315 316 316 316 316 316 316 316 317 317 317 317 317
309 309 309 309 309 309 309 309 308 309 309 310 310 309 309 309 309 309 309 310 310 310 311 311 311 311 312 312 313 313 313 313 313 314 314 314 314 314 314 315 315 315
308 308 308 308 308 308 308 307 307 307 307 307 307 308 308 308 308 308 308 308 308 309 309 309 309 309 309 310 310 310 310 310 310 311 311 311 311 311 311 312 312 313
307 307 307 307 307 307 307 307 307 307 307 307 307 307 307 307 307 307 307 307 307 307 307 307 308 308 308 308 308 307 307 308 308 308 308 308 308 309 309 309 310 310
306 306 306 306 306 306 307 307 307 307 306 307 306 306 306 306 306 306 306 306 306 306 306 306 306 306 306 306 306 306 306 306 306 306 306 306 306 306 307 307 307 307
306 306 306 306 306 306 306 306 306 306 306 306 305 305 305 305 305 305 305 305 305 305 305 305 305 305 305 305 305 305 305 305 304 304 304 304 304 304 304 304 305 305
306 305 305 306 306 306 306 306 306 306 305 305 305 305 305 305 305 305 305 305 305 305 305 304 304 304 304 304 304 304 304 304 304 303 303 302 302 302 302 302 303 303
303 303 303 303 303 303 303 303 303 303 303 303 303 304 304 304 304 304 304 304 304 304 304 304 304 303 303 303 303 303 302 303 303 302 302 301 301 301 300 300 300 301
300 300 300 300 300 300 300 300 300 300 300 300 300 301 301 301 301 301 302 302 302 302 303 303 303 302 302 302 301 301 301 301 301 301 301 301 301 300 299 299 299 299
299 299 299 299 298 299 298 298 298 299 298 299 299 299 299 299 299 299 300 300 300 301 301 301 301 301 301 301 301 300 300 300 300 300 300 300 300 299 299 298 298 298
298 297 297 297 297 297 297 297 297 297 297 297 297 297 298 298 298 298 298 298 298 299 299 299 300 300 300 301 300 300 299 299 299 299 300 300 300 300 299 299 298 298
297 297 296 296 296 296 296 296 296 296 296 296 296 296 296 296 296 296 297 297 297 297 298 298 298 298 299 300 300 300 299 299 299 299 299 300 300 301 301 301 300 300
296 296 296 296 296 295 295 295 295 295 295 295 295 295 295 295 295 295 296 296 296 296 296 296 296 297 298 299 299 299 299 298 298 298 299 299 299 300 301 301 301 300
295 295 295 295 295 295 295 295 295 294 294 294 294 294 294 294 294 295 295 295 295 295 295 295 295 295 296 297 298 298 298 297 297 297 298 298 298 298 299 300 300 300
295 295 294 294 294 294 294 294 294 294 294 294 294 294 294 294 294 294 294 294 294 294 294 294 294 294 295 295 296 297 297 297 296 296 296 296 296 296 297 297 298 298
294 294 294 294 294 293 293 293 293 293 293 293 293 293 293 293 293 293 293 293 292 293 293 293 293 293 293 293 294 295 296 296 296 296 296 295 295 295 295 295 296 296
293 293 293 293 292 292 292 292 292 292 292 292 292 291 291 291 291 291 291 291 291 291 291 291 292 292 292 292 292 293 294 294 294 295 295 295 295 294 294 295 294 294
292 292 291 291 291 291 291 291 291 291 291 291 290 290 290 290 290 290 290 290 290 290 290 290 290 290 291 291 291 291 292 293 293 293 294 293 294 294 294 294 294 294
290 290 290 290 289 289 290 290 290 290 290 289 289 289 289 289 289 289 289 289 289 289 289 290 290 290 290 290 290 290 291 291 291 292 292 293 293 293 293 294 294 294
288 288 288 288 288 288 289 289 289 289 289 288 288 288 288 289 289 289 289 289 289 289 289 289 290 290 290 289 290 290 290 290 291 291 291 292 292 292 293 293 293 293
286 286 286 287 287 288 288 288 288 288 288 288 288 288 288 288 288 289 289 289 289 289 289 289 290 290 290 289 289 289 289 289 290 290 290 291 291 292 292 292 293 293
285 286 286 287 287 287 287 288 288 288 288 288 288 288 288 288 288 288 289 289 289 289 289 289 289 289 290 290 289 289 289 289 289 289 290 290 290 291 291 292 292 292
286 286 287 287 288 288 288 288 288 288 288 288 288 288 288 288 288 288 288 289 289 289 289 289 289 289 289 289 289 289 289 289 289 289 289 289 290 290 290 291 291 292

ECMWFNIL_925_thetae_096.txt.gz
Theta_e
320 320 319 319 319 319 318 318 317 317 318 318 318 318 318 318 318 318 317 317 317 317 317 317 317 317 317 316 317 317 318 318 319 319 320 320 320 320 320 321 321 321
316 316 316 316 316 316 316 314 313 312 313 313 313 314 315 315 315 314 314 313 313 313 313 313 313 314 314 314 314 314 315 315 315 316 316 317 318 318 318 318 319 319
314 314 313 313 314 314 313 312 311 311 311 311 312 312 312 311 311 310 310 310 310 310 310 310 311 311 311 312 312 313 313 314 314 314 314 314 314 315 315 316 316 316
311 310 310 310 311 310 310 310 310 310 310 310 311 310 310 309 309 309 309 309 309 309 309 309 309 309 309 309 309 310 310 311 311 311 312 312 312 312 313 313 313 313
308 309 309 309 309 309 309 308 308 308 308 308 308 308 307 307 308 308 307 307 307 307 307 307 308 307 307 307 307 307 307 307 307 307 307 307 307 308 308 308 309 309
308 308 308 308 308 308 308 307 307 306 306 306 306 306 307 306 307 306 306 306 306 306 306 306 306 306 306 306 306 306 306 305 305 304 304 304 304 304 304 305 305 306
308 308 307 307 307 307 307 306 306 306 306 305 306 306 306 306 306 306 306 305 305 305 305 305 305 305 304 304 304 304 304 304 304 303 303 303 303 303 303 303 303 303
306 306 306 306 306 306 306 306 306 305 305 305 305 305 305 305 305 305 304 304 304 304 304 304 303 303 303 303 303 303 303 303 302 302 302 302 302 302 302 301 301 301
305 305 305 305 306 305 305 305 304 304 304 304 303 303 302 302 301 301 301 301 301 301 301 301 301 301 301 301 301 301 301 301 301 301 301 301 301 301 301 301 300 300
304 304 304 304 303 302 302 301 301 300 300 300 300 299 299 299 298 298 298 298 298 298 299 298 298 298 299 299 299 300 299 299 299 299 299 299 299 299 299 299 298 298
301 301 301 300 299 299 299 298 298 298 298 298 297 297 297 297 297 297 297 297 297 297 297 297 297 297 297 298 298 298 298 298 298 298 298 298 298 298 298 298 297 297
299 298 298 298 297 297 297 297 297 296 296 296 296 296 296 295 295 295 295 295 295 295 295 295 295 295 296 296 297 297 297 297 298 298 298 298 298 298 298 298 298 297
297 297 297 296 296 296 295 295 295 295 295 295 295 295 294 294 294 294 294 294 294 294 294 294 294 294 294 295 295 296 296 296 296 296 296 296 296 296 296 297 297 297
296 296 296 295 295 295 295 295 294 294 294 294 294 294 294 294 294 294 294 294 293 293 293 293 293 293 293 293 293 294 294 295 295 295 295 295 295 295 295 295 295 296
295 295 295 295 294 294 294 294 294 294 294 294 294 293 293 293 293 293 293 293 293 293 292 292 292 292 292 292 292 292 292 293 293 293 293 293 293 293 293 293 294 294
295 294 294 294 294 293 293 293 293 293 293 293 293 293 293 293 293 293 292 292 292 292 292 292 291 291 291 291 291 291 291 291 291 291 291 291 292 292 292 292 292 292
294 294 293 293 293 293 293 293 293 293 293 293 293 293 292 292 292 292 292 291 291 291 291 291 291 290 290 290 290 290 290 290 290 290 290 290 290 291 291 291 291 291
293 293 293 293 293 292 292 292 292 292 292 292 292 292 291 291 291 291 290 290 290 290 290 290 290 290 290 289 289 289 289 289 289 289 289 289 290 290 290 290 290 291
292 293 292 292 292 292 292 292 292 292 291 291 291 291 290 290 290 290 290 289 289 289 289 289 289 289 289 289 289 289 289 289 289 289 289 289 289 289 289 290 290 290
292 292 292 291 291 291 291 291 291 290 290 290 289 289 289 289 289 289 289 289 289 288 288 289 289 289 289 289 289 289 289 289 289 289 289 289 289 289 289 289 289 290
291 291 290 290 290 290 290 290 290 289 289 289 289 288 288 288 288 288 288 288 288 288 288 288 288 288 288 288 288 288 288 288 288 288 288 288 289 289 289 289 289 289
290 290 290 289 289 289 289 289 289 288 288 288 288 288 288 288 288 288 288 288 288 288 288 288 289 288 288 288 288 288 288 288 288 288 288 288 288 288 288 288 288 289
289 289 289 289 289 289 288 288 288 288 287 287 287 288 288 288 288 288 288 288 288 288 288 288 288 288 288 288 288 288 288 288 287 288 288 288 288 288 288 288 288 288
288 288 288 288 288 288 288 287 287 287 287 287 287 287 288 288 287 288 288 288 288 288 288 287 288 288 287 287 287 287 287 287 287 287 287 287 287 287 287 287 287 288
287 288 287 288 287 287 286 286 287 287 287 287 287 287 287 287 287 287 287 288 287 287 287 287 287 287 287 287 286 286 286 286 286 287 287 287 287 287 287 287 287 287
287 287 287 287 286 286 286 286 286 287 287 287 287 287 287 287 287 287 287 287 287 287 287 287 286 286 287 286 286 285 285 285 286 286 286 287 286 287 287 287 287 287

ECMWFNIL_925_thetae_099.txt.gz
Theta_e
324 324 324 324 323 322 321 321 321 321 320 319 318 318 318 317 317 316 315 315 313 312 312 312 312 311 310 310 310 310 311 311 312 312 312 312 313 313 313 313 313 313
322 321 320 320 319 318 318 317 316 316 315 315 314 314 315 314 313 312 311 310 309 309 309 309 309 308 307 307 308 308 309 308 308 308 308 309 310 310 310 310 310 310
317 316 316 317 316 316 315 314 313 313 312 312 311 311 311 309 309 308 308 308 307 307 307 307 306 306 306 306 306 306 306 306 305 305 305 305 306 306 306 306 306 306
315 315 315 315 315 314 313 312 311 311 311 310 309 308 308 307 307 307 306 306 306 306 306 305 305 305 305 305 305 305 305 305 305 304 303 303 303 303 303 303 303 302
313 313 312 312 311 310 310 310 309 309 308 308 307 307 307 307 306 306 306 306 305 305 305 304 304 304 304 303 303 303 303 303 302 302 301 300 300 301 301 301 301 300
310 309 309 309 308 308 308 308 307 307 307 307 307 307 306 306 306 305 304 304 303 302 302 301 300 300 300 300 300 300 300 299 299 298 298 297 297 298 298 298 298 298
307 307 308 307 307 307 307 307 306 306 306 306 306 305 304 303 302 302 301 300 300 299 298 298 297 297 297 297 296 296 296 296 296 295 295 295 295 295 296 296 296 296
306 306 306 306 306 306 306 306 306 305 304 304 302 301 301 300 299 298 298 297 297 296 296 295 295 295 295 295 294 294 294 294 294 294 294 294 294 294 294 294 295 294
305 305 305 306 306 305 305 304 303 302 301 300 299 298 298 297 297 296 296 295 295 294 294 294 294 294 294 294 293 293 293 293 293 294 294 294 293 293 293 293 293 293
305 305 305 304 303 302 301 300 299 299 298 297 297 296 296 295 295 295 294 294 294 294 294 294 293 293 293 293 293 292 292 292 292 292 292 292 292 292 292 292 292 292
303 303 301 300 299 298 298 297 297 296 296 296 295 295 295 294 294 294 294 294 294 293 293 293 292 292 292 292 291 291 291 291 291 291 291 291 291 291 291 291 291 291
300 299 298 297 297 296 296 295 295 295 295 294 294 294 294 294 294 294 293 293 293 292 292 292 292 291 291 291 291 291 290 290 290 290 290 290 290 290 290 290 290 290
297 296 296 296 295 295 295 295 294 294 294 294 294 293 293 293 293 293 292 292 292 292 292 291 291 291 290 290 290 290 290 289 289 289 289 289 289 289 289 289 289 289
295 295 295 294 294 294 294 294 294 294 294 293 293 293 293 292 292 292 292 292 291 291 291 290 290 290 290 289 289 289 289 289 289 289 289 289 289 289 289 289 289 289
294 294 294 294 294 294 293 293 293 293 293 292 292 292 292 292 291 291 291 291 291 291 290 290 290 289 289 289 289 289 289 289 288 288 288 288 288 289 288 288 288 288
294 294 294 293 293 293 293 293 292 292 292 291 292 291 291 291 290 290 290 290 290 290 290 290 289 289 289 289 289 289 288 288 288 288 288 288 288 288 288 288 288 288
293 293 293 293 293 292 292 292 292 291 291 291 291 290 290 290 290 290 290 289 290 289 289 290 289 289 289 288 288 288 288 288 288 287 288 287 287 287 287 287 287 287
293 293 292 292 292 292 291 291 291 291 290 290 290 290 290 290 289 289 289 289 289 289 289 289 288 288 288 288 288 287 287 287 287 287 287 287 287 287 287 287 287 287
292 292 292 291 291 291 291 290 290 290 290 289 289 289 289 289 289 289 289 288 288 288 288 288 288 288 287 287 287 287 286 286 286 286 286 286 286 286 286 286 286 286
291 291 291 291 290 290 290 290 290 289 289 289 289 288 288 289 288 288 288 288 288 288 288 287 287 287 286 286 286 286 285 285 285 285 285 285 285 285 285 285 285 286
290 291 290 290 290 290 289 289 289 289 288 288 288 288 288 288 288 288 288 288 287 287 287 287 286 286 286 285 285 285 285 285 284 284 284 285 285 285 285 285 285 285
290 290 290 289 289 289 289 288 288 288 288 288 288 287 287 287 287 287 287 287 287 286 286 286 286 286 285 285 285 284 284 284 284 284 284 284 284 284 284 284 284 284
290 289 289 289 288 288 288 288 287 287 287 287 287 287 287 287 287 287 286 286 286 286 286 285 285 285 285 285 284 284 283 283 283 283 283 283 283 283 283 284 284 284
289 289 289 288 288 288 287 287 287 286 286 286 286 286 286 286 286 286 286 286 286 285 285 285 284 284 284 284 283 282 282 282 282 282 282 282 283 283 283 283 284 284
288 288 288 288 287 287 287 286 286 285 285 285 285 285 285 286 286 286 286 286 285 285 284 284 284 283 283 283 283 281 281 281 281 282 282 282 282 282 283 282 282 282
288 287 287 287 287 286 286 286 285 285 285 284 284 285 285 285 285 285 285 285 285 285 284 284 283 283 282 281 281 280 280 280 281 281 281 281 282 282 281 281 281 281

ECMWFNIL_925_thetae_105.txt.gz
Theta_e
332 332 332 331 330 329 329 327 327 326 325 324 323 322 321 320 320 318 317 315 313 312 310 310 310 308 307 307 306 306 305 304 303 303 302 301 300 298 297 296 295 295
331 331 331 330 329 327 327 326 325 325 323 322 321 320 319 318 318 316 314 312 310 309 308 307 307 306 306 305 303 302 300 299 298 297 297 296 295 294 293 293 293 293
330 330 329 329 328 326 325 324 323 323 322 320 319 318 317 317 315 313 310 309 308 307 307 306 305 304 302 301 299 297 296 295 294 294 294 293 293 293 293 292 292 292
327 328 327 327 326 325 324 323 322 321 319 318 317 317 316 314 312 309 308 307 306 306 305 303 301 300 298 297 295 295 294 293 293 293 293 293 292 292 292 292 291 291
326 326 325 325 324 324 323 322 321 318 316 316 315 314 313 310 308 307 306 306 305 303 301 299 297 296 295 294 294 293 293 293 292 292 292 292 291 291 291 290 290 290
324 324 323 323 322 322 321 319 318 316 314 313 312 310 309 307 306 306 305 303 301 299 297 295 295 294 293 293 293 293 292 292 292 291 291 290 290 290 290 289 289 289
322 321 321 321 320 320 319 316 314 313 312 310 309 307 306 306 305 303 301 299 297 295 294 294 293 293 293 292 292 292 291 291 290 290 290 290 289 289 289 289 289 288
320 320 319 319 318 316 314 312 312 311 309 307 306 305 304 303 301 299 297 295 294 294 293 293 293 292 292 292 291 291 291 290 290 290 289 289 289 289 288 288 288 288
318 317 316 316 314 312 311 310 309 307 306 305 304 303 301 299 297 296 294 294 293 293 293 292 292 292 291 291 291 291 290 290 290 289 289 289 288 288 288 288 287 287
315 314 313 312 311 310 309 308 306 304 304 303 302 299 297 295 294 294 293 293 293 292 292 292 291 291 291 290 290 290 290 290 289 289 288 288 288 287 287 287 287 287
312 312 311 310 309 308 306 305 304 303 301 300 298 296 295 294 293 293 293 293 292 292 291 291 290 290 290 290 290 290 289 289 289 288 288 287 287 287 287 286 286 286
310 309 309 308 307 305 304 303 301 300 298 296 295 294 294 293 293 292 292 292 292 291 290 290 290 290 290 290 289 289 289 288 288 288 287 287 287 286 286 286 286 286
308 307 306 305 304 303 302 300 298 296 295 294 294 293 293 292 292 292 291 291 290 290 290 290 290 290 289 289 289 288 288 287 287 287 287 287 287 286 286 286 286 285
305 304 303 303 302 300 298 297 295 294 294 293 293 292 292 292 292 291 290 290 290 290 290 289 289 289 288 288 288 287 287 287 287 287 287 286 286 286 286 286 285 285
302 301 301 300 299 297 295 295 294 293 293 293 292 292 292 291 291 290 290 290 290 289 289 289 288 288 288 287 287 287 287 287 287 286 286 286 286 286 286 285 285 285
300 300 299 297 296 295 294 293 293 293 292 292 292 291 291 290 290 290 289 289 289 289 289 288 288 287 287 287 287 287 287 286 286 286 286 285 285 285 285 285 285 284
298 297 296 295 294 294 293 292 292 292 292 291 291 290 290 290 289 289 289 289 289 288 288 287 287 287 286 286 286 286 286 286 286 285 285 285 285 284 284 284 284 284
296 295 294 294 293 293 292 292 291 291 291 291 290 290 289 289 289 289 289 288 288 288 287 287 287 286 286 286 286 286 286 285 285 285 285 284 284 284 284 283 283 282
295 294 293 293 292 292 291 291 291 291 291 290 290 289 289 289 289 289 288 288 287 287 287 287 286 286 286 286 285 285 285 284 284 284 284 284 283 283 282 282 281 281
293 293 293 292 291 291 291 291 291 290 290 289 289 289 289 289 288 288 288 287 287 287 287 286 286 286 286 285 285 284 284 284 284 284 284 283 283 282 282 281 280 280
293 292 292 291 290 290 290 290 290 290 289 289 289 288 288 288 288 287 287 287 287 287 286 286 286 285 285 285 284 284 284 284 284 284 284 283 282 281 281 280 280 280
292 291 291 290 290 290 290 289 289 289 289 288 288 288 288 287 287 287 287 286 286 286 286 286 285 285 285 284 284 284 284 284 283 283 283 282 281 281 280 280 280 279
291 291 290 290 290 289 289 289 289 289 288 288 288 287 287 287 287 287 286 286 286 286 285 285 285 284 284 284 284 284 284 284 283 283 282 281 280 279 279 279 279 278
290 291 290 290 289 289 289 288 288 288 287 287 287 287 287 286 286 286 286 285 285 285 285 285 284 284 284 283 283 283 283 283 282 281 280 279 278 278 278 278 278 277
290 290 290 290 289 289 288 288 288 287 287 287 287 287 286 286 286 285 285 285 285 284 284 284 284 284 283 283 283 283 282 282 281 279 278 277 276 276 276 277 277 277
289 290 290 289 289 288 288 288 287 287 287 286 286 286 286 285 285 285 285 284 284 284 284 283 283 283 283 283 283 283 281 280 279 278 277 276 276 275 275 276 276 276

ECMWFNIL_925_thetae_108.txt.gz
Theta_e
331 332 331 332 331 331 331 330 329 329 328 327 327 326 324 323 323 322 322 321 320 317 315 312 311 309 307 307 306 305 304 302 301 299 298 296 294 293 293 293 292 292
331 331 331 331 331 330 330 330 329 329 328 327 326 325 323 322 322 321 321 320 317 313 310 309 308 306 305 303 301 299 298 297 295 294 294 293 293 293 292 292 291 291
330 330 331 330 330 330 330 329 328 328 327 326 324 323 322 321 320 320 319 316 312 309 307 306 305 303 301 299 297 295 295 294 294 293 293 293 292 292 291 291 291 290
330 330 330 331 331 330 329 328 327 326 325 324 322 322 321 320 319 318 315 311 308 307 306 304 302 299 297 295 294 294 294 293 293 293 292 292 291 291 291 290 290 289
329 330 330 330 330 329 328 327 325 324 323 322 321 320 319 318 317 315 311 308 306 305 304 301 299 296 294 294 294 294 294 293 292 292 292 292 291 291 290 289 289 289
329 329 329 329 329 328 327 325 324 323 322 322 321 319 318 316 314 310 307 306 305 303 300 298 295 294 293 293 293 293 293 292 292 291 291 291 290 290 289 289 289 288
328 328 327 327 327 326 326 324 323 322 322 321 319 317 316 313 309 307 305 304 302 299 296 294 294 293 293 293 293 293 292 291 291 290 290 290 289 289 289 288 288 287
326 326 326 325 324 324 323 322 322 322 321 319 316 315 312 309 306 305 303 300 297 295 294 293 293 293 293 292 292 292 291 291 290 290 290 289 289 289 288 288 288 287
324 324 324 323 323 322 321 321 321 320 318 316 313 311 308 306 304 302 299 297 295 294 293 293 293 292 292 291 291 291 291 290 290 290 289 289 288 288 288 288 287 287
323 322 322 321 321 320 320 320 319 317 315 312 310 307 305 303 301 298 296 294 293 293 293 293 292 292 291 290 290 290 290 290 289 289 289 288 288 288 288 287 287 287
320 320 319 319 319 319 319 318 315 313 311 308 306 304 303 300 297 295 294 293 293 293 292 292 291 291 290 290 290 290 290 289 289 288 288 288 288 288 287 287 287 287
318 318 318 318 318 317 316 314 312 309 306 305 304 302 299 296 294 293 293 293 292 292 292 291 290 290 290 290 290 289 289 289 288 288 288 288 287 287 287 287 286 286
316 316 316 316 316 314 312 310 308 305 303 302 301 298 296 294 293 292 292 292 292 291 290 290 290 290 289 289 289 289 288 288 288 288 287 287 287 287 286 286 286 286
314 314 314 313 312 310 309 306 304 302 301 300 297 295 294 293 292 292 291 291 291 290 290 290 289 289 289 288 288 288 288 288 288 287 287 287 287 286 286 286 286 286
312 311 311 310 309 307 305 303 301 300 299 296 294 293 293 292 292 292 291 290 290 289 289 289 288 288 288 288 288 288 288 288 287 287 287 287 286 286 286 286 286 285
309 308 307 306 305 303 301 300 300 298 295 294 293 292 292 291 291 291 290 290 290 289 289 288 288 288 288 288 288 287 287 287 287 287 287 286 286 286 286 285 285 285
306 305 304 303 302 301 300 298 297 295 293 292 292 291 291 291 290 290 290 289 289 289 288 288 288 287 287 287 287 287 287 287 286 286 286 286 286 286 285 285 285 285
303 302 301 300 299 298 297 296 294 293 292 291 291 290 290 289 289 289 289 288 288 288 287 287 287 287 287 287 287 286 286 286 286 286 286 286 285 285 285 285 284 284
300 300 299 298 297 296 295 293 292 291 291 290 290 290 289 289 289 288 288 288 288 287 287 287 287 286 286 286 286 286 286 286 286 286 285 285 285 284 284 284 284 283
298 298 297 295 294 294 293 291 291 290 290 290 289 289 288 288 288 288 288 287 287 287 287 286 286 286 286 286 286 286 286 285 285 285 285 285 284 284 284 283 283 282
297 296 295 293 292 292 291 290 290 290 289 289 289 288 288 288 288 288 287 287 286 286 286 286 286 285 285 285 286 286 285 285 285 285 284 284 284 283 283 283 282 280
296 294 293 292 291 290 290 290 290 289 289 289 288 288 288 287 287 287 287 286 286 286 286 286 285 285 285 285 285 286 285 285 284 284 284 283 283 283 282 282 281 279
294 293 292 291 290 290 289 289 289 289 289 288 288 287 287 287 287 286 286 286 286 285 285 285 285 284 284 285 285 285 285 284 284 283 283 283 282 282 282 281 280 279
293 292 292 291 290 289 289 289 289 289 288 288 288 287 287 287 286 286 285 285 285 285 285 285 285 284 284 284 284 285 284 284 284 283 282 282 282 282 281 281 279 278
292 291 291 290 289 289 289 289 289 288 288 287 287 287 287 286 286 286 285 285 285 285 284 284 284 284 284 284 284 284 284 284 283 283 282 281 281 281 280 279 279 278
291 291 290 289 289 289 289 289 289 288 287 287 287 287 287 286 285 285 285 284 284 284 284 284 284 284 284 283 283 283 283 283 283 282 282 281 280 279 279 279 278 276

ECMWFNIL_925_thetae_111.txt.gz
Theta_e
330 331 330 330 331 331 331 331 331 331 330 329 327 326 327 326 325 324 322 321 321 321 319 318 317 316 314 312 310 310 309 305 301 297 295 294 294 293 293 293 292 291
330 330 330 330 331 331 331 331 331 331 330 329 327 326 327 326 325 324 322 321 321 321 320 318 316 313 310 308 307 305 302 299 296 294 293 293 293 293 292 292 291 290
330 330 330 331 330 330 330 331 331 330 329 328 327 326 326 325 324 322 322 322 321 321 319 316 312 309 306 305 302 299 297 295 294 293 293 293 292 292 291 291 290 290
330 330 330 330 330 331 331 330 330 329 329 328 326 325 325 324 323 322 322 321 321 320 316 312 308 305 302 299 297 295 294 294 293 293 293 292 292 291 291 290 290 289
329 330 330 330 330 330 330 330 330 328 328 328 326 325 324 323 323 322 321 320 319 316 311 307 304 301 297 295 294 294 294 293 293 293 293 292 291 290 290 289 289 289
328 328 328 329 329 329 330 330 329 328 328 327 325 324 323 322 322 321 320 319 315 311 307 304 300 296 294 294 294 294 293 293 293 292 292 291 290 290 289 288 289 288
327 327 327 328 328 329 329 329 328 327 327 326 324 323 322 322 321 319 318 316 311 307 304 301 296 294 293 293 293 293 293 293 292 291 291 291 289 289 288 288 288 288
327 327 327 327 327 327 327 328 327 327 326 324 323 321 321 320 320 318 316 312 307 305 302 297 294 293 293 293 293 293 292 292 291 291 291 290 289 289 288 288 288 288
326 326 326 326 326 325 326 327 327 326 325 323 322 321 320 319 319 316 312 308 305 302 298 294 293 293 292 292 293 293 292 291 290 290 290 289 289 288 288 288 287 287
324 325 325 324 324 325 325 325 325 325 323 321 321 321 319 318 315 312 308 305 303 299 294 292 292 292 292 292 292 292 292 291 290 289 289 288 288 288 288 287 287 287
323 323 323 323 323 324 323 322 322 322 322 320 321 320 318 315 311 307 305 302 298 295 293 292 292 292 292 291 291 291 291 290 289 288 288 288 288 288 287 287 287 287
320 321 321 322 322 321 321 320 320 321 321 319 319 318 315 312 307 304 301 298 295 293 292 292 292 292 292 291 291 290 289 289 289 288 288 288 288 287 287 287 287 287
319 319 320 321 321 320 319 319 320 320 319 318 316 315 312 307 303 300 298 295 293 292 292 292 291 291 291 291 290 289 289 289 288 288 288 287 287 287 287 287 287 286
318 318 318 320 321 320 319 318 318 317 316 315 313 311 307 303 300 297 294 293 292 292 291 291 291 290 290 290 289 289 288 288 288 288 287 287 287 287 286 286 286 286
315 315 316 317 318 317 317 317 316 314 313 311 309 306 303 300 297 295 292 292 291 291 290 290 290 290 289 289 289 288 288 288 287 287 287 287 287 286 286 286 286 286
313 313 314 314 315 315 314 314 313 311 309 307 304 302 299 297 294 293 292 291 290 290 289 289 289 289 289 288 288 288 288 288 287 287 287 287 286 286 286 286 286 286
312 312 313 313 312 312 311 310 309 307 305 302 300 298 296 294 292 291 291 290 290 289 289 289 288 288 288 288 287 287 287 287 287 287 286 286 286 286 286 286 285 285
311 311 310 310 309 308 307 307 305 303 301 299 297 295 293 292 291 290 290 289 289 289 289 288 288 288 287 287 287 287 287 287 287 287 286 286 286 286 286 286 285 285
309 308 307 306 306 306 304 303 301 299 297 296 294 293 292 290 290 289 289 289 289 288 288 288 288 287 287 287 287 287 287 286 286 287 286 286 286 285 285 285 285 285
306 305 305 304 303 303 301 299 298 296 295 293 292 291 290 290 289 289 288 288 288 288 288 287 287 287 287 287 286 286 286 286 286 286 286 286 285 285 285 285 285 285
304 303 302 302 301 300 298 297 295 294 292 291 291 290 290 289 289 288 288 288 287 287 287 287 287 287 286 286 286 286 286 286 286 286 286 285 285 285 285 285 285 284
302 301 301 300 299 297 296 294 293 292 291 290 289 289 289 288 288 288 288 287 287 287 287 287 286 286 286 286 286 286 286 285 285 285 285 285 285 285 284 284 284 284
300 300 300 299 297 295 294 293 291 290 289 289 289 288 288 288 287 287 287 287 286 286 287 287 286 286 286 286 285 285 285 285 285 285 285 285 285 284 284 284 284 284
299 299 299 297 296 294 293 291 290 289 289 288 288 288 287 287 287 286 286 286 286 286 286 286 286 286 285 285 285 285 285 285 285 285 285 285 284 284 283 283 283 283
298 298 297 297 295 293 292 290 289 289 288 288 287 287 287 286 286 286 285 285 285 285 285 286 286 285 285 285 285 285 284 284 284 284 284 284 284 284 284 283 283 283
297 296 296 295 293 291 290 289 288 288 287 287 286 286 286 286 285 285 285 285 284 285 285 285 285 285 285 285 285 284 284 284 284 284 284 284 284 284 283 283 282 281

ECMWFNIL_925_thetae_114.txt.gz
Theta_e
329 330 330 330 330 329 329 329 329 330 330 330 331 331 330 329 327 326 326 325 323 323 322 321 320 319 317 316 316 315 313 313 311 309 308 306 302 299 296 294 293 293
329 329 330 329 329 329 328 329 329 329 330 331 331 331 330 329 327 326 325 324 322 322 321 320 319 317 315 316 316 315 314 313 310 305 302 299 296 294 294 293 292 292
328 328 329 329 329 328 328 329 329 329 330 331 330 330 329 328 326 326 325 323 322 321 320 319 319 316 315 316 315 313 312 310 304 299 296 295 293 293 293 292 292 292
327 328 328 328 328 328 328 328 328 328 329 330 329 329 329 327 325 325 324 322 321 320 319 319 318 317 316 314 312 311 309 304 298 295 294 293 293 292 292 292 291 291
326 327 327 327 328 327 327 327 328 328 329 329 329 329 328 326 325 325 324 322 321 320 320 319 318 317 315 311 309 308 304 298 294 294 293 293 292 291 291 291 291 290
325 326 326 327 327 327 327 327 328 329 329 329 329 329 327 325 325 324 323 321 320 320 320 319 318 316 311 308 305 302 298 294 293 293 292 292 291 291 291 290 290 290
325 325 325 326 326 326 327 327 328 329 329 329 329 329 327 325 324 323 322 321 320 320 319 318 317 313 307 303 301 297 294 293 293 292 291 291 291 290 290 289 289 289
324 324 325 325 326 326 326 327 328 328 329 329 328 328 326 325 324 323 322 322 320 319 318 318 314 308 302 299 296 294 294 293 292 291 291 291 290 290 289 289 288 288
323 324 324 324 325 325 325 326 327 328 328 328 328 328 326 324 324 322 321 321 319 318 317 315 310 303 298 295 294 294 293 292 291 291 290 291 290 290 289 288 288 288
322 323 324 324 324 325 325 326 327 328 327 327 327 326 325 324 321 320 321 319 318 318 315 310 304 298 295 294 293 293 293 292 291 290 290 290 290 289 289 288 288 288
321 322 323 323 324 324 325 325 326 326 326 325 325 324 324 322 319 318 319 318 318 317 312 305 299 295 293 293 293 292 292 291 290 290 290 289 289 289 288 288 288 288
320 321 322 322 323 323 324 324 324 323 323 323 323 323 322 320 318 318 317 317 317 314 308 301 296 293 293 293 292 291 291 290 289 289 289 289 289 288 288 288 288 287
319 320 320 321 321 322 322 322 321 321 320 319 321 323 321 319 318 316 315 316 316 311 305 298 294 292 293 292 291 290 290 289 289 289 288 288 288 287 287 287 287 287
318 318 319 319 319 320 320 319 318 318 317 317 319 321 321 319 317 315 315 315 312 307 301 295 292 292 292 291 290 289 289 289 289 289 289 288 287 287 287 287 287 287
316 317 317 317 317 317 316 316 315 315 315 315 316 318 319 317 315 315 315 312 307 302 297 292 292 292 291 290 290 289 289 289 289 289 288 288 287 287 287 286 286 286
314 315 314 314 314 313 313 313 314 313 313 313 312 315 317 315 313 313 312 308 303 298 293 291 291 291 290 290 290 289 289 289 289 288 288 288 288 287 287 286 286 286
311 311 311 311 311 310 310 313 312 310 310 310 310 313 314 312 311 310 306 303 299 294 291 290 290 290 289 289 289 289 289 289 289 288 287 287 287 287 287 286 286 286
308 309 308 308 308 307 307 311 310 308 308 309 310 311 311 309 307 305 301 298 294 291 290 290 289 289 289 288 288 288 289 289 288 288 287 287 287 286 286 286 286 285
306 306 306 306 306 306 306 308 309 308 308 309 309 309 308 306 303 300 297 294 291 290 290 289 289 288 288 288 288 288 288 288 288 288 287 287 286 286 286 286 285 285
304 304 305 305 305 305 305 306 307 307 307 308 308 306 304 302 299 296 293 291 290 289 289 288 288 288 287 287 287 287 287 287 287 287 287 287 286 286 286 285 285 285
304 304 304 305 304 304 305 305 306 306 306 306 305 304 301 298 296 293 291 290 289 289 288 288 287 287 287 287 287 287 287 286 286 286 286 286 286 285 285 285 285 285
305 305 305 305 304 304 304 304 304 303 303 303 301 299 297 295 293 291 290 289 288 288 288 287 287 287 287 286 286 286 286 286 286 286 286 286 285 285 285 285 285 284
306 306 305 305 304 304 303 303 302 301 301 300 298 295 292 291 290 289 289 288 288 288 288 287 287 286 286 286 286 286 286 286 286 286 285 285 285 285 285 284 284 284
306 306 305 304 303 303 302 301 300 299 298 297 295 293 290 289 289 288 288 288 288 288 288 288 287 286 285 286 286 286 286 286 286 285 285 285 285 285 284 284 284 284
304 304 303 303 301 300 300 298 297 296 295 293 292 291 289 288 287 287 287 287 287 287 287 287 287 286 285 285 286 286 286 286 286 285 285 285 285 284 284 284 284 283
302 301 301 301 300 298 297 296 294 293 291 290 289 288 287 287 286 287 287 287 287 287 287 287 287 286 285 285 285 285 285 285 285 285 285 285 285 284 284 284 284 283

ECMWFNIL_925_thetae_117.txt.gz
Theta_e
331 331 331 331 332 331 331 331 330 330 330 330 330 329 330 330 330 329 330 329 328 326 326 325 323 323 324 323 322 320 318 317 316 315 315 313 311 309 309 307 302 299
330 330 330 331 331 331 331 330 330 330 330 330 330 329 330 331 330 329 330 329 327 325 324 323 323 323 323 322 321 319 316 315 315 314 312 310 308 307 306 303 298 296
330 330 329 330 331 330 331 330 330 330 330 330 329 329 330 330 330 330 330 329 327 325 324 323 322 322 321 320 319 317 315 314 313 311 309 306 305 305 302 298 295 294
329 330 329 330 330 330 331 330 330 330 330 330 329 328 330 330 330 329 328 328 327 325 323 322 322 321 320 319 317 315 314 312 309 308 307 305 305 302 297 294 293 293
328 328 329 329 329 330 330 330 329 329 329 330 329 328 329 330 330 329 327 326 327 325 323 321 320 319 318 318 316 314 312 309 307 307 306 304 302 297 294 293 293 292
327 328 328 328 329 329 330 329 328 328 329 329 328 327 328 329 329 328 327 326 325 324 322 320 319 318 318 317 314 312 310 308 307 306 304 300 297 294 293 293 292 291
326 327 327 328 328 329 329 329 328 328 328 328 327 327 327 328 328 328 327 326 325 323 321 321 319 317 317 316 313 311 308 308 307 304 299 296 294 293 293 292 291 291
324 325 326 327 328 328 329 328 328 328 327 326 326 326 327 328 328 328 326 326 325 323 321 320 319 318 317 316 314 311 308 307 305 299 295 294 293 293 292 291 291 290
323 324 325 326 326 327 328 328 327 327 326 326 326 326 327 328 328 327 325 325 324 322 321 319 318 319 318 316 315 311 309 306 301 295 293 294 293 292 291 291 290 289
322 324 325 325 326 326 327 327 327 326 326 325 326 326 326 327 326 325 325 324 322 321 319 318 318 318 317 316 314 311 308 303 296 293 293 293 292 291 291 290 290 289
322 323 323 324 324 325 325 326 326 326 325 325 325 326 326 325 324 323 323 323 321 320 319 318 318 318 316 316 313 308 304 298 293 292 293 292 292 291 290 290 289 289
320 321 322 323 323 323 324 324 324 325 325 324 325 325 324 323 322 321 322 322 321 320 319 319 319 317 316 316 311 304 298 294 292 292 292 291 291 290 290 289 289 288
319 320 321 321 322 322 323 323 323 324 324 324 324 323 323 323 321 319 321 322 321 320 319 319 318 317 316 313 306 299 294 292 292 292 291 291 290 289 289 289 288 288
317 318 319 320 320 321 321 321 321 322 322 322 322 321 321 322 321 320 319 320 320 318 317 317 317 316 314 308 300 295 292 292 292 291 291 290 289 289 288 288 287 287
314 315 317 317 318 318 318 319 319 319 319 319 319 318 318 318 317 317 318 318 317 316 316 315 315 315 312 304 296 292 292 292 291 291 290 289 289 288 288 287 287 287
311 313 315 315 315 316 316 316 316 316 316 316 315 314 314 313 312 312 315 317 317 316 316 313 311 311 308 300 294 292 292 291 291 290 289 289 288 288 287 287 287 287
311 312 313 313 314 314 314 314 314 314 313 313 312 311 311 311 310 310 313 316 316 316 316 312 309 307 302 296 292 292 292 291 290 289 289 288 288 288 287 287 287 287
310 311 311 311 312 313 313 313 312 312 311 310 310 310 310 309 309 309 311 313 315 316 315 311 306 302 297 293 292 291 291 291 290 289 289 288 288 287 287 287 287 286
309 309 308 309 310 311 311 310 310 309 309 309 309 309 309 308 308 308 310 312 315 315 312 308 303 297 293 292 291 290 290 290 290 289 288 288 287 287 287 287 287 286
307 307 307 307 307 308 308 308 308 308 308 308 308 307 306 307 307 308 309 312 313 311 308 303 299 294 292 291 290 290 289 289 289 288 288 287 287 287 287 287 287 286
306 306 306 306 305 305 305 306 306 306 305 305 306 307 306 307 307 307 309 309 308 305 302 298 295 292 291 290 290 289 288 288 288 288 287 287 287 287 286 286 286 286
306 306 305 305 304 303 303 304 304 303 303 303 303 304 304 304 304 306 307 306 302 299 298 295 291 290 290 289 289 288 288 288 287 287 287 287 286 286 286 286 286 286
306 305 305 304 303 302 302 302 302 302 302 301 302 302 302 302 303 304 303 302 299 296 294 292 290 289 289 289 288 288 287 287 287 287 286 286 286 286 286 286 285 285
305 304 304 304 303 303 303 302 301 301 301 301 302 303 303 303 303 302 299 298 297 295 293 291 290 289 288 288 287 287 287 287 286 286 286 286 285 285 285 285 285 285
304 304 303 303 303 303 303 302 301 301 301 300 300 302 302 302 301 299 296 294 293 292 290 290 289 288 287 287 287 287 286 286 286 286 285 285 285 285 285 285 285 285
303 303 303 303 304 303 302 301 301 300 299 298 298 298 299 298 296 295 293 291 289 289 288 288 289 288 287 286 286 286 286 286 286 286 286 285 285 285 285 284 284 284

ECMWFNIL_925_thetae_120.txt.gz
Theta_e
331 331 330 330 330 330 329 330 330 331 331 330 330 330 330 330 331 331 332 332 331 330 330 329 328 327 327 327 326 326 325 324 324 323 322 321 320 319 318 317 315 314
331 331 331 330 330 330 329 329 329 331 331 330 330 330 330 330 330 331 331 331 331 330 329 328 327 327 326 326 326 325 325 324 322 321 320 319 319 318 316 315 313 312
331 331 331 330 330 330 330 329 329 330 331 330 330 330 330 330 329 329 329 330 329 329 328 328 327 326 326 325 325 324 324 323 320 320 319 318 317 316 314 313 311 309
330 330 330 330 330 330 330 330 329 330 331 330 330 330 330 330 329 328 329 329 329 329 329 328 327 326 325 324 323 322 321 321 320 319 318 317 315 314 312 311 308 305
329 330 330 330 330 329 329 330 330 330 330 330 330 330 330 329 329 328 328 328 329 329 328 327 326 325 325 324 322 321 320 319 318 318 317 315 314 313 311 308 305 302
328 329 329 329 329 329 329 329 330 330 330 330 329 329 329 329 328 328 328 328 328 328 327 326 325 324 324 323 321 320 319 319 318 317 316 314 312 310 308 306 303 299
327 327 328 328 328 329 329 329 330 330 330 329 329 329 330 329 328 328 327 327 327 326 326 326 324 323 322 320 319 319 318 318 317 316 314 312 310 307 305 303 301 297
327 327 327 328 328 328 328 329 329 330 330 329 330 330 329 329 329 328 326 326 326 325 325 325 323 323 321 320 319 318 317 317 316 314 311 308 306 304 302 300 298 295
326 327 327 327 328 328 328 329 329 329 330 329 329 329 329 329 328 327 326 325 325 325 324 324 322 320 320 320 319 318 317 316 314 311 309 306 303 301 299 297 295 293
325 326 326 326 327 327 328 328 328 329 329 329 329 328 328 328 328 327 326 325 324 323 323 322 321 319 318 318 318 318 318 316 313 310 307 305 302 299 297 294 293 292
323 324 324 325 325 326 327 327 328 328 328 328 328 328 327 327 327 326 325 324 323 322 322 321 320 319 318 317 317 317 318 316 312 309 306 303 300 297 294 293 292 292
319 320 321 321 322 323 324 325 326 327 328 328 327 327 327 326 325 325 324 322 321 321 321 321 320 318 318 317 317 316 316 315 312 308 305 301 297 294 293 292 292 292
316 317 318 319 320 321 322 323 324 325 326 326 327 327 326 325 324 324 322 321 320 321 321 320 319 318 317 317 317 315 315 314 310 306 302 297 294 292 292 291 291 291
314 315 317 319 320 322 322 322 323 324 324 325 325 325 326 325 324 323 321 319 319 319 320 320 319 317 317 317 317 315 314 311 308 304 299 294 292 291 291 290 290 290
312 314 316 318 319 320 320 321 322 323 323 323 323 323 324 324 323 322 319 317 316 316 317 318 319 319 318 318 317 316 312 309 306 301 295 292 291 290 289 289 289 289
309 312 314 316 317 318 318 319 320 320 321 321 321 320 321 321 320 318 317 316 316 316 316 316 318 319 319 318 318 316 312 307 302 297 293 291 291 290 289 289 288 288
307 309 310 312 314 315 316 317 317 318 318 318 318 318 318 318 317 316 315 315 315 316 316 315 315 316 317 317 316 314 311 307 300 294 292 291 290 290 289 288 288 288
306 307 308 309 311 313 314 315 315 315 315 315 315 316 315 315 314 314 313 313 313 313 312 311 311 312 314 315 314 311 309 306 299 294 292 291 290 290 289 289 288 288
307 308 308 309 310 311 312 313 313 313 313 313 313 313 312 312 311 311 311 311 311 310 309 309 311 313 313 313 312 309 306 301 296 293 292 290 289 289 289 289 289 288
307 308 308 309 309 310 310 311 311 311 311 311 310 310 309 309 309 309 308 308 308 309 309 309 311 313 312 311 310 307 302 296 293 292 291 290 289 289 289 289 289 288
307 307 307 307 308 308 308 309 309 309 309 309 309 308 308 308 308 308 308 307 307 307 307 307 308 310 309 307 305 302 296 292 291 291 290 289 289 289 289 289 289 288
307 306 305 305 306 306 306 306 306 307 308 308 307 307 306 306 307 307 307 307 306 305 305 306 306 307 306 302 299 296 292 290 290 290 289 289 288 288 288 288 288 288
306 306 304 304 304 304 304 304 304 305 306 306 306 305 305 305 305 305 305 305 304 304 305 306 305 304 302 299 295 292 290 289 289 289 288 288 288 288 288 287 287 287
306 305 304 304 303 303 303 303 303 303 303 303 303 303 303 303 303 302 302 302 302 302 303 306 306 303 299 295 293 291 290 289 289 288 288 288 287 287 287 287 287 287
306 305 304 304 304 303 303 303 302 302 302 302 301 302 302 301 301 300 299 299 300 300 301 303 304 300 294 291 291 290 289 289 289 288 288 287 286 286 285 286 286 286
306 305 304 304 304 304 303 302 301 301 300 300 299 299 300 300 299 298 298 297 297 298 298 299 299 298 293 290 289 289 288 289 289 288 287 287 286 286 285 285 285 286

ECMWFNIL_925_thetae_123.txt.gz
Theta_e
330 330 330 330 330 330 330 330 330 331 331 331 331 331 331 331 331 332 332 332 332 332 332 331 331 330 329 329 328 328 328 328 327 326 325 324 324 324 324 323 321 319
330 330 330 329 330 329 330 330 330 330 330 330 330 330 330 330 330 331 331 331 331 331 331 331 330 330 329 329 329 329 328 327 327 326 324 323 323 324 324 323 320 318
331 331 331 330 330 329 329 329 329 330 330 330 330 330 330 329 329 329 329 329 329 330 331 331 330 330 330 329 329 328 328 327 326 325 325 324 323 323 324 322 319 317
331 331 331 330 330 330 329 329 329 329 329 329 330 329 329 329 329 329 329 329 329 329 330 330 330 330 330 329 329 328 328 327 326 326 325 324 323 323 323 321 318 317
330 331 331 330 331 330 330 329 329 329 329 329 329 329 329 329 329 329 329 329 329 329 330 330 330 330 329 329 328 327 327 326 325 325 323 322 322 322 322 320 318 317
330 330 330 330 331 330 330 329 329 329 329 329 329 329 329 329 329 329 329 329 329 329 330 330 330 329 329 329 328 326 326 325 325 324 322 322 321 320 320 319 318 316
329 330 330 330 330 330 330 330 330 329 329 329 329 329 329 329 329 329 329 329 329 329 329 330 329 328 328 328 327 326 325 325 324 323 322 321 321 319 318 317 316 314
328 329 329 329 330 330 330 330 329 329 329 329 329 329 329 329 329 330 329 329 329 328 328 329 328 327 327 327 326 325 325 324 323 322 321 320 319 317 316 315 314 313
327 327 328 328 329 329 329 329 329 329 329 328 329 329 329 329 329 329 329 329 329 328 327 328 327 326 326 326 325 325 324 323 322 321 320 319 318 317 316 315 313 312
324 325 327 327 327 328 328 328 328 328 328 328 329 329 329 329 329 329 329 329 328 328 327 327 326 325 324 325 325 325 324 323 322 320 318 318 318 318 317 315 313 312
322 324 326 326 326 327 327 327 327 328 328 328 328 329 328 329 329 329 329 328 328 328 327 326 325 323 323 323 323 323 323 323 321 320 318 318 318 317 316 314 312 310
322 323 325 325 326 326 326 327 327 327 328 328 328 329 329 329 328 328 328 328 328 327 327 326 324 322 322 322 323 322 322 321 320 318 317 317 316 315 314 312 310 307
319 321 322 323 325 325 325 326 326 326 327 327 328 328 328 328 328 328 328 327 327 327 327 325 324 322 320 321 322 321 320 320 319 317 315 314 315 314 312 309 306 304
316 318 319 320 321 322 323 323 324 324 325 325 327 327 328 328 328 327 327 327 327 326 325 325 324 321 320 320 318 317 318 319 317 315 314 314 313 311 308 305 303 302
312 313 314 315 315 316 318 318 318 319 320 321 323 324 326 326 325 325 326 326 326 325 324 323 322 321 320 319 317 317 318 316 313 314 314 312 310 307 304 303 302 300
309 309 310 311 312 313 315 316 317 318 318 319 320 321 322 323 322 323 324 325 326 325 322 321 319 319 319 317 317 319 318 314 312 314 313 311 308 305 302 301 299 298
305 307 308 310 311 312 314 316 317 317 317 318 319 319 320 321 321 321 321 322 323 324 322 319 318 318 317 315 315 317 316 315 314 314 311 308 306 304 302 298 296 294
303 304 306 308 310 311 313 314 315 316 316 317 317 318 318 319 319 319 319 319 320 320 319 318 317 316 314 313 314 314 314 314 314 312 310 307 304 303 300 296 293 292
303 303 304 305 306 308 310 312 313 314 315 315 316 316 317 317 317 317 317 317 317 316 315 315 314 312 311 312 312 310 308 308 309 310 309 306 303 301 297 293 291 290
303 304 304 305 305 306 307 309 311 312 313 313 313 314 314 314 315 315 315 315 314 313 312 311 310 310 310 310 308 306 305 306 308 308 306 304 302 300 296 292 291 290
303 304 305 306 306 306 306 307 309 311 312 312 312 312 312 312 312 312 312 312 312 311 310 309 309 309 308 308 307 307 306 307 307 305 303 302 300 297 294 291 290 290
303 304 305 306 307 307 307 308 309 310 310 310 310 310 310 310 310 310 310 310 310 309 308 308 308 307 306 306 306 305 304 303 303 302 301 299 296 294 291 290 289 289
303 304 305 306 307 307 308 308 309 309 309 310 309 309 309 308 308 308 308 307 307 307 307 307 306 306 306 305 304 303 302 301 301 300 298 295 293 291 290 289 289 289
304 304 305 306 307 307 308 308 308 308 308 308 308 307 307 307 306 305 305 305 305 305 305 306 305 305 305 304 303 302 302 301 301 298 295 293 290 289 288 289 288 288
304 304 305 306 307 307 307 307 306 305 305 305 305 304 304 304 303 303 303 304 304 304 304 305 304 304 303 303 302 301 301 301 300 297 293 290 289 288 287 287 288 288
304 304 305 306 306 306 305 304 303 303 303 302 302 302 301 301 301 300 300 300 300 300 301 301 302 302 302 302 301 301 300 299 297 294 292 290 288 287 287 287 286 286

ECMWFNIL_925_thetae_126.txt.gz
Theta_e
330 329 329 328 328 328 328 327 327 328 328 328 328 327 328 328 328 329 329 329 330 330 330 330 330 330 330 329 329 329 329 328 328 328 327 327 327 326 326 326 325 324
330 330 330 329 329 329 329 329 328 328 328 328 329 328 329 329 329 329 329 329 330 330 330 330 330 330 330 330 329 329 329 328 328 328 327 327 327 326 326 325 325 324
330 330 330 329 329 329 329 329 328 329 329 328 329 329 329 329 329 329 330 329 330 330 330 330 330 330 330 330 330 329 329 328 328 327 327 327 327 326 326 325 325 324
329 329 330 329 329 329 329 329 328 328 329 328 329 329 329 329 329 329 330 330 330 330 330 330 330 330 330 330 329 329 329 328 328 328 327 327 327 326 326 326 325 324
329 329 329 329 329 329 328 328 328 328 328 328 328 328 329 329 329 330 329 330 330 330 330 330 330 330 330 330 330 329 328 328 328 327 327 326 327 326 326 326 324 323
329 329 329 329 329 329 328 328 328 328 328 328 328 328 328 328 329 329 329 329 329 329 329 330 329 330 330 330 329 328 328 328 327 327 326 326 326 326 326 325 324 323
328 328 329 329 329 329 329 329 329 328 328 328 328 328 328 328 328 328 329 329 329 328 328 329 329 329 329 329 329 328 328 327 327 327 326 326 326 325 324 324 324 322
328 328 328 328 329 329 329 329 329 329 329 328 328 328 328 328 328 328 328 328 328 328 328 328 328 328 328 328 328 328 328 328 327 326 325 324 324 323 323 324 323 320
327 327 327 328 328 328 328 329 329 329 329 329 328 328 328 328 328 328 328 328 328 328 327 328 328 327 328 327 327 327 327 326 326 326 325 323 322 323 323 323 321 318
326 326 327 327 327 328 328 328 329 328 329 329 329 329 328 328 328 328 328 328 327 327 327 327 327 328 328 327 327 327 326 325 323 323 323 323 323 324 324 322 321 319
321 322 324 324 325 327 327 327 328 328 328 328 328 329 328 328 328 328 327 327 327 327 327 327 328 327 328 328 327 327 327 326 324 323 322 322 323 324 323 322 322 320
315 317 319 320 322 323 324 326 326 327 327 327 327 328 327 327 327 327 327 327 327 327 327 327 328 327 327 327 327 326 326 325 325 325 324 323 324 323 323 323 321 319
314 315 317 319 320 322 323 324 325 325 325 326 326 326 326 326 326 326 327 327 327 327 327 327 327 327 327 327 327 327 326 324 323 323 323 323 321 319 321 321 318 317
312 315 317 319 320 321 322 322 323 324 324 325 325 325 326 326 326 327 327 327 327 327 327 327 326 326 327 327 327 327 325 324 322 321 321 319 316 315 317 318 314 313
311 312 314 317 318 319 320 320 321 322 323 324 324 325 325 325 326 326 326 326 326 326 326 326 326 325 323 323 324 325 325 324 321 319 317 315 313 313 314 313 311 311
310 311 312 313 315 316 316 317 318 320 321 322 322 322 322 323 323 324 323 323 324 324 324 324 323 323 323 322 322 323 324 323 321 317 314 312 312 312 310 310 311 312
309 309 309 310 310 311 312 312 313 315 317 317 318 318 318 319 320 320 320 320 321 322 322 322 321 322 324 323 322 322 322 321 319 316 313 312 313 313 311 311 312 311
306 306 306 306 307 307 308 309 310 311 313 314 315 316 316 317 318 319 319 319 320 320 320 320 321 322 323 323 322 320 319 317 315 313 312 312 313 311 311 312 311 309
305 304 304 304 304 306 307 308 309 310 312 313 314 315 315 316 317 317 318 318 318 318 319 319 319 320 321 321 319 317 315 313 312 311 311 311 310 309 309 309 309 308
304 303 302 302 302 304 306 308 309 310 311 312 313 314 315 315 316 316 316 317 317 317 317 318 318 318 317 317 315 313 311 310 309 309 309 309 307 307 307 307 308 309
301 301 302 302 302 302 303 306 308 309 311 312 313 314 314 314 315 315 315 315 315 315 315 315 315 314 314 313 312 310 309 308 307 307 307 306 307 307 307 307 308 308
301 301 301 302 302 302 303 304 305 307 309 310 311 312 312 312 312 313 313 313 312 312 313 312 312 312 311 310 309 308 308 307 306 305 305 305 307 307 305 306 306 304
301 301 301 302 302 304 304 304 304 305 307 308 310 310 311 311 311 311 312 311 311 311 311 311 311 310 310 309 307 307 306 306 304 304 304 304 304 303 303 303 303 301
301 301 301 302 303 304 305 305 305 305 307 308 309 309 310 310 310 310 310 310 310 309 309 309 308 308 307 306 305 305 305 304 304 303 302 301 300 300 300 300 299 298
301 300 301 302 303 304 305 306 307 306 307 307 307 308 308 308 308 308 308 308 308 307 306 306 305 305 304 303 302 302 302 302 302 301 299 298 297 298 297 296 295 294
301 301 301 302 303 304 305 306 306 306 306 306 306 306 306 306 306 306 307 307 308 307 307 306 305 305 304 303 301 300 300 300 299 298 297 296 296 295 294 293 292 292